[[{"header":{"parameterUnit":"m.s-1","parameterCategory":1,"la1":31.0,"la2":29.5877,"lo1":-88.7671,"lo2":-86.6584,"dx":0.0162,"dy":0.0185,"nx":115,"ny":88,"refTime":"2022-11-07T06:00:00:Z","depth":0,"parameterNumber":2,"parameterNumberName":"U-component_of_WINDS"},"data":[0.0,0.0,0.0,0.0,0.0,0.0,0.0,0.0,0.0,0.0,0.0,0.0,0.0,0.0,0.0,0.0,0.0,0.0,0.0,0.0,0.0,0.0,0.0,0.0,0.0,0.0,0.0,0.0,0.0,0.0,0.0,0.0,0.0,0.0,0.0,0.0,0.0,0.0,0.0,0.0,0.0,0.0,0.0,0.0,0.0,0.0,0.0,0.0,0.0,0.0,0.0,0.0,0.0,0.0,0.0,0.0,0.0,0.0,0.0,0.0,0.0,0.0,0.0,0.0,0.0,0.0,0.0,0.0,0.0,0.0,0.0,0.0,0.0,0.0,0.0,0.0,0.0,0.0,0.0,0.0,0.0,0.0,0.0,0.0,0.0,0.0,0.0,0.0,0.0,0.0,0.0,0.0,0.0,0.0,0.0,0.0,0.0,0.0,0.0,0.0,0.0,0.0,0.0,0.0,0.0,0.0,0.0,0.0,0.0,0.0,0.0,0.0,0.0,0.0,0.0,0.0,0.0,0.0,0.0,0.0,0.0,0.0,0.0,0.0,0.0,0.0,0.0,0.0,0.0,0.0,0.0,0.0,0.0,0.0,0.0,0.0,0.0,0.0,0.0,0.0,0.0,0.0,0.0,0.0,0.0,0.0,0.0,0.0,0.0,0.0,0.0,0.0,0.0,0.0,0.0,0.0,0.0,0.0,0.0,0.0,0.0,0.0,0.0,0.0,0.0,0.0,0.0,0.0,0.0,0.0,0.0,0.0,0.0,0.0,0.0,0.0,0.0,0.0,0.0,0.0,0.0,0.0,0.0,0.0,0.0,0.0,0.0,0.0,0.0,0.0,0.0,0.0,0.0,0.0,0.0,0.0,0.0,0.0,0.0,0.0,0.0,0.0,0.0,0.0,0.0,0.0,0.0,0.0,0.0,0.0,0.0,0.0,0.0,0.0,0.0,0.0,0.0,0.0,0.0,0.0,0.0,0.0,0.0,0.0,0.0,0.0,0.0,0.0,0.0,0.0,0.0,0.0,0.0,0.0,0.0,0.0,0.0,0.0,0.0,0.0,0.0,0.0,0.0,0.0,0.0,0.0,0.0,0.0,0.0,0.0,0.0,0.0,0.0,0.0,0.0,0.0,0.0,0.0,0.0,0.0,0.0,0.0,0.0,0.0,0.0,0.0,0.0,0.0,0.0,0.0,0.0,0.0,0.0,0.0,0.0,0.0,0.0,0.0,0.0,0.0,0.0,0.0,0.0,0.0,0.0,0.0,0.0,0.0,0.0,0.0,0.0,0.0,0.0,0.0,0.0,0.0,0.0,0.0,0.0,0.0,0.0,0.0,0.0,0.0,0.0,0.0,0.0,0.0,0.0,0.0,0.0,0.0,0.0,0.0,0.0,0.0,0.0,0.0,0.0,0.0,0.0,0.0,0.0,0.0,0.0,0.0,0.0,0.0,0.0,0.0,0.0,0.0,0.0,0.0,0.0,0.0,0.0,0.0,0.0,0.0,0.0,0.0,0.0,0.0,0.0,0.0,0.0,0.0,0.0,0.0,0.0,0.0,0.0,0.0,0.0,0.0,0.0,0.0,0.0,0.0,0.0,0.0,0.0,0.0,0.0,0.0,0.0,0.0,0.0,0.0,0.0,0.0,0.0,0.0,0.0,0.0,0.0,0.0,0.0,0.0,0.0,0.0,0.0,0.0,0.0,0.0,0.0,0.0,0.0,0.0,0.0,0.0,0.0,0.0,0.0,0.0,0.0,0.0,0.0,0.0,0.0,0.0,0.0,0.0,0.0,0.0,0.0,0.0,0.0,0.0,0.0,0.0,0.0,0.0,0.0,0.0,0.0,0.0,0.0,0.0,0.0,0.0,0.0,0.0,0.0,0.0,0.0,0.0,0.0,0.0,0.0,0.0,0.0,0.0,0.0,0.0,0.0,0.0,0.0,0.0,0.0,0.0,0.0,0.0,0.0,0.0,0.0,0.0,0.0,0.0,0.0,0.0,0.0,0.0,0.0,0.0,0.0,0.0,0.0,0.0,0.0,0.0,0.0,0.0,0.0,0.0,0.0,0.0,0.0,0.0,0.0,0.0,0.0,0.0,0.0,0.0,0.0,0.0,0.0,0.0,0.0,0.0,0.0,0.0,0.0,0.0,0.0,0.0,0.0,0.0,0.0,0.0,0.0,0.0,0.0,0.0,0.0,0.0,0.0,0.0,0.0,0.0,0.0,0.0,0.0,0.0,0.0,0.0,0.0,0.0,0.0,0.0,0.0,0.0,0.0,0.0,0.0,0.0,0.0,0.0,0.0,0.0,0.0,0.0,0.0,0.0,0.0,0.0,0.0,0.0,0.0,0.0,0.0,0.0,0.0,0.0,0.0,0.0,0.0,0.0,0.0,0.0,0.0,0.0,0.0,0.0,0.0,0.0,0.0,0.0,0.0,0.0,0.0,0.0,0.0,0.0,0.0,0.0,0.0,0.0,0.0,0.0,0.0,0.0,0.0,0.0,0.0,0.0,0.0,0.0,0.0,0.0,0.0,0.0,0.0,0.0,0.0,0.0,0.0,0.0,0.0,0.0,0.0,0.0,0.0,0.0,0.0,0.0,0.0,0.0,0.0,0.0,0.0,0.0,0.0,0.0,0.0,0.0,0.0,0.0,0.0,0.0,0.0,0.0,0.0,0.0,0.0,0.0,0.0,0.0,0.0,0.0,0.0,0.0,0.0,0.0,0.0,0.0,0.0,0.0,0.0,0.0,0.0,0.0,0.0,0.0,0.0,0.0,0.0,0.0,0.0,0.0,0.0,0.0,0.0,0.0,0.0,0.0,0.0,0.0,0.0,0.0,0.0,0.0,0.0,0.0,0.0,0.0,0.0,0.0,0.0,0.0,0.0,0.0,0.0,0.0,0.0,0.0,0.0,0.0,0.0,0.0,0.0,0.0,0.0,0.0,0.0,0.0,0.0,0.0,0.0,0.0,0.0,0.0,0.0,0.0,0.0,0.0,0.0,0.0,0.0,0.0,0.0,0.0,0.0,0.0,0.0,0.0,0.0,0.0,0.0,0.0,0.0,0.0,0.0,0.0,0.0,0.0,0.0,0.0,0.0,0.0,0.0,0.0,0.0,0.0,0.0,0.0,0.0,0.0,0.0,0.0,0.0,0.0,0.0,0.0,0.0,0.0,0.0,0.0,0.0,0.0,0.0,0.0,0.0,0.0,0.0,0.0,0.0,0.0,0.0,0.0,0.0,0.0,0.0,0.0,0.0,0.0,0.0,0.0,0.0,0.0,0.0,0.0,0.0,0.0,0.0,0.0,0.0,0.0,0.0,0.0,0.0,0.0,0.0,0.0,0.0,0.0,0.0,0.0,0.0,0.0,0.0,0.0,0.0,0.0,0.0,0.0,0.0,0.0,0.0,0.0,0.0,0.0,0.0,0.0,0.0,0.0,0.0,0.0,0.0,0.0,0.0,0.0,0.0,0.0,0.0,0.0,0.0,0.0,0.0,0.0,0.0,0.0,0.0,0.0,0.0,0.0,0.0,0.0,0.0,0.0,0.0,0.0,0.0,0.0,0.0,0.0,0.0,0.0,0.0,0.0,0.0,0.0,0.0,0.0,0.0,0.0,0.0,0.0,0.0,0.0,0.0,0.0,0.0,0.0,0.0,0.0,0.0,0.0,0.0,0.0,0.0,0.0,0.0,0.0,0.0,0.0,0.0,0.0,0.0,0.0,0.0,0.0,0.0,0.0,0.0,0.0,0.0,0.0,0.0,0.0,0.0,0.0,0.0,0.0,0.0,0.0,0.0,0.0,0.0,0.0,0.0,0.0,0.0,0.0,0.0,0.0,0.0,0.0,0.0,0.0,0.0,0.0,0.0,0.0,0.0,0.0,0.0,0.0,0.0,0.0,0.0,0.0,0.0,0.0,0.0,0.0,0.0,0.0,0.0,0.0,0.0,0.0,0.0,0.0,0.0,0.0,0.0,0.0,0.0,0.0,0.0,0.0,0.0,0.0,0.0,0.0,0.0,0.0,0.0,0.0,0.0,0.0,0.0,0.0,0.0,0.0,0.0,0.0,0.0,0.0,0.0,0.0,0.0,0.0,0.0,0.0,0.0,0.0,0.0,0.0,0.0,0.0,0.0,0.0,0.0,0.0,0.0,0.0,0.0,0.0,0.0,0.0,0.0,0.0,0.0,0.0,0.0,0.0,0.0,0.0,0.0,0.0,0.0,0.0,0.0,0.0,0.0,0.0,0.0,0.0,3.8652,0.0,0.0,0.0,3.7734,0.0,0.0,0.0,0.0,0.0,0.0,0.0,0.0,0.0,0.0,0.0,0.0,0.0,0.0,0.0,0.0,0.0,0.0,0.0,0.0,0.0,0.0,0.0,0.0,0.0,0.0,0.0,0.0,0.0,0.0,0.0,0.0,0.0,0.0,0.0,0.0,0.0,0.0,0.0,0.0,0.0,0.0,0.0,0.0,0.0,0.0,0.0,0.0,0.0,0.0,0.0,0.0,0.0,0.0,0.0,0.0,0.0,0.0,0.0,0.0,0.0,0.0,0.0,0.0,0.0,0.0,0.0,0.0,0.0,0.0,0.0,0.0,0.0,0.0,0.0,0.0,0.0,0.0,0.0,0.0,0.0,0.0,0.0,0.0,0.0,0.0,0.0,0.0,0.0,0.0,0.0,0.0,0.0,0.0,0.0,0.0,0.0,0.0,0.0,0.0,0.0,0.0,0.0,0.0,0.0,0.0,0.0,0.0,0.0,0.0,4.0079,4.0349,3.9914,3.9602,3.9436,0.0,0.0,0.0,0.0,0.0,0.0,0.0,0.0,0.0,0.0,0.0,0.0,0.0,0.0,0.0,0.0,0.0,0.0,0.0,0.0,0.0,0.0,0.0,0.0,0.0,0.0,0.0,0.0,0.0,0.0,0.0,0.0,0.0,0.0,0.0,0.0,0.0,0.0,0.0,0.0,0.0,0.0,0.0,0.0,0.0,0.0,0.0,0.0,0.0,0.0,0.0,0.0,0.0,0.0,0.0,0.0,0.0,0.0,0.0,0.0,0.0,0.0,0.0,0.0,0.0,0.0,0.0,0.0,0.0,0.0,0.0,0.0,0.0,0.0,0.0,0.0,0.0,0.0,0.0,0.0,0.0,0.0,0.0,0.0,0.0,0.0,0.0,0.0,0.0,0.0,0.0,0.0,0.0,0.0,0.0,0.0,0.0,0.0,0.0,0.0,0.0,0.0,0.0,0.0,0.0,0.0,0.0,0.0,0.0,0.0,0.0,0.0,4.1254,4.1017,4.0778,0.0,0.0,0.0,0.0,0.0,0.0,0.0,0.0,0.0,0.0,0.0,0.0,0.0,0.0,0.0,0.0,0.0,0.0,0.0,0.0,0.0,0.0,0.0,0.0,0.0,0.0,0.0,0.0,0.0,0.0,0.0,0.0,0.0,0.0,0.0,0.0,0.0,0.0,0.0,0.0,0.0,0.0,0.0,0.0,0.0,0.0,0.0,0.0,0.0,0.0,0.0,0.0,0.0,0.0,0.0,0.0,0.0,0.0,0.0,0.0,0.0,0.0,0.0,0.0,0.0,0.0,0.0,0.0,0.0,0.0,0.0,0.0,0.0,0.0,0.0,0.0,0.0,0.0,0.0,0.0,0.0,0.0,0.0,0.0,0.0,0.0,0.0,0.0,0.0,0.0,0.0,0.0,0.0,0.0,0.0,0.0,0.0,0.0,0.0,0.0,0.0,0.0,0.0,0.0,0.0,0.0,0.0,0.0,0.0,0.0,4.2344,4.2299,4.2229,0.0,4.0816,0.0,0.0,0.0,0.0,0.0,0.0,0.0,0.0,0.0,0.0,0.0,0.0,0.0,0.0,0.0,0.0,0.0,0.0,0.0,0.0,0.0,0.0,0.0,0.0,0.0,0.0,0.0,0.0,0.0,0.0,0.0,0.0,0.0,0.0,0.0,0.0,0.0,0.0,0.0,0.0,0.0,0.0,0.0,0.0,0.0,0.0,0.0,0.0,0.0,0.0,0.0,0.0,0.0,0.0,0.0,0.0,0.0,0.0,0.0,0.0,0.0,0.0,0.0,0.0,0.0,0.0,0.0,0.0,0.0,0.0,0.0,0.0,0.0,0.0,0.0,0.0,0.0,0.0,0.0,0.0,0.0,0.0,0.0,0.0,0.0,0.0,0.0,0.0,0.0,0.0,0.0,0.0,0.0,0.0,0.0,0.0,0.0,0.0,0.0,0.0,0.0,0.0,0.0,0.0,0.0,0.0,0.0,0.0,0.0,0.0,4.4007,4.3961,4.3829,4.3101,0.0,0.0,0.0,0.0,0.0,0.0,0.0,0.0,0.0,0.0,0.0,0.0,0.0,0.0,0.0,0.0,0.0,0.0,0.0,0.0,0.0,0.0,0.0,0.0,0.0,0.0,0.0,0.0,0.0,0.0,0.0,0.0,0.0,0.0,0.0,0.0,0.0,0.0,0.0,0.0,0.0,0.0,0.0,0.0,0.0,0.0,0.0,0.0,0.0,0.0,0.0,0.0,0.0,0.0,0.0,0.0,0.0,0.0,0.0,0.0,0.0,0.0,0.0,0.0,0.0,0.0,0.0,0.0,0.0,0.0,0.0,0.0,0.0,0.0,0.0,0.0,0.0,0.0,0.0,0.0,0.0,0.0,0.0,0.0,0.0,0.0,0.0,0.0,0.0,0.0,0.0,0.0,0.0,0.0,0.0,0.0,0.0,0.0,0.0,0.0,0.0,0.0,0.0,0.0,0.0,0.0,0.0,0.0,0.0,0.0,4.4957,4.5788,4.5694,4.5596,4.4663,4.2888,0.0,0.0,0.0,0.0,0.0,0.0,0.0,0.0,0.0,0.0,0.0,0.0,0.0,0.0,0.0,0.0,0.0,0.0,0.0,0.0,0.0,0.0,0.0,0.0,0.0,0.0,0.0,0.0,0.0,0.0,0.0,0.0,0.0,0.0,0.0,0.0,0.0,0.0,0.0,0.0,0.0,0.0,0.0,0.0,0.0,0.0,0.0,0.0,0.0,0.0,0.0,0.0,0.0,0.0,0.0,0.0,0.0,0.0,0.0,0.0,0.0,0.0,0.0,0.0,0.0,0.0,0.0,0.0,0.0,0.0,0.0,0.0,0.0,0.0,0.0,0.0,0.0,0.0,0.0,0.0,0.0,0.0,0.0,0.0,0.0,0.0,0.0,0.0,0.0,0.0,0.0,0.0,0.0,0.0,0.0,0.0,0.0,0.0,0.0,0.0,0.0,0.0,0.0,0.0,0.0,0.0,0.0,0.0,4.5239,4.6778,4.7524,4.7403,4.7327,4.648,0.0,0.0,0.0,0.0,0.0,0.0,0.0,0.0,0.0,0.0,0.0,0.0,0.0,0.0,0.0,0.0,0.0,0.0,0.0,0.0,0.0,0.0,0.0,0.0,0.0,0.0,0.0,0.0,0.0,0.0,0.0,0.0,0.0,0.0,0.0,0.0,0.0,0.0,0.0,0.0,0.0,0.0,0.0,0.0,0.0,0.0,0.0,0.0,0.0,0.0,0.0,0.0,0.0,0.0,0.0,0.0,0.0,0.0,0.0,0.0,0.0,0.0,0.0,0.0,0.0,0.0,0.0,0.0,0.0,0.0,0.0,0.0,0.0,0.0,0.0,0.0,0.0,0.0,0.0,0.0,0.0,0.0,0.0,0.0,0.0,0.0,0.0,0.0,0.0,0.0,0.0,0.0,0.0,0.0,0.0,0.0,0.0,0.0,0.0,0.0,0.0,0.0,0.0,0.0,0.0,0.0,0.0,0.0,0.0,4.7685,4.932,5.0125,5.0038,4.9442,4.8263,0.0,0.0,0.0,0.0,0.0,0.0,0.0,0.0,0.0,0.0,0.0,0.0,0.0,0.0,0.0,0.0,0.0,0.0,0.0,0.0,0.0,0.0,0.0,0.0,0.0,0.0,0.0,0.0,0.0,0.0,0.0,0.0,0.0,0.0,0.0,0.0,0.0,0.0,0.0,0.0,0.0,0.0,0.0,0.0,0.0,0.0,0.0,0.0,0.0,0.0,0.0,0.0,0.0,0.0,0.0,0.0,0.0,0.0,0.0,0.0,0.0,0.0,0.0,0.0,0.0,0.0,0.0,0.0,0.0,0.0,0.0,0.0,0.0,0.0,0.0,0.0,0.0,0.0,0.0,0.0,0.0,0.0,0.0,0.0,0.0,0.0,0.0,0.0,0.0,0.0,0.0,0.0,0.0,0.0,0.0,0.0,0.0,0.0,0.0,0.0,0.0,0.0,0.0,0.0,0.0,0.0,0.0,0.0,0.0,5.0627,5.203,5.2616,5.2285,5.1649,5.0328,0.0,0.0,0.0,0.0,0.0,0.0,0.0,0.0,0.0,0.0,0.0,0.0,0.0,0.0,0.0,0.0,0.0,0.0,0.0,0.0,0.0,0.0,0.0,0.0,0.0,0.0,0.0,0.0,0.0,0.0,0.0,0.0,0.0,0.0,0.0,0.0,0.0,0.0,0.0,0.0,0.0,0.0,0.0,0.0,0.0,0.0,0.0,0.0,0.0,0.0,0.0,0.0,0.0,0.0,0.0,0.0,0.0,0.0,0.0,0.0,0.0,0.0,0.0,0.0,0.0,0.0,0.0,0.0,0.0,0.0,0.0,0.0,0.0,0.0,0.0,0.0,0.0,0.0,0.0,0.0,0.0,0.0,0.0,0.0,0.0,0.0,0.0,0.0,0.0,0.0,0.0,0.0,0.0,0.0,0.0,0.0,0.0,0.0,0.0,0.0,0.0,0.0,0.0,0.0,0.0,0.0,0.0,0.0,5.0818,5.3989,5.4944,5.5033,5.4104,5.3949,5.2688,0.0,0.0,0.0,0.0,0.0,0.0,0.0,0.0,0.0,0.0,0.0,0.0,0.0,0.0,0.0,0.0,0.0,0.0,0.0,0.0,0.0,0.0,0.0,0.0,0.0,0.0,0.0,0.0,0.0,0.0,0.0,0.0,0.0,0.0,0.0,0.0,0.0,0.0,0.0,0.0,0.0,0.0,0.0,0.0,0.0,0.0,0.0,0.0,0.0,0.0,0.0,0.0,0.0,0.0,0.0,0.0,0.0,0.0,0.0,0.0,0.0,0.0,0.0,0.0,0.0,0.0,0.0,0.0,0.0,0.0,0.0,0.0,0.0,0.0,0.0,0.0,0.0,0.0,0.0,0.0,0.0,0.0,0.0,0.0,0.0,0.0,0.0,0.0,0.0,0.0,0.0,0.0,0.0,0.0,0.0,0.0,0.0,0.0,0.0,0.0,0.0,0.0,0.0,0.0,0.0,0.0,0.0,0.0,0.0,5.6702,5.7542,5.7848,5.7477,5.6328,5.4482,0.0,0.0,0.0,0.0,0.0,0.0,0.0,0.0,0.0,0.0,0.0,0.0,0.0,0.0,0.0,0.0,0.0,0.0,0.0,0.0,0.0,0.0,0.0,0.0,0.0,0.0,0.0,0.0,0.0,0.0,0.0,0.0,0.0,0.0,0.0,0.0,0.0,0.0,0.0,0.0,0.0,0.0,0.0,0.0,0.0,0.0,0.0,0.0,0.0,0.0,0.0,0.0,0.0,0.0,0.0,0.0,0.0,0.0,0.0,0.0,0.0,0.0,0.0,0.0,0.0,0.0,0.0,0.0,0.0,0.0,0.0,0.0,0.0,0.0,0.0,0.0,0.0,0.0,0.0,0.0,0.0,0.0,0.0,0.0,0.0,0.0,0.0,0.0,0.0,0.0,0.0,0.0,0.0,0.0,0.0,0.0,0.0,0.0,0.0,0.0,0.0,0.0,0.0,0.0,0.0,0.0,0.0,0.0,0.0,6.0637,6.0599,6.037,6.0026,5.8672,5.6709,5.4139,0.0,0.0,0.0,0.0,0.0,0.0,0.0,0.0,0.0,0.0,0.0,0.0,0.0,0.0,0.0,0.0,0.0,0.0,0.0,0.0,0.0,0.0,0.0,0.0,0.0,0.0,0.0,0.0,0.0,0.0,0.0,0.0,0.0,0.0,0.0,0.0,0.0,0.0,0.0,0.0,0.0,0.0,0.0,0.0,0.0,0.0,0.0,0.0,0.0,0.0,0.0,0.0,0.0,0.0,0.0,0.0,0.0,0.0,0.0,0.0,0.0,0.0,0.0,0.0,0.0,0.0,0.0,0.0,0.0,0.0,0.0,0.0,0.0,0.0,0.0,0.0,0.0,0.0,0.0,0.0,0.0,0.0,0.0,0.0,0.0,0.0,0.0,0.0,0.0,0.0,0.0,0.0,0.0,0.0,0.0,0.0,0.0,0.0,0.0,0.0,0.0,0.0,0.0,0.0,0.0,0.0,0.0,0.0,6.5375,6.3962,6.2739,6.1822,6.0924,5.9254,0.0,0.0,0.0,0.0,0.0,0.0,0.0,0.0,0.0,0.0,0.0,0.0,0.0,0.0,0.0,0.0,0.0,0.0,0.0,0.0,0.0,0.0,0.0,0.0,0.0,0.0,0.0,0.0,0.0,0.0,0.0,0.0,0.0,0.0,0.0,0.0,0.0,0.0,0.0,0.0,0.0,0.0,0.0,0.0,0.0,0.0,0.0,0.0,0.0,0.0,0.0,0.0,0.0,0.0,0.0,0.0,0.0,0.0,0.0,0.0,0.0,0.0,0.0,0.0,0.0,0.0,0.0,0.0,0.0,0.0,0.0,0.0,0.0,0.0,0.0,0.0,0.0,0.0,0.0,0.0,0.0,0.0,0.0,0.0,0.0,0.0,0.0,0.0,0.0,0.0,0.0,0.0,0.0,0.0,0.0,0.0,0.0,0.0,0.0,0.0,0.0,0.0,0.0,0.0,0.0,0.0,0.0,0.0,0.0,6.5337,6.6178,6.591,6.4458,6.2977,6.0695,0.0,0.0,0.0,0.0,0.0,0.0,0.0,0.0,0.0,0.0,0.0,0.0,0.0,0.0,0.0,0.0,0.0,0.0,0.0,0.0,0.0,0.0,0.0,0.0,0.0,0.0,0.0,0.0,0.0,0.0,0.0,0.0,0.0,0.0,0.0,0.0,0.0,0.0,0.0,0.0,0.0,0.0,0.0,0.0,0.0,0.0,0.0,0.0,0.0,0.0,0.0,0.0,0.0,0.0,0.0,0.0,0.0,0.0,0.0,0.0,0.0,0.0,0.0,0.0,0.0,0.0,0.0,0.0,0.0,0.0,0.0,0.0,0.0,0.0,0.0,0.0,0.0,0.0,0.0,0.0,0.0,0.0,0.0,0.0,0.0,0.0,0.0,0.0,0.0,0.0,0.0,0.0,0.0,0.0,0.0,0.0,0.0,0.0,0.0,0.0,0.0,0.0,0.0,0.0,0.0,0.0,0.0,0.0,6.549,6.7477,6.8814,6.8852,6.7515,6.5184,6.271,0.0,0.0,0.0,0.0,0.0,0.0,0.0,0.0,0.0,0.0,0.0,0.0,0.0,0.0,0.0,0.0,0.0,0.0,0.0,0.0,0.0,0.0,0.0,0.0,0.0,0.0,0.0,0.0,0.0,0.0,0.0,0.0,0.0,0.0,0.0,0.0,0.0,0.0,0.0,0.0,0.0,0.0,0.0,0.0,0.0,0.0,0.0,0.0,0.0,0.0,0.0,0.0,0.0,0.0,0.0,0.0,0.0,0.0,0.0,0.0,0.0,0.0,0.0,0.0,0.0,0.0,0.0,0.0,0.0,0.0,0.0,0.0,0.0,0.0,0.0,0.0,0.0,0.0,0.0,0.0,0.0,0.0,0.0,0.0,0.0,0.0,0.0,0.0,0.0,0.0,0.0,0.0,0.0,0.0,0.0,0.0,0.0,0.0,0.0,0.0,0.0,0.0,0.0,0.0,0.0,0.0,0.0,0.0,6.7973,7.0342,7.1336,7.145,7.0648,6.74,6.4802,0.0,0.0,0.0,0.0,0.0,0.0,0.0,0.0,0.0,0.0,0.0,0.0,0.0,0.0,0.0,0.0,0.0,0.0,0.0,0.0,0.0,0.0,0.0,0.0,0.0,0.0,0.0,0.0,0.0,0.0,0.0,0.0,0.0,0.0,0.0,0.0,0.0,0.0,0.0,0.0,0.0,0.0,0.0,0.0,0.0,0.0,0.0,0.0,0.0,0.0,0.0,0.0,0.0,0.0,0.0,0.0,0.0,0.0,0.0,0.0,0.0,0.0,0.0,0.0,0.0,0.0,0.0,0.0,0.0,0.0,0.0,0.0,0.0,0.0,0.0,0.0,0.0,0.0,0.0,0.0,0.0,0.0,0.0,0.0,0.0,0.0,0.0,0.0,0.0,0.0,0.0,0.0,0.0,0.0,0.0,0.0,0.0,0.0,0.0,0.0,0.0,0.0,0.0,0.0,0.0,0.0,0.0,0.0,6.8547,7.0381,7.1909,7.2635,7.2444,6.9158,6.5987,0.0,0.0,0.0,0.0,0.0,0.0,0.0,0.0,0.0,0.0,0.0,0.0,0.0,0.0,0.0,0.0,0.0,0.0,0.0,0.0,0.0,0.0,0.0,0.0,0.0,0.0,0.0,0.0,0.0,0.0,0.0,0.0,0.0,0.0,0.0,0.0,0.0,0.0,0.0,0.0,0.0,0.0,0.0,0.0,0.0,0.0,0.0,0.0,5.1466,0.0,0.0,0.0,0.0,0.0,0.0,0.0,0.0,0.0,0.0,0.0,0.0,0.0,0.0,0.0,0.0,0.0,0.0,0.0,0.0,0.0,0.0,0.0,0.0,0.0,0.0,0.0,0.0,0.0,0.0,0.0,0.0,0.0,0.0,0.0,0.0,0.0,0.0,0.0,0.0,0.0,0.0,0.0,0.0,0.0,0.0,0.0,0.0,0.0,0.0,0.0,0.0,0.0,0.0,0.0,0.0,0.0,0.0,0.0,6.954,7.1565,7.2902,7.359,7.3476,7.103,6.8279,0.0,0.0,0.0,0.0,0.0,0.0,0.0,0.0,0.0,0.0,0.0,0.0,0.0,0.0,0.0,0.0,0.0,0.0,0.0,0.0,0.0,0.0,0.0,0.0,0.0,0.0,0.0,0.0,0.0,0.0,0.0,0.0,0.0,0.0,0.0,0.0,0.0,0.0,0.0,0.0,0.0,0.0,0.0,0.0,0.0,0.0,0.0,0.0,0.0,0.0,0.0,0.0,0.0,0.0,0.0,0.0,0.0,0.0,0.0,0.0,0.0,0.0,0.0,0.0,0.0,0.0,0.0,0.0,0.0,0.0,0.0,0.0,0.0,0.0,0.0,0.0,0.0,0.0,0.0,0.0,0.0,0.0,0.0,0.0,0.0,0.0,0.0,0.0,0.0,0.0,0.0,0.0,0.0,0.0,0.0,0.0,0.0,0.0,0.0,0.0,0.0,0.0,0.0,0.0,0.0,0.0,0.0,6.8279,7.0801,7.3284,7.4163,7.4584,7.4545,7.2941,7.0877,6.8317,0.0,0.0,0.0,0.0,0.0,0.0,0.0,0.0,0.0,0.0,0.0,0.0,0.0,0.0,0.0,0.0,0.0,0.0,0.0,0.0,0.0,0.0,0.0,0.0,0.0,0.0,0.0,0.0,0.0,0.0,0.0,0.0,0.0,0.0,0.0,0.0,0.0,0.0,4.491,4.846,0.0,0.0,0.0,0.0,0.0,0.0,0.0,0.0,5.4834,0.0,0.0,0.0,0.0,0.0,0.0,0.0,0.0,0.0,0.0,0.0,0.0,0.0,0.0,0.0,0.0,0.0,0.0,0.0,0.0,0.0,0.0,0.0,0.0,0.0,0.0,0.0,0.0,0.0,0.0,0.0,0.0,0.0,0.0,0.0,0.0,0.0,0.0,0.0,0.0,0.0,0.0,0.0,0.0,0.0,0.0,0.0,0.0,0.0,0.0,0.0,0.0,0.0,0.0,0.0,0.0,6.7439,6.9999,7.252,7.5004,7.5883,7.6303,7.6265,7.466,7.2597,6.996,0.0,0.0,0.0,0.0,0.0,0.0,0.0,0.0,0.0,0.0,0.0,0.0,0.0,0.0,0.0,0.0,0.0,0.0,0.0,0.0,0.0,0.0,0.0,0.0,0.0,0.0,0.0,0.0,0.0,0.0,0.0,0.0,0.0,0.0,0.0,0.0,0.0,0.0,0.0,5.2408,5.4943,0.0,0.0,0.0,0.0,0.0,0.0,0.0,0.0,5.621,0.0,0.0,0.0,0.0,0.0,0.0,0.0,0.0,0.0,0.0,0.0,0.0,0.0,0.0,0.0,0.0,0.0,0.0,0.0,0.0,0.0,0.0,0.0,0.0,0.0,0.0,0.0,0.0,0.0,0.0,0.0,0.0,0.0,0.0,0.0,0.0,0.0,0.0,0.0,0.0,0.0,0.0,0.0,0.0,0.0,0.0,0.0,0.0,0.0,0.0,0.0,0.0,0.0,0.0,0.0,6.7821,7.0839,7.3399,7.5424,7.6723,7.7144,7.6685,7.5501,7.3667,0.0,0.0,0.0,0.0,0.0,0.0,0.0,0.0,0.0,0.0,0.0,0.0,0.0,0.0,0.0,0.0,0.0,0.0,0.0,0.0,0.0,0.0,0.0,0.0,0.0,0.0,0.0,0.0,0.0,0.0,0.0,0.0,0.0,0.0,0.0,0.0,0.0,0.0,0.0,0.0,5.5233,5.7442,5.9361,0.0,0.0,0.0,0.0,0.0,0.0,5.9868,5.8673,0.0,0.0,0.0,0.0,0.0,0.0,0.0,0.0,0.0,0.0,0.0,0.0,0.0,0.0,0.0,0.0,0.0,0.0,0.0,0.0,0.0,0.0,0.0,0.0,0.0,0.0,0.0,0.0,0.0,0.0,0.0,0.0,0.0,0.0,0.0,0.0,0.0,0.0,0.0,0.0,0.0,0.0,0.0,0.0,0.0,0.0,0.0,0.0,0.0,0.0,0.0,0.0,0.0,0.0,0.0,6.8356,7.1603,7.4125,7.5959,7.7487,7.7946,7.722,7.6265,7.4545,0.0,0.0,0.0,0.0,0.0,0.0,0.0,0.0,0.0,0.0,0.0,0.0,0.0,0.0,0.0,0.0,0.0,0.0,0.0,0.0,0.0,0.0,0.0,0.0,0.0,0.0,0.0,0.0,0.0,0.0,0.0,0.0,0.0,0.0,0.0,0.0,0.0,0.0,0.0,0.0,0.0,5.9542,6.1281,6.2223,0.0,0.0,0.0,0.0,6.2766,6.2041,0.0,0.0,0.0,0.0,0.0,0.0,0.0,0.0,0.0,0.0,0.0,0.0,0.0,0.0,0.0,0.0,0.0,0.0,0.0,0.0,0.0,0.0,0.0,0.0,0.0,0.0,0.0,0.0,0.0,0.0,0.0,0.0,0.0,0.0,0.0,0.0,0.0,0.0,0.0,0.0,0.0,0.0,0.0,0.0,0.0,0.0,0.0,0.0,0.0,0.0,0.0,0.0,0.0,0.0,0.0,0.0,7.0037,7.2711,7.5233,7.7602,7.8672,7.9092,7.8978,7.7411,7.5386,0.0,0.0,0.0,0.0,0.0,0.0,0.0,0.0,0.0,0.0,0.0,0.0,0.0,0.0,0.0,0.0,0.0,0.0,0.0,0.0,0.0,0.0,0.0,0.0,0.0,0.0,0.0,0.0,0.0,0.0,0.0,0.0,0.0,0.0,0.0,0.0,0.0,0.0,0.0,0.0,0.0,6.1353,6.3671,6.4685,6.5446,0.0,0.0,6.5989,6.5301,6.4504,0.0,0.0,0.0,0.0,0.0,0.0,0.0,0.0,0.0,0.0,0.0,0.0,0.0,0.0,0.0,0.0,0.0,0.0,0.0,0.0,0.0,0.0,0.0,0.0,0.0,0.0,0.0,0.0,0.0,0.0,0.0,0.0,0.0,0.0,0.0,0.0,0.0,0.0,0.0,0.0,0.0,0.0,0.0,0.0,0.0,0.0,0.0,0.0,0.0,0.0,0.0,0.0,0.0,0.0,0.0,6.8126,7.1794,7.4354,7.6647,7.8672,7.9551,7.9742,7.9283,7.8099,7.6265,0.0,0.0,0.0,0.0,0.0,0.0,0.0,0.0,0.0,0.0,0.0,0.0,0.0,0.0,0.0,0.0,0.0,0.0,0.0,0.0,0.0,0.0,0.0,0.0,0.0,0.0,0.0,0.0,0.0,0.0,0.0,0.0,0.0,0.0,0.0,0.0,0.0,0.0,0.0,0.0,0.0,0.0,6.5518,6.6822,0.0,0.0,0.0,6.8054,6.7692,0.0,0.0,0.0,0.0,0.0,0.0,0.0,0.0,0.0,0.0,0.0,0.0,0.0,0.0,0.0,0.0,0.0,0.0,0.0,0.0,0.0,0.0,0.0,0.0,0.0,0.0,0.0,0.0,0.0,0.0,0.0,0.0,0.0,0.0,0.0,0.0,0.0,0.0,0.0,0.0,0.0,0.0,0.0,0.0,0.0,0.0,0.0,0.0,0.0,0.0,0.0,0.0,0.0,0.0,0.0,0.0,0.0,7.2941,7.5424,7.764,7.9513,8.02,8.0315,7.9933,7.8901,0.0,0.0,0.0,0.0,0.0,0.0,0.0,0.0,0.0,0.0,0.0,0.0,0.0,0.0,0.0,0.0,0.0,0.0,0.0,0.0,0.0,0.0,0.0,0.0,0.0,0.0,0.0,4.1589,0.0,0.0,0.0,0.0,0.0,0.0,0.0,0.0,0.0,0.0,0.0,0.0,0.0,0.0,6.541,6.7438,6.8947,6.9962,0.0,0.0,7.0422,7.0302,6.9515,6.8463,0.0,0.0,0.0,0.0,0.0,0.0,0.0,0.0,0.0,0.0,0.0,0.0,0.0,0.0,0.0,0.0,0.0,0.0,0.0,0.0,0.0,0.0,0.0,0.0,0.0,0.0,0.0,0.0,0.0,0.0,0.0,0.0,0.0,0.0,0.0,0.0,0.0,0.0,0.0,0.0,0.0,0.0,0.0,0.0,0.0,0.0,0.0,0.0,0.0,0.0,0.0,0.0,0.0,0.0,6.9616,7.2941,7.5424,7.7946,8.0315,8.0468,8.085,8.1576,8.0047,7.8366,0.0,0.0,0.0,0.0,0.0,0.0,0.0,0.0,0.0,0.0,0.0,0.0,0.0,0.0,0.0,0.0,0.0,0.0,0.0,0.0,0.0,0.0,0.0,0.0,0.0,0.0,0.0,0.0,0.0,0.0,0.0,0.0,0.0,0.0,0.0,0.0,0.0,0.0,0.0,0.0,0.0,6.6677,6.972,7.1028,7.2144,0.0,7.3978,7.3811,7.3118,7.2279,7.1162,6.9381,0.0,0.0,0.0,0.0,0.0,0.0,0.0,0.0,0.0,0.0,0.0,0.0,0.0,0.0,0.0,0.0,0.0,0.0,0.0,0.0,0.0,0.0,0.0,0.0,0.0,0.0,0.0,0.0,0.0,0.0,0.0,0.0,0.0,0.0,0.0,0.0,0.0,0.0,0.0,0.0,0.0,0.0,0.0,0.0,0.0,0.0,0.0,0.0,0.0,0.0,0.0,0.0,0.0,7.2444,7.5233,7.7755,7.978,8.127,8.1767,8.1958,8.1805,8.0659,7.8978,0.0,0.0,0.0,0.0,0.0,0.0,0.0,0.0,0.0,0.0,0.0,0.0,0.0,0.0,0.0,0.0,0.0,0.0,0.0,0.0,0.0,0.0,0.0,0.0,0.0,0.0,0.0,0.0,5.2055,5.3445,5.4546,0.0,0.0,0.0,0.0,0.0,0.0,0.0,0.0,0.0,0.0,6.9322,7.1028,7.2496,0.0,0.0,7.4395,7.4285,7.3993,7.3665,7.3082,7.1964,7.035,0.0,0.0,0.0,0.0,0.0,0.0,0.0,0.0,0.0,0.0,0.0,0.0,0.0,0.0,0.0,0.0,0.0,0.0,0.0,0.0,0.0,0.0,0.0,0.0,0.0,0.0,0.0,0.0,0.0,0.0,0.0,0.0,0.0,0.0,0.0,0.0,0.0,0.0,0.0,0.0,0.0,0.0,0.0,0.0,0.0,0.0,0.0,0.0,0.0,0.0,0.0,0.0,7.4584,7.7067,7.9321,8.1156,8.2531,8.2837,8.2837,8.2531,8.169,8.0162,0.0,0.0,0.0,0.0,0.0,0.0,0.0,0.0,0.0,0.0,0.0,0.0,0.0,0.0,0.0,0.0,0.0,0.0,0.0,0.0,0.0,0.0,0.0,0.0,0.0,0.0,0.0,0.0,5.5147,5.6418,5.6969,0.0,0.0,0.0,0.0,0.0,0.0,0.0,0.0,0.0,0.0,7.1903,7.3141,7.4395,7.5369,7.5907,7.5943,7.6006,7.6042,7.5603,7.5066,7.4518,0.0,0.0,0.0,0.0,0.0,0.0,0.0,0.0,0.0,0.0,0.0,0.0,0.0,0.0,0.0,0.0,0.0,0.0,0.0,0.0,0.0,0.0,0.0,0.0,0.0,0.0,0.0,5.2652,0.0,0.0,5.2614,0.0,0.0,0.0,0.0,0.0,0.0,0.0,0.0,0.0,0.0,0.0,0.0,0.0,0.0,0.0,0.0,0.0,0.0,0.0,0.0,0.0,0.0,7.5501,7.7946,7.9742,8.1729,8.4098,8.3448,8.341,8.4136,8.341,8.2149,8.0391,0.0,0.0,0.0,0.0,0.0,0.0,0.0,0.0,0.0,0.0,0.0,0.0,0.0,0.0,0.0,0.0,0.0,0.0,0.0,0.0,0.0,0.0,0.0,0.0,0.0,0.0,5.6779,5.8887,6.0236,0.0,0.0,0.0,0.0,0.0,0.0,0.0,0.0,0.0,0.0,7.223,7.4066,7.6327,7.6856,7.7568,7.9068,7.9453,7.9653,7.958,7.8295,7.7206,0.0,0.0,0.0,0.0,0.0,0.0,0.0,0.0,0.0,0.0,0.0,0.0,0.0,0.0,0.0,0.0,0.0,0.0,0.0,0.0,0.0,0.0,0.0,0.0,0.0,0.0,0.0,5.7008,5.6931,0.0,0.0,0.0,0.0,0.0,0.0,0.0,0.0,0.0,0.0,0.0,6.9578,6.9884,0.0,0.0,0.0,0.0,0.0,0.0,0.0,0.0,0.0,0.0,0.0,0.0,7.829,7.9704,8.1881,8.3448,8.4289,8.4556,8.4518,8.4289,8.4021,8.2798,8.0544,0.0,0.0,0.0,0.0,0.0,0.0,0.0,0.0,0.0,0.0,0.0,0.0,0.0,0.0,0.0,0.0,0.0,0.0,0.0,0.0,0.0,0.0,0.0,0.0,0.0,5.8836,0.0,0.0,0.0,0.0,0.0,0.0,0.0,0.0,0.0,0.0,0.0,7.0683,7.2997,7.4738,7.6298,7.7614,7.84,7.9113,0.0,0.0,0.0,0.0,0.0,0.0,0.0,0.0,0.0,0.0,0.0,0.0,0.0,0.0,6.7655,6.5591,6.5192,6.5446,6.6243,0.0,0.0,0.0,0.0,0.0,0.0,0.0,0.0,0.0,0.0,0.0,0.0,0.0,0.0,6.2166,6.2089,6.1325,0.0,0.0,0.0,0.0,0.0,0.0,0.0,0.0,7.0304,7.1833,7.3437,7.3743,7.4354,0.0,7.5462,7.4469,0.0,0.0,0.0,0.0,0.0,0.0,0.0,0.0,8.0391,8.1805,8.3715,8.5015,8.5588,8.6161,8.6161,8.5626,8.5015,8.3792,8.1881,7.9933,7.7946,0.0,0.0,0.0,0.0,0.0,0.0,0.0,0.0,0.0,0.0,0.0,0.0,0.0,0.0,0.0,0.0,0.0,0.0,0.0,0.0,0.0,0.0,0.0,6.2503,0.0,0.0,0.0,0.0,0.0,0.0,0.0,0.0,0.0,6.8972,7.1207,7.3493,7.5201,7.6972,7.8353,7.916,0.0,0.0,0.0,0.0,0.0,0.0,0.0,8.014,7.991,7.8683,7.7393,7.6621,7.4856,7.3269,7.2472,0.0,0.0,6.8923,6.8452,6.8706,6.9502,7.0299,7.106,7.1857,7.2653,7.3414,0.0,0.0,0.0,0.0,0.0,0.0,0.0,0.0,6.8088,6.805,0.0,6.7171,0.0,0.0,0.0,0.0,0.0,6.9846,0.0,0.0,7.3972,7.5271,7.6838,7.7717,7.8557,7.9436,8.0124,8.0468,8.0238,7.6456,0.0,0.0,0.0,0.0,0.0,0.0,8.1881,8.4289,8.5167,8.639,8.7995,8.8071,8.8071,8.7995,8.6467,8.5206,8.4289,8.1958,8.0277,7.936,7.615,0.0,0.0,0.0,0.0,0.0,0.0,0.0,0.0,0.0,0.0,0.0,0.0,0.0,0.0,0.0,0.0,0.0,0.0,0.0,0.0,6.4142,0.0,0.0,0.0,0.0,0.0,0.0,0.0,0.0,0.0,0.0,7.1725,7.4184,7.646,7.7341,0.0,0.0,0.0,0.0,8.1305,8.2039,8.2186,8.215,8.215,8.1525,8.0984,8.0751,0.0,0.0,7.6705,7.5768,7.5008,7.4211,7.4138,7.3559,7.2074,7.1675,7.1857,7.269,7.3486,7.4247,7.5044,7.5696,7.6456,7.5386,0.0,0.0,0.0,0.0,7.2406,7.275,7.3246,7.2673,7.2406,7.2329,7.1565,0.0,0.0,0.0,0.0,0.0,0.0,7.5501,7.657,7.7449,7.871,8.0353,8.0582,8.1117,8.192,8.2149,8.2264,8.2264,8.169,8.0468,7.8748,0.0,0.0,0.0,0.0,8.4747,8.6046,8.6925,8.7575,8.811,8.811,8.811,8.811,8.7613,8.6658,8.5206,8.4441,8.3142,8.1156,7.9016,0.0,0.0,0.0,0.0,0.0,0.0,0.0,0.0,0.0,0.0,0.0,0.0,0.0,0.0,0.0,0.0,0.0,0.0,0.0,6.7262,6.8011,6.8652,0.0,0.0,0.0,0.0,0.0,0.0,0.0,0.0,0.0,7.6387,7.6754,7.7708,0.0,0.0,8.0938,8.1746,8.1856,8.1929,8.215,8.2186,0.0,8.2186,8.2003,8.1688,8.1422,8.0426,7.9348,7.8195,7.7833,7.7615,7.7326,7.7326,7.7181,7.6674,7.5225,7.4645,7.5768,7.6311,7.6746,7.747,7.7869,7.8086,7.9971,7.764,7.6991,7.6685,7.6685,7.6685,7.6991,7.7411,7.657,7.6227,7.615,7.4966,7.4163,7.3743,7.4584,0.0,0.0,0.0,7.9016,7.9551,8.0353,8.1499,8.276,8.3104,8.3715,8.448,8.4862,8.5015,8.5015,8.555,8.5053,8.3563,0.0,0.0,8.4518,8.5511,8.6619,8.7766,8.8644,8.9065,8.9103,8.9103,8.895,8.8606,8.8568,8.7918,8.6581,8.6199,8.5167,8.3333,8.1652,7.9589,0.0,0.0,0.0,0.0,0.0,0.0,0.0,0.0,0.0,0.0,0.0,5.9604,6.1115,0.0,0.0,0.0,6.6541,6.8795,7.1216,7.1441,0.0,0.0,0.0,0.0,0.0,0.0,0.0,7.5726,7.657,7.7708,7.9323,7.936,7.98,8.1305,8.1746,8.226,8.303,0.0,8.3141,8.3141,8.3141,8.3141,8.3141,8.3141,8.3008,8.2632,8.1629,8.0585,7.9825,7.939,7.9064,7.8774,7.8702,7.881,7.9136,7.8231,7.7507,7.7905,7.8231,7.8702,7.9499,7.9897,8.0187,8.3181,8.3066,8.1538,8.0812,8.0697,8.0697,8.0697,8.0621,7.9895,7.9589,7.9474,7.7908,7.7182,7.7258,7.7984,0.0,7.8519,8.0888,8.2034,8.2111,8.2913,8.3754,8.4632,8.5358,8.6123,8.6925,8.7727,8.811,8.8071,8.8224,8.8301,8.8262,8.6849,8.6467,8.7078,8.7192,8.7995,8.96,9.0402,9.0822,9.0784,9.0822,9.0402,8.9638,8.9523,8.9141,8.8301,8.746,8.6619,8.5702,8.4098,8.2111,7.9818,0.0,0.0,0.0,0.0,0.0,0.0,0.0,0.0,0.0,0.0,0.0,0.0,0.0,0.0,6.8633,7.0466,0.0,7.3964,7.4428,0.0,0.0,0.0,7.5389,7.5271,7.5909,7.6717,7.7524,0.0,0.0,8.0975,8.1819,8.2333,8.248,8.3067,8.3765,8.4499,8.4535,8.4609,8.4499,8.4572,8.4572,8.4425,8.4462,8.429,8.391,8.3156,8.2178,8.1418,8.0766,7.9933,7.9426,7.91,7.939,8.0078,8.0766,8.0839,7.9426,7.9752,8.044,8.1165,8.178,8.2396,8.49,8.4862,8.448,8.3563,8.2416,8.2378,8.2378,8.2378,8.2187,8.2111,8.2073,8.169,8.1499,8.1461,8.1079,8.1232,8.1881,8.3104,8.4021,8.4671,8.5511,8.6352,8.7192,8.7384,8.7613,8.7804,8.7995,8.811,8.8186,8.9409,9.002,9.0058,9.0861,9.0784,8.9752,9.0287,9.1128,9.2198,9.2389,9.2504,9.2504,9.2504,9.2427,9.2198,9.1548,9.0822,9.002,8.9179,8.8339,8.7498,8.5855,8.4365,8.3181,8.1499,0.0,0.0,0.0,0.0,0.0,0.0,0.0,0.0,0.0,6.8269,6.9731,0.0,7.1521,0.0,7.3354,7.4823,7.6467,7.6542,0.0,0.0,7.7731,7.8035,7.7891,7.8467,7.925,8.0021,8.0314,8.1048,8.2663,8.2994,8.3581,8.4719,8.4572,8.4389,8.4572,8.4609,8.4609,8.4646,8.4646,8.4609,8.4646,8.4437,8.4337,8.4022,8.3664,8.3302,8.2939,8.2794,8.2577,8.2396,8.236,8.2432,8.2541,8.2831,8.2794,8.2432,8.2505,8.2686,8.2903,8.3084,8.3265,8.6658,8.6658,8.6658,8.6123,8.5206,8.4441,8.4098,8.4098,8.3715,8.3563,8.3563,8.3142,8.299,8.3028,8.3295,8.3677,8.4174,8.5435,8.6237,8.6696,8.7154,8.7842,8.8644,8.8644,8.9027,8.9752,8.9752,8.9944,9.0364,9.1281,9.1701,9.1739,9.3038,9.3229,9.2351,9.2351,9.2618,9.3115,9.3115,9.3306,9.365,9.3306,9.3115,9.3077,9.2618,9.2198,9.1739,9.0861,9.002,8.9218,8.7918,8.6658,8.5473,8.4174,8.2493,0.0,0.0,0.0,0.0,0.0,0.0,0.0,0.0,0.0,0.0,0.0,7.4748,7.596,7.6826,7.7853,7.9007,7.8942,7.8964,7.9183,7.9475,7.9616,7.9473,8.0051,8.0735,8.1544,8.1884,8.2553,8.3765,8.4278,8.4756,8.5673,8.571,8.5673,8.5673,8.5673,8.5673,8.5673,8.5673,8.5673,8.5673,8.5536,8.5361,8.5185,8.4788,8.4355,8.4173,8.3883,8.3665,8.3556,8.3483,8.3483,8.3483,8.3809,8.4026,8.4062,8.4316,8.4388,8.4098,8.4026,8.4098,8.811,8.811,8.811,8.811,8.7995,8.6467,8.5817,8.5779,8.5091,8.4785,8.4709,8.3983,8.3639,8.3754,8.5167,8.5855,8.5932,8.7536,8.8301,8.8415,8.853,8.8988,8.9791,8.9791,9.0555,9.193,9.1969,9.2351,9.3115,9.3229,9.3268,9.3306,9.4146,9.4605,9.4681,9.3841,9.3421,9.3421,9.3421,9.3803,9.4529,9.3803,9.3421,9.3421,9.3306,9.3268,9.3229,9.2427,9.1625,9.0937,8.9982,8.8797,8.7384,8.6352,8.5129,0.0,8.2722,0.0,0.0,0.0,0.0,0.0,0.0,0.0,0.0,7.7111,7.7897,7.9697,8.0203,8.0704,8.134,8.1251,8.1065,8.091,8.0963,8.0918,8.0836,8.1317,8.1992,8.2628,8.3235,8.3875,8.4713,8.538,8.5783,8.6004,8.6481,8.6848,8.6958,8.6921,8.6885,8.7031,8.7031,8.6811,8.6848,8.6783,8.6676,8.6569,8.5952,8.5408,8.5228,8.461,8.4065,8.3918,8.3881,8.3881,8.3809,8.4424,8.4859,8.504,8.5547,8.5728,8.5076,8.4859,8.5076,8.811,8.811,8.811,8.811,8.8071,8.7727,8.7613,8.7575,8.7422,8.7384,8.7384,8.7192,8.7116,8.7154,8.746,8.7613,8.7651,8.8644,8.9447,9.0135,9.0822,9.1548,9.2351,9.2389,9.2542,9.2847,9.2847,9.2962,9.3115,9.3841,9.4146,9.4185,9.4987,9.5713,9.6363,0.0,0.0,0.0,9.514,9.5216,9.5369,9.5216,9.5102,9.5102,9.449,0.0,9.4146,9.3306,9.2809,9.258,9.1166,0.0,0.0,0.0,0.0,0.0,0.0,0.0,0.0,0.0,0.0,0.0,8.169,8.1079,8.05,8.0856,8.1241,8.15,8.1407,8.1618,8.2233,8.2127,8.2221,8.2797,8.3232,8.3497,8.3534,8.3977,8.4405,8.4553,8.4608,8.4882,8.5655,8.5815,8.6077,8.6664,8.6921,8.6995,8.7068,8.7068,8.7031,8.7031,8.7105,8.7068,8.7031,8.6999,8.7002,8.6749,8.6605,8.6354,8.621,8.5919,8.5664,8.559,8.5477,8.5438,8.5438,8.5583,8.5873,8.6452,8.6706,8.6561,8.5837,8.5656,8.5728,8.9332,0.0,8.9332,8.9332,0.0,8.9332,8.9332,8.9256,8.8453,8.811,8.811,8.811,8.811,8.811,8.8492,8.8683,8.8759,8.9982,9.0784,9.1243,9.2045,9.2695,9.3115,9.3115,9.3344,9.3726,9.3726,9.3955,9.4338,9.4796,9.5216,9.5637,9.6019,9.6668,9.7432,9.705,9.6439,9.5598,9.5598,9.5598,9.5598,9.5598,9.5598,9.5598,9.5216,0.0,0.0,0.0,0.0,0.0,0.0,0.0,0.0,0.0,0.0,8.8071,8.7231,8.6428,8.5588,8.5129,8.4862,8.49,8.5204,8.4434,8.2212,8.2608,8.2877,8.2728,8.3213,8.3688,8.3892,8.4087,8.433,8.4605,8.4897,8.5,8.4916,8.5127,8.5408,8.5741,8.5687,8.589,8.6701,8.6642,8.6875,8.7573,8.7688,8.7729,8.8023,8.7509,8.7105,8.7545,8.7986,8.8206,8.8206,8.8206,8.8099,8.8029,8.8029,8.7957,8.7742,8.7669,8.7596,8.7448,8.7335,8.7185,8.7185,8.7108,8.7177,8.7503,8.7611,8.7539,8.7104,8.7032,8.7068,9.0899,9.1052,9.1052,9.1052,9.1052,9.1052,9.1052,9.0937,0.0,0.0,0.0,8.853,8.8606,8.8797,8.9447,8.9829,9.0058,9.1395,9.2083,9.2274,9.3,9.3382,9.3535,9.3535,9.3917,9.4605,9.4605,9.4949,9.5598,9.5751,9.6172,9.6859,9.705,9.7432,9.8082,9.8273,9.7585,9.6095,9.5904,9.5751,9.5598,9.5598,9.5598,9.5598,9.5598,9.5598,9.5598,9.4949,9.4605,9.4529,9.3764,9.3,9.2274,9.151,9.0669,8.9791,8.8988,8.8148,8.7307,8.7116,8.704,8.704,8.7607,8.668,8.3773,8.4144,8.4347,8.407,8.5172,8.5813,8.559,8.5992,8.6238,8.5989,8.6042,8.6095,8.5878,8.5905,8.6252,8.6746,8.6814,8.7008,8.7674,8.7837,8.7998,8.852,8.8566,8.861,8.9087,8.8316,8.7802,8.8353,8.8867,8.9344,8.9381,8.9307,8.9417,8.9271,8.9307,8.9346,8.9166,8.9093,8.9057,8.8801,8.8761,8.8538,8.8498,8.8237,8.8341,8.845,8.8444,8.8481,8.8626,8.8626,8.8517,9.2045,9.2733,9.2733,9.2733,9.2733,9.2733,9.2733,9.2618,9.0975,9.0249,9.0249,9.0249,9.0631,9.1281,9.1395,9.1854,9.258,9.2809,9.3344,9.4032,9.4185,9.4605,9.5255,9.5255,9.5331,9.5407,9.5446,9.5484,9.5675,9.6363,9.6783,9.6974,9.7585,9.8006,9.8158,9.8846,9.8732,9.7776,9.705,9.6363,9.5637,9.5598,9.5598,9.5598,9.5598,9.5598,9.5598,9.5484,9.5446,9.5407,9.4681,9.4146,9.4032,9.3191,9.2351,9.151,9.0708,8.9867,8.9027,8.8301,8.7918,8.7918,8.8033,8.776,8.709,8.6996,8.6889,8.669,8.6694,8.6656,8.6538,8.6384,8.6406,8.6312,8.676,8.6996,8.6952,8.745,8.7873,8.7973,8.834,8.8581,8.8766,8.9189,8.9461,8.9546,8.9588,8.9555,8.9454,8.9234,8.9124,8.9234,8.9344,8.9417,8.9601,8.9454,8.9564,8.9417,8.9528,8.9601,8.953,8.9458,8.9313,8.9167,8.9092,8.8982,8.8907,8.8611,8.8898,8.9294,8.9361,8.9422,8.9929,9.011,8.9785,9.2733,9.3115,9.3115,9.3115,9.3115,9.3115,9.3115,9.3038,9.2274,9.1969,9.1969,9.1969,9.216,9.2504,9.2504,9.2733,9.3115,9.3573,9.3994,9.4414,9.4872,9.5255,9.5598,9.5598,9.5598,9.5598,9.5598,9.5828,9.6324,9.6706,9.7356,9.8235,9.9075,9.9458,9.9496,9.984,9.9649,9.8808,9.7547,9.6706,9.6324,9.5866,9.5598,9.5598,9.5598,9.5598,9.5598,9.5598,9.5598,9.5598,9.5255,9.4834,9.4414,9.3994,9.3421,9.258,9.216,9.1778,9.1395,9.0555,8.9905,8.9523,8.9447,8.9363,8.9108,8.8143,8.7513,8.7354,8.7549,8.7663,8.7509,8.7727,8.7772,8.7642,8.7922,8.8218,8.8548,8.8764,8.9113,8.9473,8.9719,8.9813,8.9813,9.0016,9.0328,9.0563,9.0795,9.0879,9.0665,9.0702,9.0519,9.0225,9.0408,9.0702,9.0702,9.0702,9.0702,9.0702,9.0702,9.0702,9.0702,9.063,9.0521,9.0557,9.0411,9.0299,9.0262,9.0149,9.0142,9.017,9.0274,9.0414,9.0588,9.0618,9.0328,9.3497,9.365,9.365,9.365,9.365,9.3688,9.365,9.365,9.365,9.365,9.3612,9.3306,9.3191,9.3382,9.3382,9.3497,9.3726,9.4299,9.4643,9.4758,9.5293,9.5598,9.5598,9.5598,9.5713,9.5866,9.5904,9.6324,9.7089,9.7356,9.8197,9.961,10.0298,10.0604,10.0604,10.0604,10.0298,9.961,9.8197,9.7394,9.7165,9.6515,9.6172,9.6172,9.6172,9.6057,9.5904,9.5904,9.5789,9.5637,9.5598,9.5293,9.472,9.4681,9.4299,9.3497,9.3382,9.3306,9.3077,9.2504,9.1816,9.1204,9.1166,9.1043,9.0707,8.9596,8.8669,8.8398,8.8696,8.9011,8.9173,8.9506,8.9721,8.9499,8.9442,8.9647,9.0034,8.9967,9.0069,9.0677,9.0775,9.086,9.0796,9.0852,9.1194,9.1653,9.1934,9.1983,9.1876,9.1876,9.151,9.1216,9.14,9.1657,9.1803,9.173,9.1693,9.1803,9.173,9.1657,9.1657,9.173,9.1767,9.1657,9.1547,9.1436,9.1509,9.136,9.1173,9.1057,9.0943,9.0861,9.074,9.0661,9.0581,9.473,9.5331,9.5293,9.5369,9.5293,9.5331,9.5293,9.5331,9.5369,9.5369,9.514,9.3764,9.3573,9.4223,9.4223,9.4605,9.5255,9.5446,9.5446,9.5446,9.556,9.5598,9.5637,9.5637,9.6019,9.6706,9.6783,9.7203,9.8006,9.877,9.961,10.0413,10.0566,10.0604,10.0604,10.0604,10.0566,10.0489,9.961,9.877,9.8044,9.7929,9.7853,9.7891,9.7853,9.7509,9.6821,9.6783,9.6401,9.5675,9.5637,9.5598,9.5484,9.5484,9.514,9.4376,9.4299,9.3955,9.3191,9.3,9.2924,9.2886,9.2809,9.2646,9.2421,9.226,9.1786,9.0976,9.0714,9.0877,9.1633,9.159,9.1445,9.1244,9.1226,9.1339,9.1109,9.1088,9.1006,9.0814,9.1497,9.1806,9.1715,9.2133,9.2588,9.2424,9.2262,9.2091,9.202,9.1948,9.1767,9.1657,9.1767,9.1767,9.1803,9.1803,9.1803,9.1803,9.1803,9.1803,9.1803,9.1803,9.1803,9.1803,9.1803,9.173,9.173,9.1657,9.1508,9.1358,9.1282,9.113,9.0897,9.074,9.0697,9.547,9.5686,9.5686,9.5643,9.5598,9.5598,9.5598,9.5598,9.5598,9.5598,9.5522,9.4872,9.4758,9.5102,9.5102,9.5293,9.5598,9.5598,9.5598,9.5598,9.5598,9.5866,9.6324,9.6363,9.6821,9.7547,9.7623,9.8044,9.8884,9.9725,10.026,10.0566,10.0604,10.0604,10.0604,10.0604,10.0604,10.0604,10.026,9.9954,9.9534,9.8617,9.8082,9.8082,9.8082,9.7967,9.7662,9.7623,9.7241,9.6439,9.6363,9.6133,9.5637,9.5598,9.5446,9.514,9.5102,9.4758,9.3955,9.3879,9.365,9.3153,9.3115,9.2989,9.2817,9.2764,9.2623,9.2668,9.214,9.185,9.2087,9.2035,9.1929,9.186,9.1751,9.1828,9.2166,9.2067,9.2077,9.2442,9.2692,9.279,9.2662,9.283,9.2922,9.2751,9.2547,9.2373,9.2162,9.202,9.1948,9.1803,9.1803,9.1803,9.1803,9.1803,9.1803,9.1803,9.1803,9.1803,9.1803,9.1803,9.1803,9.1803,9.1803,9.1803,9.1803,9.173,9.1657,9.1583,9.1358,9.113,9.0975,9.0819,9.074,9.5938,9.5814,9.581,9.5724,9.5598,9.5598,9.5598,9.5598,9.5598,9.5598,9.5598,9.5598,9.5598,9.5598,9.5598,9.5598,9.5637,9.5828,9.5942,9.5981,9.6172,9.663,9.7203,9.7241,9.7662,9.8349,9.8464,9.8923,9.9725,10.0298,10.0604,10.0604,10.0604,10.0604,10.0604,10.0604,10.0604,10.0604,10.0604,10.0604,10.0413,9.9419,9.8808,9.8808,9.8808,9.8693,9.8464,9.8464,9.8082,9.728,9.7241,9.6859,9.6019,9.5942,9.5866,9.5637,9.5598,9.5369,9.4758,9.472,9.4452,9.3879,9.3803,9.3721,9.3587,9.3495,9.3669,9.3932,9.3454,9.3012,9.2872,9.282,9.2768,9.2609,9.2538,9.2747,9.3163,9.3047,9.3155,9.3597,9.3475,9.3464,9.3211,9.3082,9.2922,9.2855,9.2751,9.2616,9.2233,9.2162,9.202,9.1876,9.1803,9.1803,9.1803,9.1803,9.1803,9.1803,9.1803,9.1803,9.1803,9.1803,9.1803,9.1803,9.1803,9.1803,9.1803,9.1803,9.1803,9.1583,9.1433,9.1282,9.113,9.1053,9.0897,9.6019,9.59,9.5814,9.5724,9.5598,9.5598,9.5598,9.5598,9.5598,9.5598,9.5675,9.5675,9.5637,9.5713,9.5789,9.5637,9.5751,9.6477,9.6859,9.6898,9.7585,9.8006,9.8044,9.8082,9.8502,9.9305,9.9343,9.9725,10.0451,10.0566,10.0604,10.0604,10.0604,10.0604,10.0604,10.0604,10.0604,10.0604,10.0604,10.0604,10.0566,10.0489,10.0375,10.0336,10.0451,10.0031,9.9458,9.9343,9.8961,9.8082,9.8044,9.77,9.6936,9.6821,9.6439,9.5751,9.5598,9.5598,9.5522,9.5484,9.5446,9.5407,9.5255,9.5363,9.512,9.5036,9.4972,9.4931,9.473,9.4642,9.449,9.4376,9.44,9.4281,9.4394,9.427,9.4123,9.3991,9.3932,9.377,9.3709,9.3526,9.3275,9.3082,9.2988,9.2922,9.2855,9.2616,9.2409,9.2233,9.202,9.1876,9.1803,9.1803,9.1803,9.1803,9.1803,9.1803,9.1803,9.1803,9.1803,9.1803,9.1803,9.1803,9.1803,9.1803,9.1803,9.1803,9.1803,9.173,9.1546,9.1508,9.1358,9.1282,9.1275,9.6098,9.59,9.5814,9.5724,9.5598,9.5598,9.5598,9.5598,9.5598,9.5942,9.6363,9.6439,9.6706,9.7203,9.7203,9.6936,9.6515,9.728,9.7662,9.77,9.7967,9.8426,9.8923,9.8923,9.9381,10.0069,10.0145,10.0336,10.0566,10.0604,10.0604,10.0604,10.0604,10.0604,10.0604,10.0604,10.0604,10.0604,10.0604,10.0604,10.0604,10.0604,10.0604,10.0604,10.0604,10.0451,10.0183,10.0183,9.9801,9.8961,9.8923,9.8541,9.7738,9.7165,9.6783,9.6401,9.5904,9.5598,9.5598,9.5598,9.5598,9.5598,9.5598,9.5598,9.5509,9.5463,9.5371,9.5277,9.5094,9.4996,9.4946,9.4844,9.4793,9.4741,9.4636,9.453,9.4459,9.4293,9.416,9.4007,9.383,9.3587,9.3401,9.3248,9.3119,9.2988,9.2922,9.2751,9.2616,9.2409,9.2233,9.202,9.1876,9.1803,9.1803,9.1803,9.1803,9.1803,9.1803,9.1803,9.1803,9.1803,9.1803,9.1803,9.1803,9.1803,9.1803,9.1803,9.1803,9.1913,9.1767,9.1877,9.1508,9.1945,9.2012,9.6175,9.5941,9.5856,9.5925,9.6025,9.6019,9.6172,9.6363,9.6401,9.6745,9.7241,9.728,9.7623,9.812,9.8388,9.8235,9.7776,9.8273,9.8541,9.8579,9.8808,9.9228,9.9687,9.9801,10.0069,10.0527,10.0604,10.0604,10.0604,10.0604,10.0604,10.0604,10.0604,10.0604,10.0604,10.0604,10.0604,10.0604,10.0604,10.0604,10.0604,10.0604,10.0604,10.0604,10.0604,10.0604,10.0604,10.0604,10.0375,9.9878,9.9763,9.9381,9.8579,9.7738,9.728,9.7203,9.6745,9.6286,9.6057,9.6019,9.5904,9.5637,9.5598,9.5598,9.5598,9.5509,9.5463,9.5333,9.5239,9.5094,9.4996,9.4895,9.4844,9.4793,9.4689,9.4674,9.4621,9.4459,9.4293,9.4122,9.3889,9.3649,9.3526,9.3338,9.3146,9.3054,9.3054,9.2922,9.2684,9.2547,9.234,9.2128,9.1948,9.1803,9.1803,9.1803,9.1803,9.1803,9.1803,9.1803,9.1803,9.1803,9.1803,9.1803,9.1803,9.1803,9.1803,9.1803,9.195,9.2134,9.2391,9.25,9.2573,9.2976,9.3045,9.6251,9.6174,9.5979,9.6431,9.6954,9.6942,9.7356,9.7853,9.7929,9.7967,9.8082,9.812,9.8235,9.8388,9.9114,9.9381,9.9305,9.9381,9.9381,9.9458,10.0107,10.0413,10.0489,10.0451,10.0489,10.0604,10.0604,10.0604,10.0604,10.0604,10.0604,10.0604,10.0604,10.0604,10.0604,10.0604,10.0604,10.0604,10.0604,10.0604,10.0604,10.0604,10.0604,10.0604,10.0604,10.0604,10.0604,10.0604,10.0566,10.0527,10.0527,10.0183,9.9419,9.8579,9.812,9.812,9.8044,9.7662,9.7012,9.6898,9.6554,9.6057,9.5751,9.5904,9.5942,9.5866,9.5821,9.5769,9.5638,9.5477,9.5323,9.5262,9.5136,9.4844,9.4793,9.4741,9.4674,9.4621,9.4513,9.4236,9.3948,9.3709,9.3649,9.3464,9.3211,9.3146,9.3054,9.2922,9.2788,9.2547,9.234,9.2162,9.202,9.1876,9.1876,9.1803,9.1803,9.1803,9.1803,9.1803,9.1803,9.1803,9.1803,9.1803,9.1803,9.1803,9.2207,9.2244,9.2574,9.2794,9.2978,9.3235,9.3491,9.3784,9.4002,9.7097,9.7058,9.7556,9.7779,9.7877,9.7872,9.7981,9.8082,9.8082,9.8426,9.8923,9.8999,9.9305,9.9763,10.0145,10.0222,10.0222,10.0222,10.0222,10.026,10.0489,10.0604,10.0604,10.0604,10.0604,10.0604,10.0604,10.0604,10.0604,10.0604,10.0604,10.0604,10.0604,10.0604,10.0604,10.0604,10.0604,10.0604,10.0604,10.0604,10.0604,10.0604,10.0604,10.0604,10.0604,10.0604,10.0604,10.0604,10.0604,10.0604,10.0604,10.0489,10.0107,9.9458,9.9037,9.8923,9.8426,9.8044,9.7815,9.7738,9.7623,9.7356,9.728,9.7318,9.7318,9.728,9.7234,9.7188,9.718,9.7048,9.6952,9.6805,9.6161,9.4958,9.4793,9.4869,9.4893,9.4712,9.4513,9.4236,9.4122,9.3948,9.3709,9.3464,9.3338,9.3211,9.3119,9.2988,9.2922,9.2684,9.2547,9.234,9.2162,9.1948,9.1876,9.1803,9.1803,9.1803,9.1803,9.1803,9.1803,9.1803,9.1803,9.184,9.184,9.206,9.2427,9.2831,9.3161,9.3565,9.3859,9.4079,9.4299,9.4593,9.4884,9.798,9.7981,9.8402,9.8705,9.8887,9.8801,9.8905,9.9045,9.9037,9.9343,9.9763,9.984,10.0107,10.0527,10.0604,10.0604,10.0604,10.0604,10.0604,10.0604,10.0604,10.0604,10.0604,10.0604,10.0604,10.0604,10.0604,10.0604,10.0604,10.0604,10.0604,10.0604,10.0604,10.0604,10.0604,10.0604,10.0604,10.0604,10.0604,10.0604,10.0604,10.0604,10.0604,10.0604,10.0604,10.0604,10.0604,10.0604,10.0604,10.0604,10.0604,10.0604,10.0566,10.0107,9.984,9.9763,9.9381,9.8961,9.8655,9.8617,9.8426,9.8197,9.8082,9.8082,9.8082,9.8082,9.8082,9.8036,9.7952,9.7943,9.7858,9.7714,9.7072,9.5996,9.583,9.5741,9.5703,9.5333,9.5004,9.4801,9.4462,9.414,9.383,9.3649,9.3501,9.3338,9.3146,9.3054,9.2988,9.2818,9.2616,9.2409,9.227,9.202,9.1876,9.1803,9.1803,9.1803,9.1803,9.1803,9.1803,9.1803,9.1803,9.1987,9.206,9.2464,9.2868,9.3382,9.3749,9.4226,9.4777,9.5034,9.529,9.5621,9.5951,9.8939,9.8865,9.8787,9.9285,9.9898,9.9769,10.0021,10.0589,10.0536,10.0451,10.0527,10.0489,10.0527,10.0566,10.0604,10.0604,10.0604,10.0604,10.0604,10.0604,10.0604,10.0604,10.0604,10.0604,10.0604,10.0604,10.0604,10.0604,10.0604,10.0604,10.0604,10.0604,10.0604,10.0604,10.0604,10.0604,10.0604,10.0604,10.0604,10.0604,10.0604,10.0604,10.0604,10.0604,10.0604,10.0604,10.0604,10.0604,10.0604,10.0604,10.0604,10.0604,10.0604,10.0604,10.0527,10.0489,10.0566,10.0107,9.961,9.9458,9.919,9.8617,9.8502,9.8235,9.8464,9.8579,9.8579,9.8541,9.8502,9.8342,9.8287,9.824,9.7981,9.7705,9.7196,9.7067,9.7181,9.6469,9.5928,9.5629,9.4933,9.431,9.4382,9.413,9.3836,9.365,9.3424,9.3184,9.2988,9.2855,9.2616,9.2479,9.227,9.2091,9.1876,9.1803,9.1803,9.1803,9.1803,9.1803,9.1913,9.1987,9.2097,9.2281,9.2611,9.3015,9.3492,9.4079,9.4666,9.5254,9.5694,9.6025,9.6208,9.6355,9.6428,9.9861,9.9902,10.0366,10.071,10.0822,10.0655,10.0684,10.0787,10.065,10.0604,10.0604,10.0604,10.0604,10.0604,10.0604,10.0604,10.0604,10.0604,10.0604,10.0604,10.0604,10.0604,10.0604,10.0604,10.0604,10.0604,10.0604,10.0604,10.0604,10.0604,10.0604,10.0604,10.0604,10.0604,10.0604,10.0604,10.0604,10.0604,10.0604,10.0604,10.0604,10.0604,10.0604,10.0604,10.0604,10.0604,10.0604,10.0604,10.0604,10.0604,10.0604,10.0604,10.0604,10.0604,10.0604,10.0604,10.0566,10.0527,10.0336,10.0222,10.0107,10.0031,9.9763,9.9954,9.9954,9.9916,9.9954,9.9954,9.9954,9.9878,9.9831,9.9737,9.9591,9.9226,9.8234,9.7446,9.737,9.709,9.6885,9.6684,9.6328,9.6064,9.5702,9.5127,9.4547,9.4248,9.3786,9.3184,9.3091,9.2922,9.2751,9.2547,9.234,9.2091,9.1948,9.1876,9.1803,9.1803,9.1803,9.1877,9.2097,9.2391,9.2611,9.2868,9.3492,9.3969,9.4556,9.5144,9.5731,9.6135,9.6318,9.6428,9.6502,9.6612,9.6612,10.082,10.0786,10.1212,10.1327,10.1208,10.1085,10.0957,10.0831,10.0696,10.0604,10.0604,10.0604,10.0604,10.0604,10.0604,10.0604,10.0604,10.0604,10.0604,10.0604,10.0604,10.0604,10.0604,10.0604,10.0604,10.0604,10.0604,10.0604,10.0604,10.0604,10.0604,10.0604,10.0604,10.0604,10.0604,10.0604,10.0604,10.0604,10.0604,10.0604,10.0604,10.0604,10.0604,10.0604,10.0604,10.0604,10.0604,10.0604,10.0604,10.0604,10.0604,10.0604,10.0604,10.0604,10.0604,10.0604,10.0604,10.0604,10.0604,10.0604,10.0604,10.0566,10.0604,10.0604,10.0566,10.0604,10.0604,10.0527,10.0604,10.0604,10.0557,10.0462,10.0315,9.9923,9.9084,9.8409,9.8356,9.8091,9.7848,9.7571,9.7233,9.6837,9.6702,9.5976,9.532,9.4759,9.426,9.3658,9.3165,9.3025,9.2855,9.2547,9.234,9.2162,9.1948,9.1803,9.1913,9.1913,9.2354,9.2317,9.2648,9.2978,9.3198,9.3639,9.4336,9.4923,9.5364,9.5804,9.6208,9.6502,9.6685,9.6722,9.6722,9.6722,9.6722,10.162,10.1479,10.1479,10.1404,10.125,10.1088,10.1,10.0957,10.0742,10.0604,10.0604,10.0604,10.0604,10.0604,10.0604,10.0604,10.0604,10.0604,10.0604,10.0604,10.0604,10.0604,10.0604,10.0604,10.0604,10.0604,10.0604,10.0604,10.0604,10.0604,10.0604,10.0604,10.0604,10.0604,10.0604,10.0604,10.0604,10.0604,10.0604,10.0604,10.0604,10.0604,10.0604,10.0604,10.0604,10.0604,10.0604,10.0604,10.0604,10.0604,10.0604,10.0604,10.0604,10.0604,10.0604,10.0604,10.0604,10.0604,10.0604,10.0604,10.0604,10.0604,10.0604,10.0604,10.0604,10.0604,10.0604,10.0604,10.0604,10.0604,10.0604,10.0462,10.0365,10.0177,9.9948,9.9919,9.9736,9.9152,9.8681,9.8534,9.7724,9.7214,9.6986,9.6696,9.6192,9.5731,9.5044,9.4356,9.3788,9.3434,9.3011,9.2479,9.234,9.227,9.202,9.1803,9.195,9.2134,9.2941,9.3235,9.3565,9.3822,9.3969,9.4373,9.5107,9.5511,9.5731,9.6171,9.6539,9.6649,9.6685,9.6722,9.6722,9.6722,9.6722,10.1654,10.1588,10.1516,10.1404,10.1289,10.1208,10.1085,10.1,10.0831,10.0696,10.0604,10.0604,10.0604,10.0604,10.0604,10.0604,10.0604,10.0604,10.0604,10.0604,10.0604,10.0604,10.0604,10.0604,10.0604,10.0604,10.0604,10.0604,10.0604,10.0604,10.0604,10.0604,10.0604,10.0604,10.0604,10.0604,10.0604,10.0604,10.0604,10.0604,10.0604,10.0604,10.0604,10.0604,10.0604,10.0604,10.0604,10.0604,10.0604,10.0604,10.0604,10.0604,10.0604,10.0604,10.0604,10.0604,10.0604,10.0604,10.0604,10.0604,10.0604,10.0604,10.0604,10.0604,10.0604,10.0604,10.0604,10.0604,10.0604,10.0604,10.0604,10.0462,10.0365,10.0215,10.0113,9.9957,9.9812,9.9645,9.9493,9.9308,9.9065,9.8819,9.8685,9.7787,9.7205,9.6729,9.594,9.5139,9.4561,9.3991,9.353,9.3033,9.2927,9.286,9.2573,9.2464,9.2611,9.2868,9.3529,9.4079,9.441,9.4813,9.496,9.5364,9.5914,9.6171,9.6208,9.6355,9.6685,9.6685,9.6722,9.6722,9.6722,9.6722,9.6722,10.1722,10.1654,10.1588,10.1479,10.1366,10.1248,10.1126,10.1,10.0831,10.0742,10.0604,10.0604,10.0604,10.0604,10.0604,10.0604,10.0604,10.0604,10.0604,10.0604,10.0604,10.0604,10.0604,10.0604,10.0604,10.0604,10.0604,10.0604,10.0604,10.0604,10.0604,10.0604,10.0604,10.0604,10.0604,10.0604,10.0604,10.0604,10.0604,10.0604,10.0604,10.0604,10.0604,10.0604,10.0604,10.0604,10.0604,10.0604,10.0604,10.0604,10.0604,10.0604,10.0604,10.0604,10.0604,10.0604,10.0604,10.0604,10.0604,10.0604,10.0604,10.0604,10.0604,10.0604,10.0604,10.0604,10.0604,10.0604,10.0604,10.0604,10.0604,10.0557,10.0413,10.0265,10.0165,10.001,9.985,9.9796,9.9796,9.9742,9.9481,9.9367,9.9041,9.8524,9.7842,9.7114,9.69,9.6099,9.5202,9.4734,9.4419,9.4027,9.3809,9.356,9.3309,9.3235,9.3418,9.3786,9.4336,9.4777,9.5107,9.5547,9.6025,9.6282,9.6392,9.6502,9.6575,9.6685,9.6722,9.6722,9.6722,9.6722,9.6722,9.6722,9.6722,10.1787,10.1683,10.162,10.1552,10.1481,10.1288,10.1126,10.1043,10.0913,10.0742,10.065,10.0604,10.0604,10.0604,10.0604,10.0604,10.0604,10.0604,10.0604,10.0604,10.0604,10.0604,10.0604,10.0604,10.0604,10.0604,10.0604,10.0604,10.0604,10.0604,10.0604,10.0604,10.0604,10.0604,10.0604,10.0604,10.0604,10.0604,10.0604,10.0604,10.0604,10.0604,10.0604,10.0604,10.0604,10.0604,10.0604,10.0604,10.0604,10.0604,10.0604,10.0604,10.0604,10.0604,10.0604,10.0604,10.0604,10.0604,10.0604,10.0604,10.0604,10.0604,10.0604,10.0604,10.0604,10.0604,10.0604,10.0604,10.0604,10.0604,10.0604,10.0604,10.0462,10.0277,10.0177,10.0075,9.9904,9.9796,9.9796,9.9742,9.9613,9.9442,9.9267,9.89,9.8255,9.7702,9.7488,9.7059,9.6162,9.5446,9.5198,9.4726,9.4364,9.4077,9.3823,9.4153,9.4336,9.4593,9.5144,9.5474,9.5768,9.6061,9.6428,9.6539,9.6649,9.6722,9.6722,9.6722,9.6722,9.6722,9.6722,9.6722,9.6722,9.6722,9.6722,10.1819,10.1683,10.162,10.1552,10.1479,10.1366,10.1248,10.1165,10.1,10.0875,10.0742,10.065,10.0604,10.0604,10.0604,10.0604,10.0604,10.0604,10.0604,10.0604,10.0604,10.0604,10.0604,10.0604,10.0604,10.0604,10.0604,10.0604,10.0604,10.0604,10.0604,10.0604,10.0604,10.0604,10.0604,10.0604,10.0604,10.0604,10.0604,10.0604,10.0604,10.0604,10.0604,10.0604,10.0604,10.0604,10.0604,10.0604,10.0604,10.0604,10.0604,10.0604,10.0604,10.0604,10.0604,10.0604,10.0604,10.0604,10.0604,10.0604,10.0604,10.0604,10.0604,10.0604,10.0604,10.0604,10.0604,10.0604,10.0604,10.0604,10.0604,10.0604,10.0462,10.0277,10.0177,10.0113,9.9904,9.9796,9.9796,9.9796,9.9613,9.9384,9.9267,9.9148,9.8617,9.8178,9.8011,9.7582,9.6899,9.6362,9.6008,9.5462,9.4807,9.4521,9.4227,9.485,9.529,9.5401,9.5804,9.6135,9.6392,9.6502,9.6685,9.6685,9.6722,9.6722,9.6722,9.6722,9.6722,9.6722,9.6722,9.6722,9.6722,9.6722,9.6722,10.192,10.1787,10.1654,10.155,10.1516,10.1366,10.1248,10.1167,10.1043,10.0957,10.0787,10.065,10.0604,10.0604,10.0604,10.0604,10.0604,10.0604,10.0604,10.0604,10.0604,10.0604,10.0604,10.0604,10.0604,10.0604,10.0604,10.0604,10.0604,10.0604,10.0604,10.0604,10.0604,10.0604,10.0604,10.0604,10.0604,10.0604,10.0604,10.0604,10.0604,10.0604,10.0604,10.0604,10.0604,10.0604,10.0604,10.0604,10.0604,10.0604,10.0604,10.0604,10.0604,10.0604,10.0604,10.0604,10.0604,10.0604,10.0604,10.0604,10.0604,10.0604,10.0604,10.0604,10.0604,10.0604,10.0604,10.0604,10.0604,10.0604,10.0604,10.0604,10.0462,10.0277,10.0177,10.0062,9.9904,9.9796,9.9796,9.9742,9.9557,9.9384,9.9326,9.9148,9.8867,9.8616,9.8525,9.803,9.7525,9.7174,9.6783,9.6425,9.5842,9.5553,9.5256,9.5511,9.5951,9.6098,9.6245,9.6575,9.6722,9.6685,9.6685,9.6722,9.6722,9.6722,9.6722,9.6722,9.6722,9.6722,9.6722,9.6722,9.6722,9.6722,9.6722,10.1981,10.1889,10.1688,10.162,10.155,10.1442,10.1288,10.1208,10.1085,10.1,10.0869,10.0696,10.065,10.0604,10.0604,10.0604,10.0604,10.0604,10.0604,10.0604,10.0604,10.0604,10.0604,10.0604,10.0604,10.0604,10.0604,10.0604,10.0604,10.0604,10.0604,10.0604,10.0604,10.0604,10.0604,10.0604,10.0604,10.0604,10.0604,10.0604,10.0604,10.0604,10.0604,10.0604,10.0604,10.0604,10.0604,10.0604,10.0604,10.0604,10.0604,10.0604,10.0604,10.0604,10.0604,10.0604,10.0604,10.0604,10.0604,10.0604,10.0604,10.0604,10.0604,10.0604,10.0604,10.0604,10.0604,10.0604,10.0604,10.0604,10.0604,10.0604,10.0462,10.0277,10.0177,10.0113,9.9904,9.9796,9.9796,9.9687,9.9557,9.9442,9.9384,9.9148,9.8842,9.8717,9.8589,9.8395,9.7964,9.7769,9.7488,9.728,9.6989,9.6657,9.6395,9.6208,9.6428,9.6465,9.6502,9.6649,9.6722,9.6722,9.6722,9.6722,9.6722,9.6722,9.6722,9.6722,9.6722,9.6722,9.6722,9.6722,9.6722,9.6722,9.6722,10.1981,10.1889,10.1755,10.1654,10.1585,10.1516,10.1404,10.1288,10.1208,10.1085,10.0957,10.0831,10.0696,10.0604,10.0604,10.0604,10.0604,10.0604,10.0604,10.0604,10.0604,10.0604,10.0604,10.0604,10.0604,10.0604,10.0604,10.0604,10.0604,10.0604,10.0604,10.0604,10.0604,10.0604,10.0604,10.0604,10.0604,10.0604,10.0604,10.0604,10.0604,10.0604,10.0604,10.0604,10.0604,10.0604,10.0604,10.0604,10.0604,10.0604,10.0604,10.0604,10.0604,10.0604,10.0604,10.0604,10.0604,10.0604,10.0604,10.0604,10.0604,10.0604,10.0604,10.0604,10.0604,10.0604,10.0604,10.0604,10.0604,10.0604,10.0604,10.0604,10.0462,10.0277,10.0177,10.0062,9.985,9.9796,9.9796,9.9687,9.9557,9.9442,9.9384,9.9148,9.8905,9.878,9.8653,9.846,9.8262,9.803,9.7752,9.743,9.7211,9.6914,9.6762,9.6722,9.6722,9.6722,9.6722,9.6722,9.6722,9.6722,9.6722,9.6722,9.6722,9.6722,9.6722,9.6722,9.6722,9.6722,9.6722,9.6722,9.6722,9.6722,9.6722,10.2,10.1912,10.1787,10.1616,10.1585,10.1516,10.1404,10.1327,10.1208,10.1126,10.1,10.0831,10.0742,10.0604,10.0604,10.0604,10.0604,10.0604,10.0604,10.0604,10.0604,10.0604,10.0604,10.0604,10.0604,10.0604,10.0604,10.0604,10.0604,10.0604,10.0604,10.0604,10.0604,10.0604,10.0604,10.0604,10.0604,10.0604,10.0604,10.0604,10.0604,10.0604,10.0604,10.0604,10.0604,10.0604,10.0604,10.0604,10.0604,10.0604,10.0604,10.0604,10.0604,10.0604,10.0604,10.0604,10.0604,10.0604,10.0604,10.0604,10.0604,10.0604,10.0604,10.0604,10.0604,10.0604,10.0604,10.0604,10.0604,10.0604,10.0604,10.0604,10.0462,10.0277,10.0177,10.0062,9.9904,9.985,9.9796,9.9687,9.9613,9.95,9.9326,9.9088,9.8842,9.8679,9.8589,9.8395,9.8128,9.7855,9.7644,9.7358,9.7138,9.6914,9.6762,9.6722,9.6722,9.6722,9.6722,9.6722,9.6722,9.6722,9.6722,9.6722,9.6722,9.6722,9.6722,9.6722,9.6722,9.6722,9.6722,9.6722,9.6722,9.6722,9.6722,10.2057,10.2039,10.1819,10.1688,10.1585,10.1552,10.1442,10.1327,10.1248,10.1126,10.1,10.0831,10.0696,10.0604,10.0604,10.0604,10.0604,10.0604,10.0604,10.0604,10.0604,10.0604,10.0604,10.0604,10.0604,10.0604,10.0604,10.0604,10.0604,10.0604,10.0604,10.0604,10.0604,10.0604,10.0604,10.0604,10.0604,10.0604,10.0604,10.0604,10.0604,10.0604,10.0604,10.0604,10.0604,10.0604,10.0604,10.0604,10.0604,10.0604,10.0604,10.0604,10.0604,10.0604,10.0604,10.0604,10.0604,10.0604,10.0604,10.0604,10.0604,10.0604,10.0604,10.0604,10.0604,10.0604,10.0604,10.0604,10.0604,10.0604,10.0604,10.0604,10.0462,10.0277,10.0177,10.0062,9.9904,9.985,9.9796,9.9687,9.9613,9.9442,9.9267,9.9088,9.8842,9.8616,9.8487,9.8329,9.8061,9.7785,9.7502,9.7285,9.7063,9.6838,9.6762,9.6722,9.6722,9.6722,9.6722,9.6722,9.6722,9.6722,9.6722,9.6722,9.6722,9.6722,9.6722,9.6722,9.6722,9.6722,9.6722,9.6722,9.6722,9.6722,9.6722,10.2085,10.2057,10.1951,10.1793,10.1585,10.1585,10.1516,10.1289,10.1327,10.1208,10.0962,10.0742,10.0604,10.0604,10.0604,10.0604,10.0604,10.0604,10.0604,10.0604,10.0604,10.0604,10.0604,10.0604,10.0604,10.0604,10.0604,10.0604,10.0604,10.0604,10.0604,10.0604,10.0604,10.0604,10.0604,10.0604,10.0604,10.0604,10.0604,10.0604,10.0604,10.0604,10.0604,10.0604,10.0604,10.0604,10.0604,10.0604,10.0604,10.0604,10.0604,10.0604,10.0604,10.0604,10.0604,10.0604,10.0604,10.0604,10.0604,10.0604,10.0604,10.0604,10.0604,10.0604,10.0604,10.0604,10.0604,10.0604,10.0604,10.0604,10.0604,10.0557,10.0424,10.0277,10.0177,10.0062,9.9904,9.9796,9.9796,9.9742,9.9613,9.9442,9.9267,9.9088,9.878,9.8552,9.8329,9.8128,9.7924,9.7644,9.743,9.7211,9.6914,9.6762,9.6722,9.6722,9.6722,9.6722,9.6722,9.6722,9.6722,9.6722,9.6722,9.6722,9.6722,9.6722,9.6722,9.6722,9.6722,9.6722,9.6722,9.6722,9.6722,9.6722,9.6722,10.2177,10.2123,10.201,10.1819,10.1654,10.162,10.1552,10.1404,10.1366,10.1208,10.1,10.0742,10.0604,10.0604,10.0604,10.0604,10.0604,10.0604,10.0604,10.0604,10.0604,10.0604,10.0604,10.0604,10.0604,10.0604,10.0604,10.0604,10.0604,10.0604,10.0604,10.0604,10.0604,10.0604,10.0604,10.0604,10.0604,10.0604,10.0604,10.0604,10.0604,10.0604,10.0604,10.0604,10.0604,10.0604,10.0604,10.0604,10.0604,10.0604,10.0604,10.0604,10.0604,10.0604,10.0604,10.0604,10.0604,10.0604,10.0604,10.0604,10.0604,10.0604,10.0604,10.0604,10.0604,10.0604,10.0604,10.0604,10.0604,10.0604,10.0604,10.0604,10.0471,10.0277,10.0126,10.0062,9.9904,9.9796,9.9796,9.9742,9.9613,9.9384,9.9267,9.9088,9.878,9.8487,9.8262,9.803,9.7822,9.761,9.7358,9.7211,9.6914,9.6799,9.6722,9.6722,9.6722,9.6722,9.6722,9.6722,9.6722,9.6722,9.6722,9.6722,9.6722,9.6722,9.6722,9.6722,9.6722,9.6722,9.6722,9.6722,9.6722,9.6722,9.6722,10.2165,10.2085,10.2039,10.1881,10.1683,10.162,10.1552,10.1479,10.1366,10.117,10.1,10.0742,10.065,10.0604,10.0604,10.0604,10.0604,10.0604,10.0604,10.0604,10.0604,10.0604,10.0604,10.0604,10.0604,10.0604,10.0604,10.0604,10.0604,10.0604,10.0604,10.0604,10.0604,10.0604,10.0604,10.0604,10.0604,10.0604,10.0604,10.0604,10.0604,10.0604,10.0604,10.0604,10.0604,10.0604,10.0604,10.0604,10.0604,10.0604,10.0604,10.0604,10.0604,10.0604,10.0604,10.0604,10.0604,10.0604,10.0604,10.0604,10.0604,10.0604,10.0604,10.0604,10.0604,10.0604,10.0604,10.0604,10.0604,10.0604,10.0604,10.0604,10.051,10.0315,10.0177,10.0075,9.9904,9.9796,9.9796,9.9796,9.9613,9.9384,9.9208,9.9027,9.8717,9.8395,9.8128,9.803,9.7892,9.761,9.7358,9.7138,9.6914,9.6762,9.6722,9.6722,9.6722,9.6722,9.6722,9.6722,9.6722,9.6722,9.6722,9.6722,9.6722,9.6722,9.6722,9.6722,9.6722,9.6722,9.6722,9.6722,9.6722,9.6722,9.6722,10.2165,10.2085,10.2039,10.1881,10.1683,10.162,10.1588,10.1518,10.1366,10.1208,10.1,10.0831,10.0696,10.0604,10.0604,10.0604,10.0604,10.0604,10.0604,10.0604,10.0604,10.0604,10.0604,10.0604,10.0604,10.0604,10.0604,10.0604,10.0604,10.0604,10.0604,10.0604,10.0604,10.0604,10.0604,10.0604,10.0604,10.0604,10.0604,10.0604,10.0604,10.0604,10.0604,10.0604,10.0604,10.0604,10.0604,10.0604,10.0604,10.0604,10.0604,10.0604,10.0604,10.0604,10.0604,10.0604,10.0604,10.0604,10.0604,10.0604,10.0604,10.0604,10.0604,10.0604,10.0604,10.0604,10.0604,10.0604,10.0604,10.0604,10.0604,10.0557,10.0413,10.0315,10.0177,10.0075,9.9904,9.9796,9.9796,9.9742,9.9557,9.9326,9.9148,9.8867,9.8589,9.8329,9.8098,9.7961,9.7822,9.7573,9.7285,9.7138,9.6989,9.6762,9.6722,9.6722,9.6722,9.6722,9.6722,9.6722,9.6722,9.6722,9.6722,9.6722,9.6722,9.6722,9.6722,9.6722,9.6722,9.6722,9.6722,9.6722,9.6722,9.6722,9.6722,10.219,10.2085,10.2057,10.1971,10.1826,10.1654,10.155,10.1552,10.1327,10.1126,10.1,10.0831,10.0742,10.065,10.0604,10.0604,10.0604,10.0604,10.0604,10.0604,10.0604,10.0604,10.0604,10.0604,10.0604,10.0604,10.0604,10.0604,10.0604,10.0604,10.0604,10.0604,10.0604,10.0604,10.0604,10.0604,10.0604,10.0604,10.0604,10.0604,10.0604,10.0604,10.0604,10.0604,10.0604,10.0604,10.0604,10.0604,10.0604,10.0604,10.0604,10.0604,10.0604,10.0604,10.0604,10.0604,10.0604,10.0604,10.0604,10.0604,10.0604,10.0604,10.0604,10.0604,10.0604,10.0604,10.0604,10.0604,10.0604,10.0604,10.0604,10.051,10.0365,10.0265,10.0126,10.001,9.985,9.9796,9.9742,9.9631,9.95,9.9267,9.9027,9.878,9.846,9.8262,9.8098,9.7961,9.7892,9.761,9.7285,9.7138,9.6989,9.6875,9.6722,9.6722,9.6722,9.6722,9.6722,9.6722,9.6722,9.6722,9.6722,9.6722,9.6722,9.6722,9.6722,9.6722,9.6722,9.6722,9.6722,9.6722,9.6722,9.6722,9.6722,10.2215,10.2085,10.2123,10.2,10.1889,10.1693,10.155,10.1478,10.1327,10.1167,10.1,10.0875,10.0742,10.065,10.0604,10.0604,10.0604,10.0604,10.0604,10.0604,10.0604,10.0604,10.0604,10.0604,10.0604,10.0604,10.0604,10.0604,10.0604,10.0604,10.0604,10.0604,10.0604,10.0604,10.0604,10.0604,10.0604,10.0604,10.0604,10.0604,10.0604,10.0604,10.0604,10.0604,10.0604,10.0604,10.0604,10.0604,10.0604,10.0604,10.0604,10.0604,10.0604,10.0604,10.0604,10.0604,10.0604,10.0604,10.0604,10.0604,10.0604,10.0604,10.0604,10.0604,10.0604,10.0604,10.0604,10.0604,10.0604,10.0604,10.0604,10.0462,10.0326,10.0215,10.0075,9.9957,9.985,9.9796,9.9742,9.9613,9.9442,9.9208,9.8905,9.8653,9.8395,9.8196,9.8061,9.7961,9.7892,9.7539,9.7285,9.7138,9.6989,9.6799,9.6722,9.6722,9.6722,9.6722,9.6722,9.6722,9.6722,9.6722,9.6722,9.6722,9.6722,9.6722,9.6722,9.6722,9.6722,9.6722,9.6722,9.6722,9.6722,9.6722,9.6722,10.2215,10.2085,10.2123,10.2,10.1889,10.1693,10.1478,10.1327,10.1289,10.117,10.1,10.1,10.0831,10.065,10.0604,10.0604,10.0604,10.0604,10.0604,10.0604,10.0604,10.0604,10.0604,10.0604,10.0604,10.0604,10.0604,10.0604,10.0604,10.0604,10.0604,10.0604,10.0604,10.0604,10.0604,10.0604,10.0604,10.0604,10.0604,10.0604,10.0604,10.0604,10.0604,10.0604,10.0604,10.0604,10.0604,10.0604,10.0604,10.0604,10.0604,10.0604,10.0604,10.0604,10.0604,10.0604,10.0604,10.0604,10.0604,10.0604,10.0604,10.0604,10.0604,10.0604,10.0604,10.0604,10.0604,10.0604,10.0604,10.0604,10.0604,10.0462,10.0315,10.0215,10.0024,9.9957,9.985,9.9742,9.9687,9.9613,9.9384,9.9148,9.8742,9.8487,9.8329,9.8196,9.7992,9.7855,9.7752,9.7539,9.7285,9.7138,9.6989,9.6799,9.6722,9.6722,9.6722,9.6722,9.6722,9.6722,9.6722,9.6722,9.6722,9.6722,9.6722,9.6722,9.6722,9.6722,9.6722,9.6722,9.6722,9.6722,9.6722,9.6722,9.6722,10.2215,10.2085,10.2123,10.2,10.1889,10.1693,10.1478,10.1289,10.1289,10.1208,10.1,10.1,10.0831,10.0604,10.0604,10.0604,10.0604,10.0604,10.0604,10.0604,10.0604,10.0604,10.0604,10.0604,10.0604,10.0604,10.0604,10.0604,10.0604,10.0604,10.0604,10.0604,10.0604,10.0604,10.0604,10.0604,10.0604,10.0604,10.0604,10.0604,10.0604,10.0604,10.0604,10.0604,10.0604,10.0604,10.0604,10.0604,10.0604,10.0604,10.0604,10.0604,10.0604,10.0604,10.0604,10.0604,10.0604,10.0604,10.0604,10.0604,10.0604,10.0604,10.0604,10.0604,10.0604,10.0604,10.0604,10.0604,10.0604,10.0604,10.051,10.0413,10.0315,10.0165,9.9972,9.9904,9.9796,9.9796,9.9687,9.95,9.9326,9.9027,9.8616,9.8525,9.8329,9.8128,9.7992,9.7855,9.7644,9.7467,9.7211,9.7138,9.6914,9.6722,9.6722,9.6722,9.6722,9.6722,9.6722,9.6722,9.6722,9.6722,9.6722,9.6722,9.6722,9.6722,9.6722,9.6722,9.6722,9.6722,9.6722,9.6722,9.6722,9.6722,9.6722,10.2215,10.2085,10.2123,10.1971,10.1793,10.1659,10.1478,10.1289,10.1289,10.117,10.0962,10.1,10.0869,10.065,10.0604,10.0604,10.0604,10.0604,10.0604,10.0604,10.0604,10.0604,10.0604,10.0604,10.0604,10.0604,10.0604,10.0604,10.0604,10.0604,10.0604,10.0604,10.0604,10.0604,10.0604,10.0604,10.0604,10.0604,10.0604,10.0604,10.0604,10.0604,10.0604,10.0604,10.0604,10.0604,10.0604,10.0604,10.0604,10.0604,10.0604,10.0604,10.0604,10.0604,10.0604,10.0604,10.0604,10.0604,10.0604,10.0604,10.0604,10.0604,10.0604,10.0604,10.0604,10.0604,10.0604,10.0604,10.0604,10.0557,10.0462,10.0365,10.0265,10.0113,9.9957,9.9796,9.9796,9.9796,9.9631,9.9384,9.9148,9.8842,9.8653,9.846,9.8329,9.8061,9.7892,9.7752,9.761,9.7395,9.7211,9.7063,9.6914,9.6722,9.6722,9.6722,9.6722,9.6722,9.6722,9.6722,9.6722,9.6722,9.6722,9.6722,9.6722,9.6722,9.6722,9.6722,9.6722,9.6722,9.6722,9.6722,9.6722,9.6722,9.6722,10.2254,10.2085,10.2085,10.1881,10.162,10.1585,10.1478,10.1289,10.1289,10.1208,10.1043,10.1,10.0831,10.065,10.0604,10.0604,10.0604,10.0604,10.0604,10.0604,10.0604,10.0604,10.0604,10.0604,10.0604,10.0604,10.0604,10.0604,10.0604,10.0604,10.0604,10.0604,10.0604,10.0604,10.0604,10.0604,10.0604,10.0604,10.0604,10.0604,10.0604,10.0604,10.0604,10.0604,10.0604,10.0604,10.0604,10.0604,10.0604,10.0604,10.0604,10.0604,10.0604,10.0604,10.0604,10.0604,10.0604,10.0604,10.0604,10.0604,10.0604,10.0604,10.0604,10.0604,10.0604,10.0604,10.0604,10.0604,10.0604,10.0557,10.0462,10.0315,10.0215,10.0062,9.9904,9.9796,9.9796,9.9742,9.9519,9.9326,9.9088,9.878,9.8525,9.8395,9.8262,9.803,9.7892,9.7752,9.7539,9.7322,9.7138,9.6989,9.6838,9.6722,9.6722,9.6722,9.6722,9.6722,9.6722,9.6722,9.6722,9.6722,9.6722,9.6722,9.6722,9.6722,9.6722,9.6722,9.6722,9.6722,9.6722,9.6722,9.6722,9.6722,9.6722,10.2165,10.2123,10.201,10.1826,10.1624,10.1585,10.1478,10.1289,10.1289,10.1208,10.1043,10.0962,10.0869,10.0604,10.0604,10.0604,10.0604,10.0604,10.0604,10.0604,10.0604,10.0604,10.0604,10.0604,10.0604,10.0604,10.0604,10.0604,10.0604,10.0604,10.0604,10.0604,10.0604,10.0604,10.0604,10.0604,10.0604,10.0604,10.0604,10.0604,10.0604,10.0604,10.0604,10.0604,10.0604,10.0604,10.0604,10.0604,10.0604,10.0604,10.0604,10.0604,10.0604,10.0604,10.0604,10.0604,10.0604,10.0604,10.0604,10.0604,10.0604,10.0604,10.0604,10.0604,10.0604,10.0604,10.0604,10.0604,10.0557,10.051,10.0413,10.0265,10.0126,9.9972,9.9904,9.985,9.9796,9.9575,9.9405,9.9267,9.9027,9.878,9.8525,9.8329,9.8233,9.8098,9.7961,9.7752,9.7539,9.7322,9.7063,9.6914,9.6762,9.6722,9.6722,9.6722,9.6722,9.6722,9.6722,9.6722,9.6722,9.6722,9.6722,9.6722,9.6722,9.6722,9.6722,9.6722,9.6722,9.6722,9.6722,9.6722,9.6722,9.6722,9.6722,10.2138,10.2068,10.1951,10.1793,10.1585,10.1585,10.1478,10.1289,10.1289,10.1208,10.1043,10.0962,10.0869,10.0604,10.0604,10.0604,10.0604,10.0604,10.0604,10.0604,10.0604,10.0604,10.0604,10.0604,10.0604,10.0604,10.0604,10.0604,10.0604,10.0604,10.0604,10.0604,10.0604,10.0604,10.0604,10.0604,10.0604,10.0604,10.0604,10.0604,10.0604,10.0604,10.0604,10.0604,10.0604,10.0604,10.0604,10.0604,10.0604,10.0604,10.0604,10.0604,10.0604,10.0604,10.0604,10.0604,10.0604,10.0604,10.0604,10.0604,10.0604,10.0604,10.0604,10.0604,10.0604,10.0604,10.0604,10.0604,10.0604,10.0557,10.0365,10.0215,10.0062,9.9957,9.985,9.9796,9.9687,9.9557,9.9347,9.917,9.8929,9.8616,9.8423,9.8262,9.8128,9.7961,9.7892,9.7681,9.7467,9.7211,9.6989,9.6838,9.6799,9.6722,9.6722,9.6722,9.6722,9.6722,9.6722,9.6722,9.6722,9.6722,9.6722,9.6722,9.6722,9.6722,9.6722,9.6722,9.6722,9.6722,9.6722,9.6722,9.6722,9.6722,9.6722,10.2085,10.1981,10.192,10.1793,10.1585,10.155,10.1516,10.1327,10.1288,10.1208,10.1,10.1,10.0787,10.065,10.0604,10.0604,10.0604,10.0604,10.0604,10.0604,10.0604,10.0604,10.0604,10.0604,10.0604,10.0604,10.0604,10.0604,10.0604,10.0604,10.0604,10.0604,10.0604,10.0604,10.0604,10.0604,10.0604,10.0604,10.0604,10.0604,10.0604,10.0604,10.0604,10.0604,10.0604,10.0604,10.0604,10.0604,10.0604,10.0604,10.0604,10.0604,10.0604,10.0604,10.0604,10.0604,10.0604,10.0604,10.0604,10.0604,10.0604,10.0604,10.0604,10.0604,10.0604,10.0604,10.0604,10.0604,10.0604,10.051,10.0315,10.0215,10.0062,9.9904,9.9796,9.9687,9.9613,9.9442,9.9326,9.9111,9.8867,9.8552,9.8357,9.8262,9.8061,9.7892,9.7752,9.7502,9.7358,9.7138,9.6989,9.6838,9.6722,9.6722,9.6722,9.6722,9.6722,9.6722,9.6722,9.6722,9.6722,9.6722,9.6722,9.6722,9.6722,9.6722,9.6722,9.6722,9.6722,9.6722,9.6722,9.6722,9.6722,9.6722,9.6722,10.1971,10.192,10.1787,10.1688,10.1624,10.1552,10.1442,10.1327,10.1248,10.1126,10.1,10.0913,10.0742,10.0604,10.0604,10.0604,10.0604,10.0604,10.0604,10.0604,10.0604,10.0604,10.0604,10.0604,10.0604,10.0604,10.0604,10.0604,10.0604,10.0604,10.0604,10.0604,10.0604,10.0604,10.0604,10.0604,10.0604,10.0604,10.0604,10.0604,10.0604,10.0604,10.0604,10.0604,10.0604,10.0604,10.0604,10.0604,10.0604,10.0604,10.0604,10.0604,10.0604,10.0604,10.0604,10.0604,10.0604,10.0604,10.0604,10.0604,10.0604,10.0604,10.0604,10.0604,10.0604,10.0604,10.0604,10.0604,10.0557,10.0462,10.0277,10.0227,10.0075,9.9904,9.9796,9.9669,9.95,9.9384,9.9267,9.905,9.8742,9.8552,9.8395,9.8262,9.8061,9.7892,9.7681,9.7502,9.7285,9.7138,9.6914,9.6838,9.6722,9.6722,9.6722,9.6722,9.6722,9.6722,9.6722,9.6722,9.6722,9.6722,9.6722,9.6722,9.6722,9.6722,9.6722,9.6722,9.6722,9.6722,9.6722,9.6722,9.6722,9.6722,9.6722]},{"header":{"parameterUnit":"m.s-1","parameterCategory":1,"la1":31.0,"la2":29.5877,"lo1":-88.7671,"lo2":-86.6584,"dx":0.0162,"dy":0.0185,"nx":115,"ny":88,"refTime":"2022-11-07T06:00:00:Z","depth":0,"parameterNumber":3,"parameterNumberName":"V-component_of_WINDS"},"data":[0.0,0.0,0.0,0.0,0.0,0.0,0.0,0.0,0.0,0.0,0.0,0.0,0.0,0.0,0.0,0.0,0.0,0.0,0.0,0.0,0.0,0.0,0.0,0.0,0.0,0.0,0.0,0.0,0.0,0.0,0.0,0.0,0.0,0.0,0.0,0.0,0.0,0.0,0.0,0.0,0.0,0.0,0.0,0.0,0.0,0.0,0.0,0.0,0.0,0.0,0.0,0.0,0.0,0.0,0.0,0.0,0.0,0.0,0.0,0.0,0.0,0.0,0.0,0.0,0.0,0.0,0.0,0.0,0.0,0.0,0.0,0.0,0.0,0.0,0.0,0.0,0.0,0.0,0.0,0.0,0.0,0.0,0.0,0.0,0.0,0.0,0.0,0.0,0.0,0.0,0.0,0.0,0.0,0.0,0.0,0.0,0.0,0.0,0.0,0.0,0.0,0.0,0.0,0.0,0.0,0.0,0.0,0.0,0.0,0.0,0.0,0.0,0.0,0.0,0.0,0.0,0.0,0.0,0.0,0.0,0.0,0.0,0.0,0.0,0.0,0.0,0.0,0.0,0.0,0.0,0.0,0.0,0.0,0.0,0.0,0.0,0.0,0.0,0.0,0.0,0.0,0.0,0.0,0.0,0.0,0.0,0.0,0.0,0.0,0.0,0.0,0.0,0.0,0.0,0.0,0.0,0.0,0.0,0.0,0.0,0.0,0.0,0.0,0.0,0.0,0.0,0.0,0.0,0.0,0.0,0.0,0.0,0.0,0.0,0.0,0.0,0.0,0.0,0.0,0.0,0.0,0.0,0.0,0.0,0.0,0.0,0.0,0.0,0.0,0.0,0.0,0.0,0.0,0.0,0.0,0.0,0.0,0.0,0.0,0.0,0.0,0.0,0.0,0.0,0.0,0.0,0.0,0.0,0.0,0.0,0.0,0.0,0.0,0.0,0.0,0.0,0.0,0.0,0.0,0.0,0.0,0.0,0.0,0.0,0.0,0.0,0.0,0.0,0.0,0.0,0.0,0.0,0.0,0.0,0.0,0.0,0.0,0.0,0.0,0.0,0.0,0.0,0.0,0.0,0.0,0.0,0.0,0.0,0.0,0.0,0.0,0.0,0.0,0.0,0.0,0.0,0.0,0.0,0.0,0.0,0.0,0.0,0.0,0.0,0.0,0.0,0.0,0.0,0.0,0.0,0.0,0.0,0.0,0.0,0.0,0.0,0.0,0.0,0.0,0.0,0.0,0.0,0.0,0.0,0.0,0.0,0.0,0.0,0.0,0.0,0.0,0.0,0.0,0.0,0.0,0.0,0.0,0.0,0.0,0.0,0.0,0.0,0.0,0.0,0.0,0.0,0.0,0.0,0.0,0.0,0.0,0.0,0.0,0.0,0.0,0.0,0.0,0.0,0.0,0.0,0.0,0.0,0.0,0.0,0.0,0.0,0.0,0.0,0.0,0.0,0.0,0.0,0.0,0.0,0.0,0.0,0.0,0.0,0.0,0.0,0.0,0.0,0.0,0.0,0.0,0.0,0.0,0.0,0.0,0.0,0.0,0.0,0.0,0.0,0.0,0.0,0.0,0.0,0.0,0.0,0.0,0.0,0.0,0.0,0.0,0.0,0.0,0.0,0.0,0.0,0.0,0.0,0.0,0.0,0.0,0.0,0.0,0.0,0.0,0.0,0.0,0.0,0.0,0.0,0.0,0.0,0.0,0.0,0.0,0.0,0.0,0.0,0.0,0.0,0.0,0.0,0.0,0.0,0.0,0.0,0.0,0.0,0.0,0.0,0.0,0.0,0.0,0.0,0.0,0.0,0.0,0.0,0.0,0.0,0.0,0.0,0.0,0.0,0.0,0.0,0.0,0.0,0.0,0.0,0.0,0.0,0.0,0.0,0.0,0.0,0.0,0.0,0.0,0.0,0.0,0.0,0.0,0.0,0.0,0.0,0.0,0.0,0.0,0.0,0.0,0.0,0.0,0.0,0.0,0.0,0.0,0.0,0.0,0.0,0.0,0.0,0.0,0.0,0.0,0.0,0.0,0.0,0.0,0.0,0.0,0.0,0.0,0.0,0.0,0.0,0.0,0.0,0.0,0.0,0.0,0.0,0.0,0.0,0.0,0.0,0.0,0.0,0.0,0.0,0.0,0.0,0.0,0.0,0.0,0.0,0.0,0.0,0.0,0.0,0.0,0.0,0.0,0.0,0.0,0.0,0.0,0.0,0.0,0.0,0.0,0.0,0.0,0.0,0.0,0.0,0.0,0.0,0.0,0.0,0.0,0.0,0.0,0.0,0.0,0.0,0.0,0.0,0.0,0.0,0.0,0.0,0.0,0.0,0.0,0.0,0.0,0.0,0.0,0.0,0.0,0.0,0.0,0.0,0.0,0.0,0.0,0.0,0.0,0.0,0.0,0.0,0.0,0.0,0.0,0.0,0.0,0.0,0.0,0.0,0.0,0.0,0.0,0.0,0.0,0.0,0.0,0.0,0.0,0.0,0.0,0.0,0.0,0.0,0.0,0.0,0.0,0.0,0.0,0.0,0.0,0.0,0.0,0.0,0.0,0.0,0.0,0.0,0.0,0.0,0.0,0.0,0.0,0.0,0.0,0.0,0.0,0.0,0.0,0.0,0.0,0.0,0.0,0.0,0.0,0.0,0.0,0.0,0.0,0.0,0.0,0.0,0.0,0.0,0.0,0.0,0.0,0.0,0.0,0.0,0.0,0.0,0.0,0.0,0.0,0.0,0.0,0.0,0.0,0.0,0.0,0.0,0.0,0.0,0.0,0.0,0.0,0.0,0.0,0.0,0.0,0.0,0.0,0.0,0.0,0.0,0.0,0.0,0.0,0.0,0.0,0.0,0.0,0.0,0.0,0.0,0.0,0.0,0.0,0.0,0.0,0.0,0.0,0.0,0.0,0.0,0.0,0.0,0.0,0.0,0.0,0.0,0.0,0.0,0.0,0.0,0.0,0.0,0.0,0.0,0.0,0.0,0.0,0.0,0.0,0.0,0.0,0.0,0.0,0.0,0.0,0.0,0.0,0.0,0.0,0.0,0.0,0.0,0.0,0.0,0.0,0.0,0.0,0.0,0.0,0.0,0.0,0.0,0.0,0.0,0.0,0.0,0.0,0.0,0.0,0.0,0.0,0.0,0.0,0.0,0.0,0.0,0.0,0.0,0.0,0.0,0.0,0.0,0.0,0.0,0.0,0.0,0.0,0.0,0.0,0.0,0.0,0.0,0.0,0.0,0.0,0.0,0.0,0.0,0.0,0.0,0.0,0.0,0.0,0.0,0.0,0.0,0.0,0.0,0.0,0.0,0.0,0.0,0.0,0.0,0.0,0.0,0.0,0.0,0.0,0.0,0.0,0.0,0.0,0.0,0.0,0.0,0.0,0.0,0.0,0.0,0.0,0.0,0.0,0.0,0.0,0.0,0.0,0.0,0.0,0.0,0.0,0.0,0.0,0.0,0.0,0.0,0.0,0.0,0.0,0.0,0.0,0.0,0.0,0.0,0.0,0.0,0.0,0.0,0.0,0.0,0.0,0.0,0.0,0.0,0.0,0.0,0.0,0.0,0.0,0.0,0.0,0.0,0.0,0.0,0.0,0.0,0.0,0.0,0.0,0.0,0.0,0.0,0.0,0.0,0.0,0.0,0.0,0.0,0.0,0.0,0.0,0.0,0.0,0.0,0.0,0.0,0.0,0.0,0.0,0.0,0.0,0.0,0.0,0.0,0.0,0.0,0.0,0.0,0.0,0.0,0.0,0.0,0.0,0.0,0.0,0.0,0.0,0.0,0.0,0.0,0.0,0.0,0.0,0.0,0.0,0.0,0.0,0.0,0.0,0.0,0.0,0.0,0.0,0.0,0.0,0.0,0.0,0.0,0.0,0.0,0.0,0.0,0.0,0.0,0.0,0.0,0.0,0.0,0.0,0.0,0.0,0.0,0.0,0.0,0.0,0.0,0.0,0.0,0.0,0.0,0.0,0.0,0.0,0.0,0.0,0.0,0.0,0.0,0.0,0.0,0.0,0.0,0.0,0.0,0.0,0.0,0.0,0.0,0.0,0.0,0.0,0.0,0.0,0.0,0.0,0.0,0.0,0.0,0.0,0.0,0.0,0.0,0.0,0.0,0.0,0.0,0.0,0.0,0.0,0.0,0.0,0.0,0.0,0.0,0.0,0.0,0.0,0.0,0.0,0.0,0.0,0.0,0.0,0.0,0.0,0.0,0.0,0.0,0.0,0.0,0.0,0.0,-1.0447,0.0,0.0,0.0,-1.217,0.0,0.0,0.0,0.0,0.0,0.0,0.0,0.0,0.0,0.0,0.0,0.0,0.0,0.0,0.0,0.0,0.0,0.0,0.0,0.0,0.0,0.0,0.0,0.0,0.0,0.0,0.0,0.0,0.0,0.0,0.0,0.0,0.0,0.0,0.0,0.0,0.0,0.0,0.0,0.0,0.0,0.0,0.0,0.0,0.0,0.0,0.0,0.0,0.0,0.0,0.0,0.0,0.0,0.0,0.0,0.0,0.0,0.0,0.0,0.0,0.0,0.0,0.0,0.0,0.0,0.0,0.0,0.0,0.0,0.0,0.0,0.0,0.0,0.0,0.0,0.0,0.0,0.0,0.0,0.0,0.0,0.0,0.0,0.0,0.0,0.0,0.0,0.0,0.0,0.0,0.0,0.0,0.0,0.0,0.0,0.0,0.0,0.0,0.0,0.0,0.0,0.0,0.0,0.0,0.0,0.0,0.0,0.0,0.0,0.0,-1.0552,-1.0906,-1.1163,-1.1543,-1.1963,0.0,0.0,0.0,0.0,0.0,0.0,0.0,0.0,0.0,0.0,0.0,0.0,0.0,0.0,0.0,0.0,0.0,0.0,0.0,0.0,0.0,0.0,0.0,0.0,0.0,0.0,0.0,0.0,0.0,0.0,0.0,0.0,0.0,0.0,0.0,0.0,0.0,0.0,0.0,0.0,0.0,0.0,0.0,0.0,0.0,0.0,0.0,0.0,0.0,0.0,0.0,0.0,0.0,0.0,0.0,0.0,0.0,0.0,0.0,0.0,0.0,0.0,0.0,0.0,0.0,0.0,0.0,0.0,0.0,0.0,0.0,0.0,0.0,0.0,0.0,0.0,0.0,0.0,0.0,0.0,0.0,0.0,0.0,0.0,0.0,0.0,0.0,0.0,0.0,0.0,0.0,0.0,0.0,0.0,0.0,0.0,0.0,0.0,0.0,0.0,0.0,0.0,0.0,0.0,0.0,0.0,0.0,0.0,0.0,0.0,0.0,0.0,-1.115,-1.1568,-1.1693,0.0,0.0,0.0,0.0,0.0,0.0,0.0,0.0,0.0,0.0,0.0,0.0,0.0,0.0,0.0,0.0,0.0,0.0,0.0,0.0,0.0,0.0,0.0,0.0,0.0,0.0,0.0,0.0,0.0,0.0,0.0,0.0,0.0,0.0,0.0,0.0,0.0,0.0,0.0,0.0,0.0,0.0,0.0,0.0,0.0,0.0,0.0,0.0,0.0,0.0,0.0,0.0,0.0,0.0,0.0,0.0,0.0,0.0,0.0,0.0,0.0,0.0,0.0,0.0,0.0,0.0,0.0,0.0,0.0,0.0,0.0,0.0,0.0,0.0,0.0,0.0,0.0,0.0,0.0,0.0,0.0,0.0,0.0,0.0,0.0,0.0,0.0,0.0,0.0,0.0,0.0,0.0,0.0,0.0,0.0,0.0,0.0,0.0,0.0,0.0,0.0,0.0,0.0,0.0,0.0,0.0,0.0,0.0,0.0,0.0,-1.0362,-1.0546,-1.0823,0.0,-1.1704,0.0,0.0,0.0,0.0,0.0,0.0,0.0,0.0,0.0,0.0,0.0,0.0,0.0,0.0,0.0,0.0,0.0,0.0,0.0,0.0,0.0,0.0,0.0,0.0,0.0,0.0,0.0,0.0,0.0,0.0,0.0,0.0,0.0,0.0,0.0,0.0,0.0,0.0,0.0,0.0,0.0,0.0,0.0,0.0,0.0,0.0,0.0,0.0,0.0,0.0,0.0,0.0,0.0,0.0,0.0,0.0,0.0,0.0,0.0,0.0,0.0,0.0,0.0,0.0,0.0,0.0,0.0,0.0,0.0,0.0,0.0,0.0,0.0,0.0,0.0,0.0,0.0,0.0,0.0,0.0,0.0,0.0,0.0,0.0,0.0,0.0,0.0,0.0,0.0,0.0,0.0,0.0,0.0,0.0,0.0,0.0,0.0,0.0,0.0,0.0,0.0,0.0,0.0,0.0,0.0,0.0,0.0,0.0,0.0,0.0,-1.0464,-1.0656,-1.1029,-1.1348,0.0,0.0,0.0,0.0,0.0,0.0,0.0,0.0,0.0,0.0,0.0,0.0,0.0,0.0,0.0,0.0,0.0,0.0,0.0,0.0,0.0,0.0,0.0,0.0,0.0,0.0,0.0,0.0,0.0,0.0,0.0,0.0,0.0,0.0,0.0,0.0,0.0,0.0,0.0,0.0,0.0,0.0,0.0,0.0,0.0,0.0,0.0,0.0,0.0,0.0,0.0,0.0,0.0,0.0,0.0,0.0,0.0,0.0,0.0,0.0,0.0,0.0,0.0,0.0,0.0,0.0,0.0,0.0,0.0,0.0,0.0,0.0,0.0,0.0,0.0,0.0,0.0,0.0,0.0,0.0,0.0,0.0,0.0,0.0,0.0,0.0,0.0,0.0,0.0,0.0,0.0,0.0,0.0,0.0,0.0,0.0,0.0,0.0,0.0,0.0,0.0,0.0,0.0,0.0,0.0,0.0,0.0,0.0,0.0,0.0,-1.0173,-1.0571,-1.097,-1.1368,-1.1551,-1.1693,0.0,0.0,0.0,0.0,0.0,0.0,0.0,0.0,0.0,0.0,0.0,0.0,0.0,0.0,0.0,0.0,0.0,0.0,0.0,0.0,0.0,0.0,0.0,0.0,0.0,0.0,0.0,0.0,0.0,0.0,0.0,0.0,0.0,0.0,0.0,0.0,0.0,0.0,0.0,0.0,0.0,0.0,0.0,0.0,0.0,0.0,0.0,0.0,0.0,0.0,0.0,0.0,0.0,0.0,0.0,0.0,0.0,0.0,0.0,0.0,0.0,0.0,0.0,0.0,0.0,0.0,0.0,0.0,0.0,0.0,0.0,0.0,0.0,0.0,0.0,0.0,0.0,0.0,0.0,0.0,0.0,0.0,0.0,0.0,0.0,0.0,0.0,0.0,0.0,0.0,0.0,0.0,0.0,0.0,0.0,0.0,0.0,0.0,0.0,0.0,0.0,0.0,0.0,0.0,0.0,0.0,0.0,0.0,-0.9616,-1.0263,-1.0863,-1.138,-1.169,-1.1697,0.0,0.0,0.0,0.0,0.0,0.0,0.0,0.0,0.0,0.0,0.0,0.0,0.0,0.0,0.0,0.0,0.0,0.0,0.0,0.0,0.0,0.0,0.0,0.0,0.0,0.0,0.0,0.0,0.0,0.0,0.0,0.0,0.0,0.0,0.0,0.0,0.0,0.0,0.0,0.0,0.0,0.0,0.0,0.0,0.0,0.0,0.0,0.0,0.0,0.0,0.0,0.0,0.0,0.0,0.0,0.0,0.0,0.0,0.0,0.0,0.0,0.0,0.0,0.0,0.0,0.0,0.0,0.0,0.0,0.0,0.0,0.0,0.0,0.0,0.0,0.0,0.0,0.0,0.0,0.0,0.0,0.0,0.0,0.0,0.0,0.0,0.0,0.0,0.0,0.0,0.0,0.0,0.0,0.0,0.0,0.0,0.0,0.0,0.0,0.0,0.0,0.0,0.0,0.0,0.0,0.0,0.0,0.0,0.0,-1.0136,-1.0708,-1.1227,-1.1437,-1.1756,-1.181,0.0,0.0,0.0,0.0,0.0,0.0,0.0,0.0,0.0,0.0,0.0,0.0,0.0,0.0,0.0,0.0,0.0,0.0,0.0,0.0,0.0,0.0,0.0,0.0,0.0,0.0,0.0,0.0,0.0,0.0,0.0,0.0,0.0,0.0,0.0,0.0,0.0,0.0,0.0,0.0,0.0,0.0,0.0,0.0,0.0,0.0,0.0,0.0,0.0,0.0,0.0,0.0,0.0,0.0,0.0,0.0,0.0,0.0,0.0,0.0,0.0,0.0,0.0,0.0,0.0,0.0,0.0,0.0,0.0,0.0,0.0,0.0,0.0,0.0,0.0,0.0,0.0,0.0,0.0,0.0,0.0,0.0,0.0,0.0,0.0,0.0,0.0,0.0,0.0,0.0,0.0,0.0,0.0,0.0,0.0,0.0,0.0,0.0,0.0,0.0,0.0,0.0,0.0,0.0,0.0,0.0,0.0,0.0,0.0,-1.0761,-1.1297,-1.1544,-1.1591,-1.1924,-1.2083,0.0,0.0,0.0,0.0,0.0,0.0,0.0,0.0,0.0,0.0,0.0,0.0,0.0,0.0,0.0,0.0,0.0,0.0,0.0,0.0,0.0,0.0,0.0,0.0,0.0,0.0,0.0,0.0,0.0,0.0,0.0,0.0,0.0,0.0,0.0,0.0,0.0,0.0,0.0,0.0,0.0,0.0,0.0,0.0,0.0,0.0,0.0,0.0,0.0,0.0,0.0,0.0,0.0,0.0,0.0,0.0,0.0,0.0,0.0,0.0,0.0,0.0,0.0,0.0,0.0,0.0,0.0,0.0,0.0,0.0,0.0,0.0,0.0,0.0,0.0,0.0,0.0,0.0,0.0,0.0,0.0,0.0,0.0,0.0,0.0,0.0,0.0,0.0,0.0,0.0,0.0,0.0,0.0,0.0,0.0,0.0,0.0,0.0,0.0,0.0,0.0,0.0,0.0,0.0,0.0,0.0,0.0,0.0,-1.0802,-1.1476,-1.1679,-1.1823,-1.1871,-1.2207,-1.2285,0.0,0.0,0.0,0.0,0.0,0.0,0.0,0.0,0.0,0.0,0.0,0.0,0.0,0.0,0.0,0.0,0.0,0.0,0.0,0.0,0.0,0.0,0.0,0.0,0.0,0.0,0.0,0.0,0.0,0.0,0.0,0.0,0.0,0.0,0.0,0.0,0.0,0.0,0.0,0.0,0.0,0.0,0.0,0.0,0.0,0.0,0.0,0.0,0.0,0.0,0.0,0.0,0.0,0.0,0.0,0.0,0.0,0.0,0.0,0.0,0.0,0.0,0.0,0.0,0.0,0.0,0.0,0.0,0.0,0.0,0.0,0.0,0.0,0.0,0.0,0.0,0.0,0.0,0.0,0.0,0.0,0.0,0.0,0.0,0.0,0.0,0.0,0.0,0.0,0.0,0.0,0.0,0.0,0.0,0.0,0.0,0.0,0.0,0.0,0.0,0.0,0.0,0.0,0.0,0.0,0.0,0.0,0.0,0.0,-1.2052,-1.2231,-1.2296,-1.2348,-1.2488,-1.2328,0.0,0.0,0.0,0.0,0.0,0.0,0.0,0.0,0.0,0.0,0.0,0.0,0.0,0.0,0.0,0.0,0.0,0.0,0.0,0.0,0.0,0.0,0.0,0.0,0.0,0.0,0.0,0.0,0.0,0.0,0.0,0.0,0.0,0.0,0.0,0.0,0.0,0.0,0.0,0.0,0.0,0.0,0.0,0.0,0.0,0.0,0.0,0.0,0.0,0.0,0.0,0.0,0.0,0.0,0.0,0.0,0.0,0.0,0.0,0.0,0.0,0.0,0.0,0.0,0.0,0.0,0.0,0.0,0.0,0.0,0.0,0.0,0.0,0.0,0.0,0.0,0.0,0.0,0.0,0.0,0.0,0.0,0.0,0.0,0.0,0.0,0.0,0.0,0.0,0.0,0.0,0.0,0.0,0.0,0.0,0.0,0.0,0.0,0.0,0.0,0.0,0.0,0.0,0.0,0.0,0.0,0.0,0.0,0.0,-1.2889,-1.2881,-1.2832,-1.2759,-1.2739,-1.2572,-1.225,0.0,0.0,0.0,0.0,0.0,0.0,0.0,0.0,0.0,0.0,0.0,0.0,0.0,0.0,0.0,0.0,0.0,0.0,0.0,0.0,0.0,0.0,0.0,0.0,0.0,0.0,0.0,0.0,0.0,0.0,0.0,0.0,0.0,0.0,0.0,0.0,0.0,0.0,0.0,0.0,0.0,0.0,0.0,0.0,0.0,0.0,0.0,0.0,0.0,0.0,0.0,0.0,0.0,0.0,0.0,0.0,0.0,0.0,0.0,0.0,0.0,0.0,0.0,0.0,0.0,0.0,0.0,0.0,0.0,0.0,0.0,0.0,0.0,0.0,0.0,0.0,0.0,0.0,0.0,0.0,0.0,0.0,0.0,0.0,0.0,0.0,0.0,0.0,0.0,0.0,0.0,0.0,0.0,0.0,0.0,0.0,0.0,0.0,0.0,0.0,0.0,0.0,0.0,0.0,0.0,0.0,0.0,0.0,-1.3896,-1.3595,-1.3336,-1.3141,-1.3228,-1.3001,0.0,0.0,0.0,0.0,0.0,0.0,0.0,0.0,0.0,0.0,0.0,0.0,0.0,0.0,0.0,0.0,0.0,0.0,0.0,0.0,0.0,0.0,0.0,0.0,0.0,0.0,0.0,0.0,0.0,0.0,0.0,0.0,0.0,0.0,0.0,0.0,0.0,0.0,0.0,0.0,0.0,0.0,0.0,0.0,0.0,0.0,0.0,0.0,0.0,0.0,0.0,0.0,0.0,0.0,0.0,0.0,0.0,0.0,0.0,0.0,0.0,0.0,0.0,0.0,0.0,0.0,0.0,0.0,0.0,0.0,0.0,0.0,0.0,0.0,0.0,0.0,0.0,0.0,0.0,0.0,0.0,0.0,0.0,0.0,0.0,0.0,0.0,0.0,0.0,0.0,0.0,0.0,0.0,0.0,0.0,0.0,0.0,0.0,0.0,0.0,0.0,0.0,0.0,0.0,0.0,0.0,0.0,0.0,0.0,-1.3888,-1.4066,-1.401,-1.3701,-1.353,-1.3178,0.0,0.0,0.0,0.0,0.0,0.0,0.0,0.0,0.0,0.0,0.0,0.0,0.0,0.0,0.0,0.0,0.0,0.0,0.0,0.0,0.0,0.0,0.0,0.0,0.0,0.0,0.0,0.0,0.0,0.0,0.0,0.0,0.0,0.0,0.0,0.0,0.0,0.0,0.0,0.0,0.0,0.0,0.0,0.0,0.0,0.0,0.0,0.0,0.0,0.0,0.0,0.0,0.0,0.0,0.0,0.0,0.0,0.0,0.0,0.0,0.0,0.0,0.0,0.0,0.0,0.0,0.0,0.0,0.0,0.0,0.0,0.0,0.0,0.0,0.0,0.0,0.0,0.0,0.0,0.0,0.0,0.0,0.0,0.0,0.0,0.0,0.0,0.0,0.0,0.0,0.0,0.0,0.0,0.0,0.0,0.0,0.0,0.0,0.0,0.0,0.0,0.0,0.0,0.0,0.0,0.0,0.0,0.0,-1.392,-1.4343,-1.4627,-1.4635,-1.4351,-1.3855,-1.3472,0.0,0.0,0.0,0.0,0.0,0.0,0.0,0.0,0.0,0.0,0.0,0.0,0.0,0.0,0.0,0.0,0.0,0.0,0.0,0.0,0.0,0.0,0.0,0.0,0.0,0.0,0.0,0.0,0.0,0.0,0.0,0.0,0.0,0.0,0.0,0.0,0.0,0.0,0.0,0.0,0.0,0.0,0.0,0.0,0.0,0.0,0.0,0.0,0.0,0.0,0.0,0.0,0.0,0.0,0.0,0.0,0.0,0.0,0.0,0.0,0.0,0.0,0.0,0.0,0.0,0.0,0.0,0.0,0.0,0.0,0.0,0.0,0.0,0.0,0.0,0.0,0.0,0.0,0.0,0.0,0.0,0.0,0.0,0.0,0.0,0.0,0.0,0.0,0.0,0.0,0.0,0.0,0.0,0.0,0.0,0.0,0.0,0.0,0.0,0.0,0.0,0.0,0.0,0.0,0.0,0.0,0.0,0.0,-1.4448,-1.4952,-1.5163,-1.5187,-1.5017,-1.4326,-1.3774,0.0,0.0,0.0,0.0,0.0,0.0,0.0,0.0,0.0,0.0,0.0,0.0,0.0,0.0,0.0,0.0,0.0,0.0,0.0,0.0,0.0,0.0,0.0,0.0,0.0,0.0,0.0,0.0,0.0,0.0,0.0,0.0,0.0,0.0,0.0,0.0,0.0,0.0,0.0,0.0,0.0,0.0,0.0,0.0,0.0,0.0,0.0,0.0,0.0,0.0,0.0,0.0,0.0,0.0,0.0,0.0,0.0,0.0,0.0,0.0,0.0,0.0,0.0,0.0,0.0,0.0,0.0,0.0,0.0,0.0,0.0,0.0,0.0,0.0,0.0,0.0,0.0,0.0,0.0,0.0,0.0,0.0,0.0,0.0,0.0,0.0,0.0,0.0,0.0,0.0,0.0,0.0,0.0,0.0,0.0,0.0,0.0,0.0,0.0,0.0,0.0,0.0,0.0,0.0,0.0,0.0,0.0,0.0,-1.457,-1.496,-1.5285,-1.5439,-1.5398,-1.47,-1.4026,0.0,0.0,0.0,0.0,0.0,0.0,0.0,0.0,0.0,0.0,0.0,0.0,0.0,0.0,0.0,0.0,0.0,0.0,0.0,0.0,0.0,0.0,0.0,0.0,0.0,0.0,0.0,0.0,0.0,0.0,0.0,0.0,0.0,0.0,0.0,0.0,0.0,0.0,0.0,0.0,0.0,0.0,0.0,0.0,0.0,0.0,0.0,0.0,-2.0794,0.0,0.0,0.0,0.0,0.0,0.0,0.0,0.0,0.0,0.0,0.0,0.0,0.0,0.0,0.0,0.0,0.0,0.0,0.0,0.0,0.0,0.0,0.0,0.0,0.0,0.0,0.0,0.0,0.0,0.0,0.0,0.0,0.0,0.0,0.0,0.0,0.0,0.0,0.0,0.0,0.0,0.0,0.0,0.0,0.0,0.0,0.0,0.0,0.0,0.0,0.0,0.0,0.0,0.0,0.0,0.0,0.0,0.0,0.0,-1.4781,-1.5212,-1.5496,-1.5642,-1.5618,-1.5098,-1.4513,0.0,0.0,0.0,0.0,0.0,0.0,0.0,0.0,0.0,0.0,0.0,0.0,0.0,0.0,0.0,0.0,0.0,0.0,0.0,0.0,0.0,0.0,0.0,0.0,0.0,0.0,0.0,0.0,0.0,0.0,0.0,0.0,0.0,0.0,0.0,0.0,0.0,0.0,0.0,0.0,0.0,0.0,0.0,0.0,0.0,0.0,0.0,0.0,0.0,0.0,0.0,0.0,0.0,0.0,0.0,0.0,0.0,0.0,0.0,0.0,0.0,0.0,0.0,0.0,0.0,0.0,0.0,0.0,0.0,0.0,0.0,0.0,0.0,0.0,0.0,0.0,0.0,0.0,0.0,0.0,0.0,0.0,0.0,0.0,0.0,0.0,0.0,0.0,0.0,0.0,0.0,0.0,0.0,0.0,0.0,0.0,0.0,0.0,0.0,0.0,0.0,0.0,0.0,0.0,0.0,0.0,0.0,-1.4513,-1.5049,-1.5577,-1.5764,-1.5853,-1.5845,-1.5504,-1.5065,-1.4521,0.0,0.0,0.0,0.0,0.0,0.0,0.0,0.0,0.0,0.0,0.0,0.0,0.0,0.0,0.0,0.0,0.0,0.0,0.0,0.0,0.0,0.0,0.0,0.0,0.0,0.0,0.0,0.0,0.0,0.0,0.0,0.0,0.0,0.0,0.0,0.0,0.0,0.0,-1.8145,-1.9579,0.0,0.0,0.0,0.0,0.0,0.0,0.0,0.0,-2.2154,0.0,0.0,0.0,0.0,0.0,0.0,0.0,0.0,0.0,0.0,0.0,0.0,0.0,0.0,0.0,0.0,0.0,0.0,0.0,0.0,0.0,0.0,0.0,0.0,0.0,0.0,0.0,0.0,0.0,0.0,0.0,0.0,0.0,0.0,0.0,0.0,0.0,0.0,0.0,0.0,0.0,0.0,0.0,0.0,0.0,0.0,0.0,0.0,0.0,0.0,0.0,0.0,0.0,0.0,0.0,0.0,-1.4335,-1.4879,-1.5415,-1.5943,-1.6129,-1.6219,-1.6211,-1.5869,-1.5431,-1.4871,0.0,0.0,0.0,0.0,0.0,0.0,0.0,0.0,0.0,0.0,0.0,0.0,0.0,0.0,0.0,0.0,0.0,0.0,0.0,0.0,0.0,0.0,0.0,0.0,0.0,0.0,0.0,0.0,0.0,0.0,0.0,0.0,0.0,0.0,0.0,0.0,0.0,0.0,0.0,-2.1174,-2.2198,0.0,0.0,0.0,0.0,0.0,0.0,0.0,0.0,-2.271,0.0,0.0,0.0,0.0,0.0,0.0,0.0,0.0,0.0,0.0,0.0,0.0,0.0,0.0,0.0,0.0,0.0,0.0,0.0,0.0,0.0,0.0,0.0,0.0,0.0,0.0,0.0,0.0,0.0,0.0,0.0,0.0,0.0,0.0,0.0,0.0,0.0,0.0,0.0,0.0,0.0,0.0,0.0,0.0,0.0,0.0,0.0,0.0,0.0,0.0,0.0,0.0,0.0,0.0,0.0,-1.4416,-1.5057,-1.5601,-1.6032,-1.6308,-1.6397,-1.63,-1.6048,-1.5658,0.0,0.0,0.0,0.0,0.0,0.0,0.0,0.0,0.0,0.0,0.0,0.0,0.0,0.0,0.0,0.0,0.0,0.0,0.0,0.0,0.0,0.0,0.0,0.0,0.0,0.0,0.0,0.0,0.0,0.0,0.0,0.0,0.0,0.0,0.0,0.0,0.0,0.0,0.0,0.0,-2.2315,-2.3208,-2.3984,0.0,0.0,0.0,0.0,0.0,0.0,-2.4188,-2.3706,0.0,0.0,0.0,0.0,0.0,0.0,0.0,0.0,0.0,0.0,0.0,0.0,0.0,0.0,0.0,0.0,0.0,0.0,0.0,0.0,0.0,0.0,0.0,0.0,0.0,0.0,0.0,0.0,0.0,0.0,0.0,0.0,0.0,0.0,0.0,0.0,0.0,0.0,0.0,0.0,0.0,0.0,0.0,0.0,0.0,0.0,0.0,0.0,0.0,0.0,0.0,0.0,0.0,0.0,0.0,-1.4529,-1.522,-1.5756,-1.6146,-1.647,-1.6568,-1.6414,-1.6211,-1.5845,0.0,0.0,0.0,0.0,0.0,0.0,0.0,0.0,0.0,0.0,0.0,0.0,0.0,0.0,0.0,0.0,0.0,0.0,0.0,0.0,0.0,0.0,0.0,0.0,0.0,0.0,0.0,0.0,0.0,0.0,0.0,0.0,0.0,0.0,0.0,0.0,0.0,0.0,0.0,0.0,0.0,-2.4057,-2.4759,-2.514,0.0,0.0,0.0,0.0,-2.5359,-2.5066,0.0,0.0,0.0,0.0,0.0,0.0,0.0,0.0,0.0,0.0,0.0,0.0,0.0,0.0,0.0,0.0,0.0,0.0,0.0,0.0,0.0,0.0,0.0,0.0,0.0,0.0,0.0,0.0,0.0,0.0,0.0,0.0,0.0,0.0,0.0,0.0,0.0,0.0,0.0,0.0,0.0,0.0,0.0,0.0,0.0,0.0,0.0,0.0,0.0,0.0,0.0,0.0,0.0,0.0,0.0,0.0,-1.4887,-1.5455,-1.5991,-1.6495,-1.6722,-1.6812,-1.6787,-1.6454,-1.6024,0.0,0.0,0.0,0.0,0.0,0.0,0.0,0.0,0.0,0.0,0.0,0.0,0.0,0.0,0.0,0.0,0.0,0.0,0.0,0.0,0.0,0.0,0.0,0.0,0.0,0.0,0.0,0.0,0.0,0.0,0.0,0.0,0.0,0.0,0.0,0.0,0.0,0.0,0.0,0.0,0.0,-2.4788,-2.5725,-2.6135,-2.6442,0.0,0.0,-2.6661,-2.6383,-2.6061,0.0,0.0,0.0,0.0,0.0,0.0,0.0,0.0,0.0,0.0,0.0,0.0,0.0,0.0,0.0,0.0,0.0,0.0,0.0,0.0,0.0,0.0,0.0,0.0,0.0,0.0,0.0,0.0,0.0,0.0,0.0,0.0,0.0,0.0,0.0,0.0,0.0,0.0,0.0,0.0,0.0,0.0,0.0,0.0,0.0,0.0,0.0,0.0,0.0,0.0,0.0,0.0,0.0,0.0,0.0,-1.4481,-1.526,-1.5804,-1.6292,-1.6722,-1.6909,-1.695,-1.6852,-1.66,-1.6211,0.0,0.0,0.0,0.0,0.0,0.0,0.0,0.0,0.0,0.0,0.0,0.0,0.0,0.0,0.0,0.0,0.0,0.0,0.0,0.0,0.0,0.0,0.0,0.0,0.0,0.0,0.0,0.0,0.0,0.0,0.0,0.0,0.0,0.0,0.0,0.0,0.0,0.0,0.0,0.0,0.0,0.0,-2.6471,-2.6998,0.0,0.0,0.0,-2.7495,-2.7349,0.0,0.0,0.0,0.0,0.0,0.0,0.0,0.0,0.0,0.0,0.0,0.0,0.0,0.0,0.0,0.0,0.0,0.0,0.0,0.0,0.0,0.0,0.0,0.0,0.0,0.0,0.0,0.0,0.0,0.0,0.0,0.0,0.0,0.0,0.0,0.0,0.0,0.0,0.0,0.0,0.0,0.0,0.0,0.0,0.0,0.0,0.0,0.0,0.0,0.0,0.0,0.0,0.0,0.0,0.0,0.0,0.0,-1.5504,-1.6032,-1.6503,-1.6901,-1.7047,-1.7071,-1.699,-1.6771,0.0,0.0,0.0,0.0,0.0,0.0,0.0,0.0,0.0,0.0,0.0,0.0,0.0,0.0,0.0,0.0,0.0,0.0,0.0,0.0,0.0,0.0,0.0,0.0,0.0,0.0,0.0,-1.5137,0.0,0.0,0.0,0.0,0.0,0.0,0.0,0.0,0.0,0.0,0.0,0.0,0.0,0.0,-2.6427,-2.7247,-2.7682,-2.8089,0.0,0.0,-2.8096,-2.787,-2.7734,-2.7314,0.0,0.0,0.0,0.0,0.0,0.0,0.0,0.0,0.0,0.0,0.0,0.0,0.0,0.0,0.0,0.0,0.0,0.0,0.0,0.0,0.0,0.0,0.0,0.0,0.0,0.0,0.0,0.0,0.0,0.0,0.0,0.0,0.0,0.0,0.0,0.0,0.0,0.0,0.0,0.0,0.0,0.0,0.0,0.0,0.0,0.0,0.0,0.0,0.0,0.0,0.0,0.0,0.0,0.0,-1.4797,-1.5504,-1.6032,-1.6568,-1.7071,-1.7104,-1.7185,-1.7339,-1.7015,-1.6657,0.0,0.0,0.0,0.0,0.0,0.0,0.0,0.0,0.0,0.0,0.0,0.0,0.0,0.0,0.0,0.0,0.0,0.0,0.0,0.0,0.0,0.0,0.0,0.0,0.0,0.0,0.0,0.0,0.0,0.0,0.0,0.0,0.0,0.0,0.0,0.0,0.0,0.0,0.0,0.0,0.0,-2.6939,-2.8169,-2.8158,-2.8418,0.0,-2.8768,-2.8333,-2.8067,-2.7745,-2.7495,-2.733,0.0,0.0,0.0,0.0,0.0,0.0,0.0,0.0,0.0,0.0,0.0,0.0,0.0,0.0,0.0,0.0,0.0,0.0,0.0,0.0,0.0,0.0,0.0,0.0,0.0,0.0,0.0,0.0,0.0,0.0,0.0,0.0,0.0,0.0,0.0,0.0,0.0,0.0,0.0,0.0,0.0,0.0,0.0,0.0,0.0,0.0,0.0,0.0,0.0,0.0,0.0,0.0,0.0,-1.5398,-1.5991,-1.6527,-1.6958,-1.7274,-1.738,-1.7421,-1.7388,-1.7145,-1.6787,0.0,0.0,0.0,0.0,0.0,0.0,0.0,0.0,0.0,0.0,0.0,0.0,0.0,0.0,0.0,0.0,0.0,0.0,0.0,0.0,0.0,0.0,0.0,0.0,0.0,0.0,0.0,0.0,-1.8818,-1.9452,-1.9853,0.0,0.0,0.0,0.0,0.0,0.0,0.0,0.0,0.0,0.0,-2.7481,-2.8158,-2.8375,0.0,0.0,-2.8557,-2.8515,-2.8403,-2.8277,-2.8053,-2.7805,-2.7535,0.0,0.0,0.0,0.0,0.0,0.0,0.0,0.0,0.0,0.0,0.0,0.0,0.0,0.0,0.0,0.0,0.0,0.0,0.0,0.0,0.0,0.0,0.0,0.0,0.0,0.0,0.0,0.0,0.0,0.0,0.0,0.0,0.0,0.0,0.0,0.0,0.0,0.0,0.0,0.0,0.0,0.0,0.0,0.0,0.0,0.0,0.0,0.0,0.0,0.0,0.0,0.0,-1.5853,-1.6381,-1.686,-1.725,-1.7543,-1.7607,-1.7607,-1.7543,-1.7364,-1.7039,0.0,0.0,0.0,0.0,0.0,0.0,0.0,0.0,0.0,0.0,0.0,0.0,0.0,0.0,0.0,0.0,0.0,0.0,0.0,0.0,0.0,0.0,0.0,0.0,0.0,0.0,0.0,0.0,-1.98,-2.0535,-2.0735,0.0,0.0,0.0,0.0,0.0,0.0,0.0,0.0,0.0,0.0,-2.7961,-2.8443,-2.8557,-2.8743,-2.8758,-2.8772,-2.8606,-2.862,-2.8455,-2.844,-2.8233,0.0,0.0,0.0,0.0,0.0,0.0,0.0,0.0,0.0,0.0,0.0,0.0,0.0,0.0,0.0,0.0,0.0,0.0,0.0,0.0,0.0,0.0,0.0,0.0,0.0,0.0,0.0,-1.1191,0.0,0.0,-1.1183,0.0,0.0,0.0,0.0,0.0,0.0,0.0,0.0,0.0,0.0,0.0,0.0,0.0,0.0,0.0,0.0,0.0,0.0,0.0,0.0,0.0,0.0,-1.6048,-1.6568,-1.695,-1.7372,-1.7875,-1.7737,-1.7729,-1.7884,-1.7729,-1.7461,-1.7088,0.0,0.0,0.0,0.0,0.0,0.0,0.0,0.0,0.0,0.0,0.0,0.0,0.0,0.0,0.0,0.0,0.0,0.0,0.0,0.0,0.0,0.0,0.0,0.0,0.0,0.0,-2.0107,-2.1288,-2.1924,0.0,0.0,0.0,0.0,0.0,0.0,0.0,0.0,0.0,0.0,-2.7546,-2.8431,-2.9299,-2.9118,-2.9001,-2.9562,-2.9312,-2.8991,-2.8965,-2.8497,-2.8292,0.0,0.0,0.0,0.0,0.0,0.0,0.0,0.0,0.0,0.0,0.0,0.0,0.0,0.0,0.0,0.0,0.0,0.0,0.0,0.0,0.0,0.0,0.0,0.0,0.0,0.0,0.0,-1.2117,-1.2101,0.0,0.0,0.0,0.0,0.0,0.0,0.0,0.0,0.0,0.0,0.0,-1.4789,-1.4854,0.0,0.0,0.0,0.0,0.0,0.0,0.0,0.0,0.0,0.0,0.0,0.0,-1.6641,-1.6942,-1.7404,-1.7737,-1.7916,-1.7973,-1.7965,-1.7916,-1.7859,-1.7599,-1.712,0.0,0.0,0.0,0.0,0.0,0.0,0.0,0.0,0.0,0.0,0.0,0.0,0.0,0.0,0.0,0.0,0.0,0.0,0.0,0.0,0.0,0.0,0.0,0.0,0.0,-2.0259,0.0,0.0,0.0,0.0,0.0,0.0,0.0,0.0,0.0,0.0,0.0,-2.6779,-2.7838,-2.8316,-2.8717,-2.9212,-2.9118,-2.899,0.0,0.0,0.0,0.0,0.0,0.0,0.0,0.0,0.0,0.0,0.0,0.0,0.0,0.0,-2.7335,-2.65,-2.6339,-2.6442,-2.6764,0.0,0.0,0.0,0.0,0.0,0.0,0.0,0.0,0.0,0.0,0.0,0.0,0.0,0.0,-1.3214,-1.3197,-1.3035,0.0,0.0,0.0,0.0,0.0,0.0,0.0,0.0,-1.4944,-1.5268,-1.561,-1.5675,-1.5804,0.0,-1.604,-1.5829,0.0,0.0,0.0,0.0,0.0,0.0,0.0,0.0,-1.7088,-1.7388,-1.7794,-1.807,-1.8192,-1.8314,-1.8314,-1.82,-1.807,-1.7811,-1.7404,-1.699,-1.6568,0.0,0.0,0.0,0.0,0.0,0.0,0.0,0.0,0.0,0.0,0.0,0.0,0.0,0.0,0.0,0.0,0.0,0.0,0.0,0.0,0.0,0.0,0.0,-2.1369,0.0,0.0,0.0,0.0,0.0,0.0,0.0,0.0,0.0,-2.5445,-2.627,-2.7295,-2.8304,-2.8587,-2.8906,-2.9204,0.0,0.0,0.0,0.0,0.0,0.0,0.0,-2.9367,-2.9877,-2.981,-2.9902,-3.0375,-3.0054,-2.9603,-2.9281,0.0,0.0,-2.7847,-2.7656,-2.7759,-2.8081,-2.8403,-2.871,-2.9032,-2.9354,-2.9661,0.0,0.0,0.0,0.0,0.0,0.0,0.0,0.0,-1.4473,-1.4464,0.0,-1.4278,0.0,0.0,0.0,0.0,0.0,-1.4846,0.0,0.0,-1.5723,-1.5999,-1.6332,-1.6519,-1.6698,-1.6885,-1.7031,-1.7104,-1.7055,-1.6251,0.0,0.0,0.0,0.0,0.0,0.0,-1.7404,-1.7916,-1.8103,-1.8363,-1.8704,-1.872,-1.872,-1.8704,-1.8379,-1.8111,-1.7916,-1.7421,-1.7063,-1.6868,-1.6186,0.0,0.0,0.0,0.0,0.0,0.0,0.0,0.0,0.0,0.0,0.0,0.0,0.0,0.0,0.0,0.0,0.0,0.0,0.0,0.0,-2.1151,0.0,0.0,0.0,0.0,0.0,0.0,0.0,0.0,0.0,0.0,-2.6106,-2.7001,-2.7829,-2.815,0.0,0.0,0.0,0.0,-2.9593,-2.986,-2.9913,-2.99,-2.99,-2.9673,-2.9676,-3.0192,0.0,0.0,-3.0796,-3.0612,-3.0305,-2.9983,-2.9954,-2.972,-2.912,-2.8959,-2.9032,-2.9369,-2.969,-2.9998,-3.032,-3.0583,-3.089,-1.6024,0.0,0.0,0.0,0.0,-1.539,-1.5463,-1.5569,-1.5447,-1.539,-1.5374,-1.5212,0.0,0.0,0.0,0.0,0.0,0.0,-1.6048,-1.6276,-1.6462,-1.673,-1.708,-1.7128,-1.7242,-1.7413,-1.7461,-1.7486,-1.7486,-1.7364,-1.7104,-1.6738,0.0,0.0,0.0,0.0,-1.8014,-1.829,-1.8476,-1.8615,-1.8728,-1.8728,-1.8728,-1.8728,-1.8623,-1.842,-1.8111,-1.7949,-1.7672,-1.725,-1.6795,0.0,0.0,0.0,0.0,0.0,0.0,0.0,0.0,0.0,0.0,0.0,0.0,0.0,0.0,0.0,0.0,0.0,0.0,0.0,-2.0885,-2.2262,-2.3304,0.0,0.0,0.0,0.0,0.0,0.0,0.0,0.0,0.0,-2.7802,-2.7936,-2.8283,0.0,0.0,-2.9459,-2.9753,-2.9793,-2.982,-2.99,-2.9913,0.0,-2.9913,-2.9847,-3.0136,-3.0848,-3.1478,-3.1657,-3.1593,-3.1446,-3.1359,-3.1242,-3.1242,-3.1183,-3.0978,-3.0393,-3.0159,-3.0612,-3.0832,-3.1007,-3.13,-3.1461,-3.1549,-1.6998,-1.6503,-1.6365,-1.63,-1.63,-1.63,-1.6365,-1.6454,-1.6276,-1.6202,-1.6186,-1.5934,-1.5764,-1.5675,-1.5853,0.0,0.0,0.0,-1.6795,-1.6909,-1.708,-1.7323,-1.7591,-1.7664,-1.7794,-1.7957,-1.8038,-1.807,-1.807,-1.8184,-1.8079,-1.7762,0.0,0.0,-1.7965,-1.8176,-1.8412,-1.8655,-1.8842,-1.8931,-1.8939,-1.8939,-1.8907,-1.8834,-1.8826,-1.8688,-1.8403,-1.8322,-1.8103,-1.7713,-1.7356,-1.6917,0.0,0.0,0.0,0.0,0.0,0.0,0.0,0.0,0.0,0.0,0.0,-1.3761,-1.4672,0.0,0.0,0.0,-1.8923,-2.0542,-2.2113,-2.3212,0.0,0.0,0.0,0.0,0.0,0.0,0.0,-2.7562,-2.7869,-2.8283,-2.8871,-2.8885,-2.9045,-2.9593,-2.9753,-2.994,-3.0221,0.0,-3.0261,-3.0261,-3.0261,-3.0261,-3.0261,-3.0261,-3.0623,-3.1513,-3.2155,-3.2559,-3.2251,-3.2076,-3.1944,-3.1827,-3.1798,-3.1841,-3.1973,-3.1607,-3.1315,-3.1476,-3.1607,-3.1798,-3.212,-3.228,-3.2398,-1.7681,-1.7656,-1.7331,-1.7177,-1.7153,-1.7153,-1.7153,-1.7136,-1.6982,-1.6917,-1.6893,-1.656,-1.6405,-1.6422,-1.6576,0.0,-1.669,-1.7193,-1.7437,-1.7453,-1.7624,-1.7802,-1.7989,-1.8144,-1.8306,-1.8476,-1.8647,-1.8728,-1.872,-1.8753,-1.8769,-1.8761,-1.846,-1.8379,-1.8509,-1.8533,-1.8704,-1.9045,-1.9216,-1.9305,-1.9297,-1.9305,-1.9216,-1.9053,-1.9029,-1.8948,-1.8769,-1.859,-1.8412,-1.8217,-1.7875,-1.7453,-1.6966,0.0,0.0,0.0,0.0,0.0,0.0,0.0,0.0,0.0,0.0,0.0,0.0,0.0,0.0,-1.839,-2.0539,0.0,-2.2613,-2.4004,0.0,0.0,0.0,-2.6882,-2.7211,-2.7629,-2.7923,-2.8217,0.0,0.0,-2.9472,-2.978,-2.9967,-3.002,-3.0234,-3.0488,-3.0755,-3.0768,-3.0795,-3.0755,-3.0782,-3.0782,-3.0728,-3.0742,-3.1096,-3.2,-3.2756,-3.2994,-3.2895,-3.2632,-3.2295,-3.209,-3.1959,-3.2076,-3.2354,-3.2632,-3.2661,-3.209,-3.2222,-3.25,-3.2793,-3.3041,-3.329,-1.8046,-1.8038,-1.7957,-1.7762,-1.7518,-1.751,-1.751,-1.751,-1.7469,-1.7453,-1.7445,-1.7364,-1.7323,-1.7315,-1.7234,-1.7266,-1.7404,-1.7664,-1.7859,-1.7997,-1.8176,-1.8355,-1.8533,-1.8574,-1.8623,-1.8663,-1.8704,-1.8728,-1.8744,-1.9004,-1.9134,-1.9142,-1.9313,-1.9297,-1.9077,-1.9191,-1.937,-1.9597,-1.9638,-1.9662,-1.9662,-1.9662,-1.9646,-1.9597,-1.9459,-1.9305,-1.9134,-1.8956,-1.8777,-1.8598,-1.8249,-1.7932,-1.7681,-1.7323,0.0,0.0,0.0,0.0,0.0,0.0,0.0,0.0,0.0,-1.5291,-1.6259,0.0,-1.7832,0.0,-2.1381,-2.2876,-2.3378,-2.4317,0.0,0.0,-2.6575,-2.7251,-2.7774,-2.8366,-2.8845,-2.9125,-2.9232,-2.9499,-3.0087,-3.0207,-3.0421,-3.0835,-3.0782,-3.0715,-3.0782,-3.0795,-3.0795,-3.0808,-3.0808,-3.0795,-3.0808,-3.115,-3.1532,-3.2253,-3.2745,-3.3234,-3.351,-3.3451,-3.3363,-3.329,-3.3276,-3.3305,-3.3349,-3.3466,-3.3451,-3.3305,-3.3334,-3.3407,-3.3495,-3.3568,-3.3641,-1.842,-1.842,-1.842,-1.8306,-1.8111,-1.7949,-1.7875,-1.7875,-1.7794,-1.7762,-1.7762,-1.7672,-1.764,-1.7648,-1.7705,-1.7786,-1.7892,-1.816,-1.833,-1.8428,-1.8525,-1.8671,-1.8842,-1.8842,-1.8923,-1.9077,-1.9077,-1.9118,-1.9207,-1.9402,-1.9492,-1.95,-1.9776,-1.9817,-1.963,-1.963,-1.9687,-1.9792,-1.9792,-1.9833,-1.9906,-1.9833,-1.9792,-1.9784,-1.9687,-1.9597,-1.95,-1.9313,-1.9134,-1.8964,-1.8688,-1.842,-1.8168,-1.7892,-1.7534,0.0,0.0,0.0,0.0,0.0,0.0,0.0,0.0,0.0,0.0,0.0,-1.8291,-2.0176,-2.2029,-2.3246,-2.4155,-2.489,-2.5466,-2.6302,-2.6785,-2.722,-2.7753,-2.8347,-2.8987,-2.9277,-2.9601,-3.0047,-3.0488,-3.0675,-3.0849,-3.1183,-3.1196,-3.1183,-3.1183,-3.1183,-3.1183,-3.1183,-3.1183,-3.1183,-3.1183,-3.1556,-3.1915,-3.2274,-3.2547,-3.3016,-3.3582,-3.3466,-3.3379,-3.3547,-3.3729,-3.3729,-3.3729,-3.3861,-3.3949,-3.3963,-3.4066,-3.4095,-3.3978,-3.3949,-3.3978,-1.8728,-1.8728,-1.8728,-1.8728,-1.8704,-1.8379,-1.8241,-1.8233,-1.8087,-1.8022,-1.8005,-1.7851,-1.7778,-1.7802,-1.8103,-1.8249,-1.8265,-1.8606,-1.8769,-1.8793,-1.8818,-1.8915,-1.9086,-1.9086,-1.9248,-1.954,-1.9549,-1.963,-1.9792,-1.9817,-1.9825,-1.9833,-2.0011,-2.0109,-2.0125,-1.9946,-1.9857,-1.9857,-1.9857,-1.9938,-2.0093,-1.9938,-1.9857,-1.9857,-1.9833,-1.9825,-1.9817,-1.9646,-1.9475,-1.9329,-1.9126,-1.8874,-1.8574,-1.8355,-1.8095,0.0,-1.7583,0.0,0.0,0.0,0.0,0.0,0.0,0.0,0.0,-1.798,-1.9061,-2.1169,-2.2431,-2.3523,-2.4674,-2.5229,-2.5949,-2.668,-2.6893,-2.7271,-2.7637,-2.8397,-2.8834,-2.926,-2.9884,-3.0528,-3.0624,-3.1076,-3.1223,-3.1303,-3.1476,-3.161,-3.165,-3.1637,-3.1623,-3.1677,-3.1677,-3.1597,-3.161,-3.2016,-3.2191,-3.2367,-3.2564,-3.2785,-3.3358,-3.3329,-3.3326,-3.3692,-3.389,-3.389,-3.3861,-3.411,-3.4285,-3.4358,-3.4563,-3.4636,-3.4373,-3.4285,-3.4373,-1.8728,-1.8728,-1.8728,-1.8728,-1.872,-1.8647,-1.8623,-1.8615,-1.8582,-1.8574,-1.8574,-1.8533,-1.8517,-1.8525,-1.859,-1.8623,-1.8631,-1.8842,-1.9013,-1.9159,-1.9305,-1.9459,-1.963,-1.9638,-1.967,-1.9735,-1.9735,-1.976,-1.9792,-1.9946,-2.0011,-2.002,-2.019,-2.0344,-2.0483,0.0,0.0,0.0,-2.0223,-2.0239,-2.0271,-2.0239,-2.0214,-2.0214,-2.0085,0.0,-2.0011,-1.9833,-1.9727,-1.9678,-1.9378,0.0,0.0,0.0,0.0,0.0,0.0,0.0,0.0,0.0,0.0,0.0,-1.7364,-1.7604,-1.8585,-1.9785,-2.0821,-2.1838,-2.2768,-2.3596,-2.4554,-2.5305,-2.5924,-2.6304,-2.7245,-2.7938,-2.795,-2.8711,-2.9269,-2.932,-2.9754,-3.0267,-3.0542,-3.1022,-3.133,-3.1543,-3.1637,-3.1664,-3.169,-3.169,-3.1677,-3.1677,-3.1704,-3.169,-3.1677,-3.188,-3.2097,-3.2219,-3.238,-3.2716,-3.3093,-3.3628,-3.3744,-3.3931,-3.4318,-3.4519,-3.4519,-3.4578,-3.4695,-3.4929,-3.5031,-3.4973,-3.468,-3.4607,-3.4636,-1.8988,0.0,-1.8988,-1.8988,0.0,-1.8988,-1.8988,-1.8972,-1.8801,-1.8728,-1.8728,-1.8728,-1.8728,-1.8728,-1.8809,-1.885,-1.8866,-1.9126,-1.9297,-1.9394,-1.9565,-1.9703,-1.9792,-1.9792,-1.9841,-1.9922,-1.9922,-1.9971,-2.0052,-2.015,-2.0239,-2.0328,-2.0409,-2.0547,-2.071,-2.0629,-2.0499,-2.032,-2.032,-2.032,-2.032,-2.032,-2.032,-2.032,-2.0239,0.0,0.0,0.0,0.0,0.0,0.0,0.0,0.0,0.0,0.0,-1.872,-1.8541,-1.8371,-1.8192,-1.8095,-1.8038,-1.8046,-1.8305,-1.8719,-1.898,-2.0023,-2.1048,-2.178,-2.2686,-2.3603,-2.4452,-2.5307,-2.5984,-2.6676,-2.7176,-2.7618,-2.8001,-2.8483,-2.8992,-2.9105,-2.9505,-2.9994,-3.0277,-3.0681,-3.1191,-3.1442,-3.1699,-3.1931,-3.2038,-3.1851,-3.1704,-3.1864,-3.2024,-3.2104,-3.2104,-3.2104,-3.2283,-3.2475,-3.2475,-3.2667,-3.3242,-3.3434,-3.3625,-3.4007,-3.4402,-3.4783,-3.4783,-3.4973,-3.5222,-3.5353,-3.5397,-3.5368,-3.5192,-3.5163,-3.5178,-1.9321,-1.9354,-1.9354,-1.9354,-1.9354,-1.9354,-1.9354,-1.9329,0.0,0.0,0.0,-1.8818,-1.8834,-1.8874,-1.9013,-1.9094,-1.9142,-1.9427,-1.9573,-1.9613,-1.9768,-1.9849,-1.9882,-1.9882,-1.9963,-2.0109,-2.0109,-2.0182,-2.032,-2.0353,-2.0442,-2.0588,-2.0629,-2.071,-2.0848,-2.0889,-2.0742,-2.0426,-2.0385,-2.0353,-2.032,-2.032,-2.032,-2.032,-2.032,-2.032,-2.032,-2.0182,-2.0109,-2.0093,-1.993,-1.9768,-1.9613,-1.9451,-1.9272,-1.9086,-1.8915,-1.8736,-1.8558,-1.8517,-1.8501,-1.8501,-1.9021,-1.9415,-1.934,-1.9813,-2.064,-2.1742,-2.2623,-2.3395,-2.4341,-2.5064,-2.575,-2.67,-2.6923,-2.7146,-2.7697,-2.812,-2.8442,-2.8814,-2.9469,-2.9747,-2.9975,-3.0459,-3.0946,-3.1346,-3.1798,-3.2251,-3.2425,-3.2144,-3.1957,-3.2158,-3.2345,-3.2519,-3.2532,-3.2505,-3.2545,-3.2492,-3.2505,-3.274,-3.3116,-3.3311,-3.3519,-3.3865,-3.4295,-3.4653,-3.486,-3.5203,-3.5468,-3.5512,-3.5734,-3.5749,-3.5807,-3.5807,-3.5763,-1.9565,-1.9711,-1.9711,-1.9711,-1.9711,-1.9711,-1.9711,-1.9687,-1.9337,-1.9183,-1.9183,-1.9183,-1.9264,-1.9402,-1.9427,-1.9524,-1.9678,-1.9727,-1.9841,-1.9987,-2.002,-2.0109,-2.0247,-2.0247,-2.0263,-2.0279,-2.0288,-2.0296,-2.0336,-2.0483,-2.0572,-2.0612,-2.0742,-2.0832,-2.0864,-2.101,-2.0986,-2.0783,-2.0629,-2.0483,-2.0328,-2.032,-2.032,-2.032,-2.032,-2.032,-2.032,-2.0296,-2.0288,-2.0279,-2.0125,-2.0011,-1.9987,-1.9808,-1.963,-1.9451,-1.9281,-1.9102,-1.8923,-1.8769,-1.8688,-1.8688,-1.8712,-1.9055,-1.9906,-2.0485,-2.1262,-2.2218,-2.2825,-2.3422,-2.3999,-2.4974,-2.5595,-2.5772,-2.6318,-2.7013,-2.7416,-2.7783,-2.8128,-2.8584,-2.9344,-2.9854,-2.9916,-3.0493,-3.1022,-3.149,-3.1725,-3.1933,-3.2559,-3.2478,-3.2438,-3.2478,-3.2519,-3.2545,-3.2612,-3.2559,-3.2599,-3.2545,-3.2585,-3.2612,-3.2807,-3.3003,-3.3393,-3.3338,-3.3977,-3.4157,-3.4351,-3.4682,-3.5018,-3.5399,-3.5652,-3.6129,-3.6334,-3.6407,-3.6275,-1.9711,-1.9792,-1.9792,-1.9792,-1.9792,-1.9792,-1.9792,-1.9776,-1.9613,-1.9549,-1.9549,-1.9549,-1.9589,-1.9662,-1.9662,-1.9711,-1.9792,-1.989,-1.9979,-2.0068,-2.0166,-2.0247,-2.032,-2.032,-2.032,-2.032,-2.032,-2.0369,-2.0474,-2.0556,-2.0694,-2.088,-2.1059,-2.114,-2.1148,-2.1222,-2.1181,-2.1002,-2.0734,-2.0556,-2.0474,-2.0377,-2.032,-2.032,-2.032,-2.032,-2.032,-2.032,-2.032,-2.032,-2.0247,-2.0158,-2.0068,-1.9979,-1.9857,-1.9678,-1.9589,-1.9508,-1.9427,-1.9248,-1.911,-1.9029,-1.9013,-1.9403,-2.0368,-2.0552,-2.101,-2.1982,-2.2642,-2.3284,-2.3858,-2.4535,-2.5376,-2.5961,-2.6252,-2.6761,-2.7283,-2.7774,-2.8097,-2.8641,-2.9151,-2.9616,-2.9616,-3.0119,-3.0662,-3.1183,-3.1707,-3.2405,-3.3,-3.3013,-3.2946,-3.2839,-3.2906,-3.3013,-3.3013,-3.3013,-3.3013,-3.3013,-3.3013,-3.3013,-3.3013,-3.3211,-3.3395,-3.3408,-3.3803,-3.4211,-3.4197,-3.4605,-3.5054,-3.5519,-3.5788,-3.6071,-3.637,-3.6612,-3.6495,-1.9873,-1.9906,-1.9906,-1.9906,-1.9906,-1.9914,-1.9906,-1.9906,-1.9906,-1.9906,-1.9898,-1.9833,-1.9808,-1.9849,-1.9849,-1.9873,-1.9922,-2.0044,-2.0117,-2.0141,-2.0255,-2.032,-2.032,-2.032,-2.0344,-2.0377,-2.0385,-2.0474,-2.0637,-2.0694,-2.0872,-2.1173,-2.1319,-2.1384,-2.1384,-2.1384,-2.1319,-2.1173,-2.0872,-2.0702,-2.0653,-2.0515,-2.0442,-2.0442,-2.0442,-2.0418,-2.0385,-2.0385,-2.0361,-2.0328,-2.032,-2.0255,-2.0133,-2.0125,-2.0044,-1.9873,-1.9849,-1.9833,-1.9784,-1.9662,-1.9516,-1.9386,-1.9378,-1.9767,-2.0733,-2.0685,-2.0879,-2.1835,-2.2732,-2.3227,-2.3686,-2.4402,-2.5093,-2.5875,-2.607,-2.6342,-2.7097,-2.772,-2.8183,-2.859,-2.9057,-2.9303,-2.9501,-2.9958,-3.0292,-3.0889,-3.188,-3.2799,-3.3213,-3.3213,-3.3307,-3.32,-3.3267,-3.336,-3.3414,-3.3387,-3.3374,-3.3414,-3.3387,-3.336,-3.336,-3.3387,-3.34,-3.336,-3.3773,-3.3959,-3.3987,-3.4386,-3.477,-3.5182,-3.5366,-3.5791,-3.6202,-3.64,-3.6597,-1.9704,-2.0263,-2.0255,-2.0271,-2.0255,-2.0263,-2.0255,-2.0263,-2.0271,-2.0271,-2.0223,-1.993,-1.989,-2.0028,-2.0028,-2.0109,-2.0247,-2.0288,-2.0288,-2.0288,-2.0312,-2.032,-2.0328,-2.0328,-2.0409,-2.0556,-2.0572,-2.0661,-2.0832,-2.0994,-2.1173,-2.1343,-2.1376,-2.1384,-2.1384,-2.1384,-2.1376,-2.136,-2.1173,-2.0994,-2.084,-2.0815,-2.0799,-2.0807,-2.0799,-2.0726,-2.058,-2.0572,-2.0491,-2.0336,-2.0328,-2.032,-2.0296,-2.0296,-2.0223,-2.006,-2.0044,-1.9971,-1.9808,-1.9768,-1.9752,-1.9743,-1.9727,-2.0115,-2.1125,-2.13,-2.1613,-2.2472,-2.3038,-2.3502,-2.3698,-2.4327,-2.4717,-2.5304,-2.5514,-2.5976,-2.6772,-2.6981,-2.739,-2.8416,-2.8849,-2.9167,-2.9579,-2.9936,-3.0307,-3.0925,-3.1768,-3.2611,-3.2812,-3.3013,-3.34,-3.336,-3.34,-3.34,-3.3414,-3.3414,-3.3414,-3.3414,-3.3414,-3.3414,-3.3414,-3.3414,-3.3414,-3.3414,-3.3414,-3.3614,-3.3614,-3.3814,-3.4214,-3.4612,-3.4812,-3.521,-3.5805,-3.6202,-3.6414,-1.9207,-1.9903,-1.9903,-2.0111,-2.032,-2.032,-2.032,-2.032,-2.032,-2.032,-2.0304,-2.0166,-2.0141,-2.0214,-2.0214,-2.0255,-2.032,-2.032,-2.032,-2.032,-2.032,-2.0377,-2.0474,-2.0483,-2.058,-2.0734,-2.0751,-2.084,-2.1019,-2.1197,-2.1311,-2.1376,-2.1384,-2.1384,-2.1384,-2.1384,-2.1384,-2.1384,-2.1311,-2.1246,-2.1157,-2.0962,-2.0848,-2.0848,-2.0848,-2.0824,-2.0759,-2.0751,-2.0669,-2.0499,-2.0483,-2.0434,-2.0328,-2.032,-2.0288,-2.0223,-2.0214,-2.0141,-1.9971,-1.9955,-1.9906,-1.98,-1.9792,-2.019,-2.079,-2.1203,-2.181,-2.2462,-2.2973,-2.3327,-2.3815,-2.4016,-2.4418,-2.4829,-2.5229,-2.5682,-2.6211,-2.6835,-2.7493,-2.8042,-2.856,-2.9034,-2.9439,-2.9939,-3.0416,-3.0809,-3.1416,-3.1806,-3.241,-3.2812,-3.3013,-3.3414,-3.3414,-3.3414,-3.3414,-3.3414,-3.3414,-3.3414,-3.3414,-3.3414,-3.3414,-3.3414,-3.3414,-3.3414,-3.3414,-3.3414,-3.3414,-3.3614,-3.3814,-3.4014,-3.4612,-3.521,-3.5607,-3.6004,-3.6202,-1.8649,-1.9276,-1.9493,-1.9911,-2.032,-2.032,-2.032,-2.032,-2.032,-2.032,-2.032,-2.032,-2.032,-2.032,-2.032,-2.032,-2.0328,-2.0369,-2.0393,-2.0401,-2.0442,-2.0539,-2.0661,-2.0669,-2.0759,-2.0905,-2.0929,-2.1027,-2.1197,-2.1319,-2.1384,-2.1384,-2.1384,-2.1384,-2.1384,-2.1384,-2.1384,-2.1384,-2.1384,-2.1384,-2.1343,-2.1132,-2.1002,-2.1002,-2.1002,-2.0978,-2.0929,-2.0929,-2.0848,-2.0677,-2.0669,-2.0588,-2.0409,-2.0393,-2.0377,-2.0328,-2.032,-2.0271,-2.0141,-2.0133,-2.0076,-1.9955,-1.9938,-2.0135,-2.0748,-2.1156,-2.1625,-2.2551,-2.2868,-2.319,-2.3586,-2.3789,-2.3991,-2.4598,-2.5012,-2.5286,-2.5836,-2.6681,-2.7152,-2.7725,-2.8133,-2.8575,-2.9389,-2.9796,-3.0416,-3.0619,-3.0809,-3.1214,-3.2209,-3.241,-3.2812,-3.3213,-3.3414,-3.3414,-3.3414,-3.3414,-3.3414,-3.3414,-3.3414,-3.3414,-3.3414,-3.3414,-3.3414,-3.3414,-3.3414,-3.3414,-3.3414,-3.3414,-3.3414,-3.4014,-3.4413,-3.4812,-3.521,-3.5408,-3.5805,-1.823,-1.8641,-1.9276,-1.9911,-2.032,-2.032,-2.032,-2.032,-2.032,-2.032,-2.0336,-2.0336,-2.0328,-2.0344,-2.0361,-2.0328,-2.0353,-2.0507,-2.0588,-2.0596,-2.0742,-2.0832,-2.084,-2.0848,-2.0937,-2.1108,-2.1116,-2.1197,-2.1352,-2.1376,-2.1384,-2.1384,-2.1384,-2.1384,-2.1384,-2.1384,-2.1384,-2.1384,-2.1384,-2.1384,-2.1376,-2.136,-2.1335,-2.1327,-2.1352,-2.1262,-2.114,-2.1116,-2.1035,-2.0848,-2.084,-2.0767,-2.0604,-2.058,-2.0499,-2.0353,-2.032,-2.032,-2.0304,-2.0296,-2.0288,-2.0279,-2.0247,-2.0488,-2.087,-2.1069,-2.1708,-2.2572,-2.2743,-2.294,-2.3559,-2.3531,-2.3756,-2.4383,-2.4412,-2.5039,-2.5882,-2.6066,-2.6713,-2.7553,-2.7758,-2.8371,-2.9186,-2.9796,-3.0214,-3.0416,-3.0619,-3.1214,-3.1819,-3.2209,-3.2812,-3.3213,-3.3414,-3.3414,-3.3414,-3.3414,-3.3414,-3.3414,-3.3414,-3.3414,-3.3414,-3.3414,-3.3414,-3.3414,-3.3414,-3.3414,-3.3414,-3.3414,-3.3414,-3.3614,-3.4,-3.4214,-3.4612,-3.4812,-3.5266,-1.7811,-1.8641,-1.9276,-1.9911,-2.032,-2.032,-2.032,-2.032,-2.032,-2.0393,-2.0483,-2.0499,-2.0556,-2.0661,-2.0661,-2.0604,-2.0515,-2.0677,-2.0759,-2.0767,-2.0824,-2.0921,-2.1027,-2.1027,-2.1124,-2.127,-2.1287,-2.1327,-2.1376,-2.1384,-2.1384,-2.1384,-2.1384,-2.1384,-2.1384,-2.1384,-2.1384,-2.1384,-2.1384,-2.1384,-2.1384,-2.1384,-2.1384,-2.1384,-2.1384,-2.1352,-2.1295,-2.1295,-2.1213,-2.1035,-2.1027,-2.0945,-2.0775,-2.0653,-2.0572,-2.0491,-2.0385,-2.032,-2.032,-2.032,-2.032,-2.032,-2.032,-2.032,-2.0737,-2.0945,-2.1362,-2.1778,-2.2392,-2.2806,-2.3014,-2.3428,-2.3635,-2.3841,-2.4254,-2.4667,-2.5089,-2.5707,-2.6334,-2.6734,-2.7349,-2.8167,-2.8779,-2.9401,-2.9808,-3.0214,-3.0416,-3.0809,-3.1214,-3.1819,-3.2209,-3.2812,-3.3213,-3.3414,-3.3414,-3.3414,-3.3414,-3.3414,-3.3414,-3.3414,-3.3414,-3.3414,-3.3414,-3.3414,-3.3414,-3.3414,-3.3414,-3.3414,-3.3414,-3.3454,-3.3854,-3.3895,-3.4214,-3.4606,-3.509,-1.7608,-1.8432,-1.9067,-1.9516,-2.0192,-2.0409,-2.0442,-2.0483,-2.0491,-2.0564,-2.0669,-2.0677,-2.0751,-2.0856,-2.0913,-2.088,-2.0783,-2.0889,-2.0945,-2.0954,-2.1002,-2.1092,-2.1189,-2.1213,-2.127,-2.1368,-2.1384,-2.1384,-2.1384,-2.1384,-2.1384,-2.1384,-2.1384,-2.1384,-2.1384,-2.1384,-2.1384,-2.1384,-2.1384,-2.1384,-2.1384,-2.1384,-2.1384,-2.1384,-2.1384,-2.1384,-2.1384,-2.1384,-2.1335,-2.123,-2.1205,-2.1124,-2.0954,-2.0775,-2.0677,-2.0661,-2.0564,-2.0466,-2.0418,-2.0409,-2.0385,-2.0328,-2.032,-2.032,-2.032,-2.0737,-2.0945,-2.1353,-2.1769,-2.2392,-2.2806,-2.3221,-2.3428,-2.3635,-2.4048,-2.4264,-2.4471,-2.5089,-2.5707,-2.6324,-2.7144,-2.7962,-2.8371,-2.8982,-2.9593,-3.0011,-3.0011,-3.0416,-3.1012,-3.1416,-3.2021,-3.2624,-3.3013,-3.3414,-3.3414,-3.3414,-3.3414,-3.3414,-3.3414,-3.3414,-3.3414,-3.3414,-3.3414,-3.3414,-3.3414,-3.3414,-3.3414,-3.3414,-3.3467,-3.3534,-3.3627,-3.3896,-3.4152,-3.4301,-3.4788,-1.7405,-1.7825,-1.8439,-1.9181,-1.9946,-2.0385,-2.0694,-2.0799,-2.0815,-2.0824,-2.0848,-2.0856,-2.088,-2.0913,-2.1067,-2.1124,-2.1108,-2.1124,-2.1124,-2.114,-2.1278,-2.1343,-2.136,-2.1352,-2.136,-2.1384,-2.1384,-2.1384,-2.1384,-2.1384,-2.1384,-2.1384,-2.1384,-2.1384,-2.1384,-2.1384,-2.1384,-2.1384,-2.1384,-2.1384,-2.1384,-2.1384,-2.1384,-2.1384,-2.1384,-2.1384,-2.1384,-2.1384,-2.1376,-2.1368,-2.1368,-2.1295,-2.1132,-2.0954,-2.0856,-2.0856,-2.084,-2.0759,-2.0621,-2.0596,-2.0523,-2.0418,-2.0353,-2.0385,-2.0393,-2.0377,-2.0586,-2.1012,-2.1421,-2.1604,-2.2445,-2.287,-2.306,-2.3428,-2.3635,-2.3841,-2.4264,-2.4471,-2.4883,-2.5913,-2.6939,-2.7758,-2.7962,-2.8575,-2.9389,-2.9593,-3.0011,-3.0416,-3.0822,-3.1416,-3.2021,-3.241,-3.2812,-3.3213,-3.3213,-3.3414,-3.3414,-3.3414,-3.3414,-3.3414,-3.3414,-3.3414,-3.3414,-3.3414,-3.3414,-3.3414,-3.3561,-3.3574,-3.3694,-3.3774,-3.3841,-3.3935,-3.4259,-3.4367,-3.4679,-1.7339,-1.7989,-1.8301,-1.9006,-1.9913,-2.0135,-2.038,-2.0848,-2.0848,-2.0921,-2.1027,-2.1043,-2.1108,-2.1205,-2.1287,-2.1303,-2.1303,-2.1303,-2.1303,-2.1311,-2.136,-2.1384,-2.1384,-2.1384,-2.1384,-2.1384,-2.1384,-2.1384,-2.1384,-2.1384,-2.1384,-2.1384,-2.1384,-2.1384,-2.1384,-2.1384,-2.1384,-2.1384,-2.1384,-2.1384,-2.1384,-2.1384,-2.1384,-2.1384,-2.1384,-2.1384,-2.1384,-2.1384,-2.1384,-2.1384,-2.1384,-2.136,-2.1278,-2.114,-2.1051,-2.1027,-2.0921,-2.084,-2.0791,-2.0775,-2.0751,-2.0694,-2.0677,-2.0686,-2.0686,-2.0677,-2.089,-2.1102,-2.1322,-2.1737,-2.2161,-2.2795,-2.3308,-2.3456,-2.3635,-2.3653,-2.3879,-2.4274,-2.4883,-2.5913,-2.6324,-2.6939,-2.7758,-2.8575,-2.8982,-2.9389,-2.9808,-3.0214,-3.0416,-3.1012,-3.1416,-3.2021,-3.241,-3.3013,-3.3213,-3.3414,-3.3414,-3.3414,-3.3414,-3.3414,-3.3414,-3.3414,-3.3414,-3.3427,-3.3427,-3.3507,-3.3641,-3.3788,-3.3908,-3.4055,-3.4162,-3.4242,-3.4322,-3.4429,-3.477,-1.7277,-1.7718,-1.8238,-1.874,-1.9446,-1.9877,-2.0347,-2.0827,-2.1051,-2.1116,-2.1205,-2.1222,-2.1278,-2.1368,-2.1384,-2.1384,-2.1384,-2.1384,-2.1384,-2.1384,-2.1384,-2.1384,-2.1384,-2.1384,-2.1384,-2.1384,-2.1384,-2.1384,-2.1384,-2.1384,-2.1384,-2.1384,-2.1384,-2.1384,-2.1384,-2.1384,-2.1384,-2.1384,-2.1384,-2.1384,-2.1384,-2.1384,-2.1384,-2.1384,-2.1384,-2.1384,-2.1384,-2.1384,-2.1384,-2.1384,-2.1384,-2.1384,-2.1376,-2.1278,-2.1222,-2.1205,-2.1124,-2.1035,-2.097,-2.0962,-2.0921,-2.0872,-2.0848,-2.0848,-2.0848,-2.0848,-2.0848,-2.1062,-2.1267,-2.1489,-2.1695,-2.2335,-2.2857,-2.349,-2.3671,-2.3871,-2.3861,-2.4211,-2.5013,-2.5624,-2.5975,-2.655,-2.7349,-2.7962,-2.8586,-2.8982,-2.9593,-3.0011,-3.0214,-3.0607,-3.1214,-3.1819,-3.2222,-3.2812,-3.3213,-3.3414,-3.3414,-3.3414,-3.3414,-3.3414,-3.3414,-3.3414,-3.3414,-3.348,-3.3507,-3.3654,-3.3801,-3.3988,-3.4122,-3.4295,-3.4496,-3.4589,-3.4683,-3.4803,-3.4923,-1.6779,-1.7433,-1.8086,-1.8401,-1.874,-1.9619,-2.035,-2.0694,-2.114,-2.1352,-2.1368,-2.136,-2.1368,-2.1376,-2.1384,-2.1384,-2.1384,-2.1384,-2.1384,-2.1384,-2.1384,-2.1384,-2.1384,-2.1384,-2.1384,-2.1384,-2.1384,-2.1384,-2.1384,-2.1384,-2.1384,-2.1384,-2.1384,-2.1384,-2.1384,-2.1384,-2.1384,-2.1384,-2.1384,-2.1384,-2.1384,-2.1384,-2.1384,-2.1384,-2.1384,-2.1384,-2.1384,-2.1384,-2.1384,-2.1384,-2.1384,-2.1384,-2.1384,-2.1384,-2.1368,-2.136,-2.1376,-2.1278,-2.1173,-2.114,-2.1083,-2.0962,-2.0937,-2.088,-2.0929,-2.0954,-2.0954,-2.0945,-2.0937,-2.1128,-2.1565,-2.1779,-2.2396,-2.3232,-2.4008,-2.4202,-2.423,-2.45,-2.5032,-2.54,-2.5882,-2.6376,-2.6841,-2.7436,-2.8018,-2.8632,-2.9232,-2.9604,-3.0214,-3.0619,-3.1214,-3.1617,-3.2222,-3.2611,-3.3213,-3.3414,-3.3414,-3.3414,-3.3414,-3.3414,-3.3454,-3.348,-3.3521,-3.3587,-3.3708,-3.3855,-3.4028,-3.4242,-3.4456,-3.467,-3.483,-3.495,-3.5017,-3.507,-3.5097,-1.6711,-1.6942,-1.7697,-1.8211,-1.8686,-1.9565,-2.0027,-2.0505,-2.1164,-2.1384,-2.1384,-2.1384,-2.1384,-2.1384,-2.1384,-2.1384,-2.1384,-2.1384,-2.1384,-2.1384,-2.1384,-2.1384,-2.1384,-2.1384,-2.1384,-2.1384,-2.1384,-2.1384,-2.1384,-2.1384,-2.1384,-2.1384,-2.1384,-2.1384,-2.1384,-2.1384,-2.1384,-2.1384,-2.1384,-2.1384,-2.1384,-2.1384,-2.1384,-2.1384,-2.1384,-2.1384,-2.1384,-2.1384,-2.1384,-2.1384,-2.1384,-2.1384,-2.1384,-2.1384,-2.1384,-2.1384,-2.1376,-2.1368,-2.1327,-2.1303,-2.1278,-2.1262,-2.1205,-2.1246,-2.1246,-2.1238,-2.1246,-2.1246,-2.1246,-2.123,-2.1448,-2.1883,-2.2535,-2.3593,-2.4038,-2.4296,-2.4277,-2.4432,-2.4606,-2.5229,-2.5811,-2.619,-2.6766,-2.7502,-2.8231,-2.8815,-2.9121,-2.9604,-3.0023,-3.0416,-3.0809,-3.1416,-3.2021,-3.2611,-3.3013,-3.3213,-3.3414,-3.3414,-3.3414,-3.344,-3.3521,-3.3627,-3.3708,-3.3801,-3.4028,-3.4202,-3.4416,-3.4629,-3.4843,-3.499,-3.5057,-3.5097,-3.5124,-3.5164,-3.5164,-1.642,-1.6866,-1.7391,-1.7867,-1.853,-1.9192,-1.9853,-2.0285,-2.0945,-2.1384,-2.1384,-2.1384,-2.1384,-2.1384,-2.1384,-2.1384,-2.1384,-2.1384,-2.1384,-2.1384,-2.1384,-2.1384,-2.1384,-2.1384,-2.1384,-2.1384,-2.1384,-2.1384,-2.1384,-2.1384,-2.1384,-2.1384,-2.1384,-2.1384,-2.1384,-2.1384,-2.1384,-2.1384,-2.1384,-2.1384,-2.1384,-2.1384,-2.1384,-2.1384,-2.1384,-2.1384,-2.1384,-2.1384,-2.1384,-2.1384,-2.1384,-2.1384,-2.1384,-2.1384,-2.1384,-2.1384,-2.1384,-2.1384,-2.1384,-2.1384,-2.1384,-2.1376,-2.1384,-2.1384,-2.1376,-2.1384,-2.1384,-2.1368,-2.1384,-2.1384,-2.1603,-2.2042,-2.2699,-2.3529,-2.4017,-2.4308,-2.4523,-2.4457,-2.4623,-2.5234,-2.5599,-2.6174,-2.6818,-2.7521,-2.8235,-2.8745,-2.9043,-2.953,-3.0047,-3.0226,-3.0619,-3.1416,-3.2021,-3.241,-3.3013,-3.3414,-3.3454,-3.3454,-3.3614,-3.3601,-3.3721,-3.3841,-3.3921,-3.4082,-3.4336,-3.4549,-3.471,-3.487,-3.5017,-3.5124,-3.5191,-3.5204,-3.5204,-3.5204,-3.5204,-1.5868,-1.6982,-1.6982,-1.7424,-1.8081,-1.8964,-1.9632,-1.9853,-2.0725,-2.1384,-2.1384,-2.1384,-2.1384,-2.1384,-2.1384,-2.1384,-2.1384,-2.1384,-2.1384,-2.1384,-2.1384,-2.1384,-2.1384,-2.1384,-2.1384,-2.1384,-2.1384,-2.1384,-2.1384,-2.1384,-2.1384,-2.1384,-2.1384,-2.1384,-2.1384,-2.1384,-2.1384,-2.1384,-2.1384,-2.1384,-2.1384,-2.1384,-2.1384,-2.1384,-2.1384,-2.1384,-2.1384,-2.1384,-2.1384,-2.1384,-2.1384,-2.1384,-2.1384,-2.1384,-2.1384,-2.1384,-2.1384,-2.1384,-2.1384,-2.1384,-2.1384,-2.1384,-2.1384,-2.1384,-2.1384,-2.1384,-2.1384,-2.1384,-2.1384,-2.1384,-2.1384,-2.2042,-2.248,-2.3128,-2.3765,-2.4219,-2.4636,-2.4721,-2.4833,-2.5253,-2.5729,-2.6276,-2.6669,-2.7271,-2.8037,-2.904,-2.9285,-2.9524,-3.0022,-3.0358,-3.0895,-3.1617,-3.2021,-3.2222,-3.2812,-3.3414,-3.3467,-3.3534,-3.3828,-3.3935,-3.4055,-3.4148,-3.4202,-3.4349,-3.4616,-3.4763,-3.4843,-3.5004,-3.5137,-3.5177,-3.5191,-3.5204,-3.5204,-3.5204,-3.5204,-1.5646,-1.6317,-1.676,-1.7424,-1.786,-1.853,-1.9192,-1.9632,-2.0285,-2.0945,-2.1384,-2.1384,-2.1384,-2.1384,-2.1384,-2.1384,-2.1384,-2.1384,-2.1384,-2.1384,-2.1384,-2.1384,-2.1384,-2.1384,-2.1384,-2.1384,-2.1384,-2.1384,-2.1384,-2.1384,-2.1384,-2.1384,-2.1384,-2.1384,-2.1384,-2.1384,-2.1384,-2.1384,-2.1384,-2.1384,-2.1384,-2.1384,-2.1384,-2.1384,-2.1384,-2.1384,-2.1384,-2.1384,-2.1384,-2.1384,-2.1384,-2.1384,-2.1384,-2.1384,-2.1384,-2.1384,-2.1384,-2.1384,-2.1384,-2.1384,-2.1384,-2.1384,-2.1384,-2.1384,-2.1384,-2.1384,-2.1384,-2.1384,-2.1384,-2.1384,-2.1384,-2.2042,-2.248,-2.3137,-2.3574,-2.4228,-2.4655,-2.4844,-2.4806,-2.5221,-2.5851,-2.6478,-2.6673,-2.7579,-2.8333,-2.9112,-2.9561,-2.9769,-3.0042,-3.0539,-3.1068,-3.1807,-3.1997,-3.2428,-3.3237,-3.3654,-3.3708,-3.3801,-3.4042,-3.4242,-3.4362,-3.4509,-3.4563,-3.471,-3.491,-3.5004,-3.5017,-3.507,-3.5191,-3.5191,-3.5204,-3.5204,-3.5204,-3.5204,-3.5204,-1.5202,-1.5646,-1.6317,-1.6982,-1.7646,-1.8309,-1.8971,-1.9632,-2.0285,-2.0725,-2.1384,-2.1384,-2.1384,-2.1384,-2.1384,-2.1384,-2.1384,-2.1384,-2.1384,-2.1384,-2.1384,-2.1384,-2.1384,-2.1384,-2.1384,-2.1384,-2.1384,-2.1384,-2.1384,-2.1384,-2.1384,-2.1384,-2.1384,-2.1384,-2.1384,-2.1384,-2.1384,-2.1384,-2.1384,-2.1384,-2.1384,-2.1384,-2.1384,-2.1384,-2.1384,-2.1384,-2.1384,-2.1384,-2.1384,-2.1384,-2.1384,-2.1384,-2.1384,-2.1384,-2.1384,-2.1384,-2.1384,-2.1384,-2.1384,-2.1384,-2.1384,-2.1384,-2.1384,-2.1384,-2.1384,-2.1384,-2.1384,-2.1384,-2.1384,-2.1384,-2.1384,-2.1603,-2.2261,-2.2918,-2.3355,-2.401,-2.4664,-2.4882,-2.4882,-2.51,-2.5959,-2.6393,-2.7002,-2.7555,-2.8518,-2.9459,-2.9625,-2.9839,-3.0474,-3.0781,-3.1363,-3.1918,-3.2072,-3.2673,-3.3501,-3.3935,-3.4002,-3.4135,-3.4336,-3.4496,-3.4616,-3.4776,-3.495,-3.5044,-3.5084,-3.5124,-3.5151,-3.5191,-3.5204,-3.5204,-3.5204,-3.5204,-3.5204,-3.5204,-3.5204,-1.4758,-1.5197,-1.5868,-1.6539,-1.721,-1.8088,-1.8971,-1.9412,-2.0073,-2.0725,-2.1164,-2.1384,-2.1384,-2.1384,-2.1384,-2.1384,-2.1384,-2.1384,-2.1384,-2.1384,-2.1384,-2.1384,-2.1384,-2.1384,-2.1384,-2.1384,-2.1384,-2.1384,-2.1384,-2.1384,-2.1384,-2.1384,-2.1384,-2.1384,-2.1384,-2.1384,-2.1384,-2.1384,-2.1384,-2.1384,-2.1384,-2.1384,-2.1384,-2.1384,-2.1384,-2.1384,-2.1384,-2.1384,-2.1384,-2.1384,-2.1384,-2.1384,-2.1384,-2.1384,-2.1384,-2.1384,-2.1384,-2.1384,-2.1384,-2.1384,-2.1384,-2.1384,-2.1384,-2.1384,-2.1384,-2.1384,-2.1384,-2.1384,-2.1384,-2.1384,-2.1384,-2.1384,-2.2042,-2.269,-2.3128,-2.3565,-2.4446,-2.4882,-2.4882,-2.51,-2.5762,-2.6413,-2.7063,-2.766,-2.8639,-2.9405,-2.9573,-2.9906,-3.0551,-3.1243,-3.1622,-3.1925,-3.2262,-3.2853,-3.3686,-3.4269,-3.4336,-3.4429,-3.4629,-3.475,-3.4857,-3.4963,-3.5097,-3.5137,-3.5177,-3.5204,-3.5204,-3.5204,-3.5204,-3.5204,-3.5204,-3.5204,-3.5204,-3.5204,-3.5204,-1.4536,-1.5197,-1.5868,-1.6539,-1.6982,-1.7646,-1.8309,-1.8978,-1.9632,-2.0065,-2.0725,-2.1164,-2.1384,-2.1384,-2.1384,-2.1384,-2.1384,-2.1384,-2.1384,-2.1384,-2.1384,-2.1384,-2.1384,-2.1384,-2.1384,-2.1384,-2.1384,-2.1384,-2.1384,-2.1384,-2.1384,-2.1384,-2.1384,-2.1384,-2.1384,-2.1384,-2.1384,-2.1384,-2.1384,-2.1384,-2.1384,-2.1384,-2.1384,-2.1384,-2.1384,-2.1384,-2.1384,-2.1384,-2.1384,-2.1384,-2.1384,-2.1384,-2.1384,-2.1384,-2.1384,-2.1384,-2.1384,-2.1384,-2.1384,-2.1384,-2.1384,-2.1384,-2.1384,-2.1384,-2.1384,-2.1384,-2.1384,-2.1384,-2.1384,-2.1384,-2.1384,-2.1384,-2.2042,-2.269,-2.3128,-2.3574,-2.4446,-2.4882,-2.4882,-2.4882,-2.5762,-2.663,-2.7063,-2.7496,-2.8511,-2.9315,-2.9731,-3.0067,-3.0552,-3.1078,-3.1659,-3.1941,-3.2414,-3.324,-3.4063,-3.4523,-3.4683,-3.4723,-3.487,-3.499,-3.5084,-3.5124,-3.5191,-3.5191,-3.5204,-3.5204,-3.5204,-3.5204,-3.5204,-3.5204,-3.5204,-3.5204,-3.5204,-3.5204,-3.5204,-1.4097,-1.4758,-1.5646,-1.6311,-1.676,-1.7646,-1.8309,-1.875,-1.9412,-1.9853,-2.0505,-2.1164,-2.1384,-2.1384,-2.1384,-2.1384,-2.1384,-2.1384,-2.1384,-2.1384,-2.1384,-2.1384,-2.1384,-2.1384,-2.1384,-2.1384,-2.1384,-2.1384,-2.1384,-2.1384,-2.1384,-2.1384,-2.1384,-2.1384,-2.1384,-2.1384,-2.1384,-2.1384,-2.1384,-2.1384,-2.1384,-2.1384,-2.1384,-2.1384,-2.1384,-2.1384,-2.1384,-2.1384,-2.1384,-2.1384,-2.1384,-2.1384,-2.1384,-2.1384,-2.1384,-2.1384,-2.1384,-2.1384,-2.1384,-2.1384,-2.1384,-2.1384,-2.1384,-2.1384,-2.1384,-2.1384,-2.1384,-2.1384,-2.1384,-2.1384,-2.1384,-2.1384,-2.2042,-2.269,-2.3128,-2.3792,-2.4446,-2.4882,-2.4882,-2.51,-2.5979,-2.663,-2.6847,-2.7496,-2.835,-2.9211,-2.9653,-3.0205,-3.0516,-3.1106,-3.168,-3.2263,-3.2767,-3.3603,-3.4435,-3.4763,-3.4923,-3.4977,-3.503,-3.5151,-3.5204,-3.5191,-3.5191,-3.5204,-3.5204,-3.5204,-3.5204,-3.5204,-3.5204,-3.5204,-3.5204,-3.5204,-3.5204,-3.5204,-3.5204,-1.3652,-1.432,-1.5424,-1.5868,-1.6311,-1.7203,-1.8088,-1.853,-1.9192,-1.9632,-2.0293,-2.0945,-2.1164,-2.1384,-2.1384,-2.1384,-2.1384,-2.1384,-2.1384,-2.1384,-2.1384,-2.1384,-2.1384,-2.1384,-2.1384,-2.1384,-2.1384,-2.1384,-2.1384,-2.1384,-2.1384,-2.1384,-2.1384,-2.1384,-2.1384,-2.1384,-2.1384,-2.1384,-2.1384,-2.1384,-2.1384,-2.1384,-2.1384,-2.1384,-2.1384,-2.1384,-2.1384,-2.1384,-2.1384,-2.1384,-2.1384,-2.1384,-2.1384,-2.1384,-2.1384,-2.1384,-2.1384,-2.1384,-2.1384,-2.1384,-2.1384,-2.1384,-2.1384,-2.1384,-2.1384,-2.1384,-2.1384,-2.1384,-2.1384,-2.1384,-2.1384,-2.1384,-2.2042,-2.269,-2.3128,-2.3574,-2.4446,-2.4882,-2.4882,-2.5317,-2.5979,-2.6413,-2.663,-2.7496,-2.8576,-2.9007,-2.9438,-3.0082,-3.0419,-3.1296,-3.1911,-3.2786,-3.3396,-3.4228,-3.4847,-3.5017,-3.5097,-3.511,-3.5124,-3.5177,-3.5204,-3.5204,-3.5204,-3.5204,-3.5204,-3.5204,-3.5204,-3.5204,-3.5204,-3.5204,-3.5204,-3.5204,-3.5204,-3.5204,-3.5204,-1.3652,-1.432,-1.498,-1.5646,-1.6089,-1.676,-1.7424,-1.8088,-1.853,-1.9192,-1.9853,-2.0285,-2.0945,-2.1384,-2.1384,-2.1384,-2.1384,-2.1384,-2.1384,-2.1384,-2.1384,-2.1384,-2.1384,-2.1384,-2.1384,-2.1384,-2.1384,-2.1384,-2.1384,-2.1384,-2.1384,-2.1384,-2.1384,-2.1384,-2.1384,-2.1384,-2.1384,-2.1384,-2.1384,-2.1384,-2.1384,-2.1384,-2.1384,-2.1384,-2.1384,-2.1384,-2.1384,-2.1384,-2.1384,-2.1384,-2.1384,-2.1384,-2.1384,-2.1384,-2.1384,-2.1384,-2.1384,-2.1384,-2.1384,-2.1384,-2.1384,-2.1384,-2.1384,-2.1384,-2.1384,-2.1384,-2.1384,-2.1384,-2.1384,-2.1384,-2.1384,-2.1384,-2.2042,-2.269,-2.3128,-2.3792,-2.4664,-2.4882,-2.4882,-2.5317,-2.5979,-2.6413,-2.663,-2.7496,-2.836,-2.8792,-2.9222,-2.9868,-3.0511,-3.138,-3.2234,-3.3073,-3.371,-3.4557,-3.498,-3.5204,-3.5204,-3.5204,-3.5204,-3.5204,-3.5204,-3.5204,-3.5204,-3.5204,-3.5204,-3.5204,-3.5204,-3.5204,-3.5204,-3.5204,-3.5204,-3.5204,-3.5204,-3.5204,-3.5204,-1.3202,-1.387,-1.4758,-1.564,-1.6089,-1.676,-1.7424,-1.7867,-1.853,-1.8971,-1.9632,-2.0285,-2.0725,-2.1384,-2.1384,-2.1384,-2.1384,-2.1384,-2.1384,-2.1384,-2.1384,-2.1384,-2.1384,-2.1384,-2.1384,-2.1384,-2.1384,-2.1384,-2.1384,-2.1384,-2.1384,-2.1384,-2.1384,-2.1384,-2.1384,-2.1384,-2.1384,-2.1384,-2.1384,-2.1384,-2.1384,-2.1384,-2.1384,-2.1384,-2.1384,-2.1384,-2.1384,-2.1384,-2.1384,-2.1384,-2.1384,-2.1384,-2.1384,-2.1384,-2.1384,-2.1384,-2.1384,-2.1384,-2.1384,-2.1384,-2.1384,-2.1384,-2.1384,-2.1384,-2.1384,-2.1384,-2.1384,-2.1384,-2.1384,-2.1384,-2.1384,-2.1384,-2.2042,-2.269,-2.3128,-2.3792,-2.4446,-2.4664,-2.4882,-2.5317,-2.5762,-2.6196,-2.6847,-2.7713,-2.8576,-2.8996,-2.9438,-3.0082,-3.094,-3.1795,-3.2435,-3.3286,-3.3922,-3.4557,-3.498,-3.5204,-3.5204,-3.5204,-3.5204,-3.5204,-3.5204,-3.5204,-3.5204,-3.5204,-3.5204,-3.5204,-3.5204,-3.5204,-3.5204,-3.5204,-3.5204,-3.5204,-3.5204,-3.5204,-3.5204,-1.2757,-1.3207,-1.4536,-1.5424,-1.6089,-1.6539,-1.7203,-1.7867,-1.8309,-1.8971,-1.9632,-2.0285,-2.0945,-2.1384,-2.1384,-2.1384,-2.1384,-2.1384,-2.1384,-2.1384,-2.1384,-2.1384,-2.1384,-2.1384,-2.1384,-2.1384,-2.1384,-2.1384,-2.1384,-2.1384,-2.1384,-2.1384,-2.1384,-2.1384,-2.1384,-2.1384,-2.1384,-2.1384,-2.1384,-2.1384,-2.1384,-2.1384,-2.1384,-2.1384,-2.1384,-2.1384,-2.1384,-2.1384,-2.1384,-2.1384,-2.1384,-2.1384,-2.1384,-2.1384,-2.1384,-2.1384,-2.1384,-2.1384,-2.1384,-2.1384,-2.1384,-2.1384,-2.1384,-2.1384,-2.1384,-2.1384,-2.1384,-2.1384,-2.1384,-2.1384,-2.1384,-2.1384,-2.2042,-2.269,-2.3128,-2.3792,-2.4446,-2.4664,-2.4882,-2.5317,-2.5762,-2.6413,-2.7063,-2.7713,-2.8576,-2.9211,-2.9641,-3.0297,-3.1154,-3.2008,-3.286,-3.3498,-3.4134,-3.4768,-3.498,-3.5204,-3.5204,-3.5204,-3.5204,-3.5204,-3.5204,-3.5204,-3.5204,-3.5204,-3.5204,-3.5204,-3.5204,-3.5204,-3.5204,-3.5204,-3.5204,-3.5204,-3.5204,-3.5204,-3.5204,-1.2534,-1.2757,-1.3875,-1.4986,-1.6089,-1.6089,-1.676,-1.786,-1.7867,-1.853,-1.9625,-2.0725,-2.1384,-2.1384,-2.1384,-2.1384,-2.1384,-2.1384,-2.1384,-2.1384,-2.1384,-2.1384,-2.1384,-2.1384,-2.1384,-2.1384,-2.1384,-2.1384,-2.1384,-2.1384,-2.1384,-2.1384,-2.1384,-2.1384,-2.1384,-2.1384,-2.1384,-2.1384,-2.1384,-2.1384,-2.1384,-2.1384,-2.1384,-2.1384,-2.1384,-2.1384,-2.1384,-2.1384,-2.1384,-2.1384,-2.1384,-2.1384,-2.1384,-2.1384,-2.1384,-2.1384,-2.1384,-2.1384,-2.1384,-2.1384,-2.1384,-2.1384,-2.1384,-2.1384,-2.1384,-2.1384,-2.1384,-2.1384,-2.1384,-2.1384,-2.1384,-2.1603,-2.2034,-2.269,-2.3128,-2.3792,-2.4446,-2.4882,-2.4882,-2.51,-2.5762,-2.6413,-2.7063,-2.7713,-2.8792,-2.9426,-3.0297,-3.094,-3.1581,-3.2435,-3.3073,-3.371,-3.4557,-3.498,-3.5204,-3.5204,-3.5204,-3.5204,-3.5204,-3.5204,-3.5204,-3.5204,-3.5204,-3.5204,-3.5204,-3.5204,-3.5204,-3.5204,-3.5204,-3.5204,-3.5204,-3.5204,-3.5204,-3.5204,-3.5204,-1.2093,-1.2539,-1.343,-1.4536,-1.5646,-1.5868,-1.6539,-1.7424,-1.7646,-1.853,-1.9632,-2.0725,-2.1384,-2.1384,-2.1384,-2.1384,-2.1384,-2.1384,-2.1384,-2.1384,-2.1384,-2.1384,-2.1384,-2.1384,-2.1384,-2.1384,-2.1384,-2.1384,-2.1384,-2.1384,-2.1384,-2.1384,-2.1384,-2.1384,-2.1384,-2.1384,-2.1384,-2.1384,-2.1384,-2.1384,-2.1384,-2.1384,-2.1384,-2.1384,-2.1384,-2.1384,-2.1384,-2.1384,-2.1384,-2.1384,-2.1384,-2.1384,-2.1384,-2.1384,-2.1384,-2.1384,-2.1384,-2.1384,-2.1384,-2.1384,-2.1384,-2.1384,-2.1384,-2.1384,-2.1384,-2.1384,-2.1384,-2.1384,-2.1384,-2.1384,-2.1384,-2.1384,-2.1814,-2.269,-2.3346,-2.3792,-2.4446,-2.4882,-2.4882,-2.51,-2.5762,-2.663,-2.7063,-2.7713,-2.8792,-2.9641,-3.0511,-3.138,-3.202,-3.266,-3.3286,-3.371,-3.4557,-3.4993,-3.5204,-3.5204,-3.5204,-3.5204,-3.5204,-3.5204,-3.5204,-3.5204,-3.5204,-3.5204,-3.5204,-3.5204,-3.5204,-3.5204,-3.5204,-3.5204,-3.5204,-3.5204,-3.5204,-3.5204,-3.5204,-1.1866,-1.2534,-1.3207,-1.4092,-1.5197,-1.5868,-1.6539,-1.6982,-1.7646,-1.8522,-1.9632,-2.0725,-2.1164,-2.1384,-2.1384,-2.1384,-2.1384,-2.1384,-2.1384,-2.1384,-2.1384,-2.1384,-2.1384,-2.1384,-2.1384,-2.1384,-2.1384,-2.1384,-2.1384,-2.1384,-2.1384,-2.1384,-2.1384,-2.1384,-2.1384,-2.1384,-2.1384,-2.1384,-2.1384,-2.1384,-2.1384,-2.1384,-2.1384,-2.1384,-2.1384,-2.1384,-2.1384,-2.1384,-2.1384,-2.1384,-2.1384,-2.1384,-2.1384,-2.1384,-2.1384,-2.1384,-2.1384,-2.1384,-2.1384,-2.1384,-2.1384,-2.1384,-2.1384,-2.1384,-2.1384,-2.1384,-2.1384,-2.1384,-2.1384,-2.1384,-2.1384,-2.1384,-2.1823,-2.2699,-2.3128,-2.3565,-2.4446,-2.4882,-2.4882,-2.4882,-2.5762,-2.663,-2.728,-2.7929,-2.9007,-3.0082,-3.094,-3.138,-3.1807,-3.266,-3.3286,-3.3922,-3.4557,-3.498,-3.5204,-3.5204,-3.5204,-3.5204,-3.5204,-3.5204,-3.5204,-3.5204,-3.5204,-3.5204,-3.5204,-3.5204,-3.5204,-3.5204,-3.5204,-3.5204,-3.5204,-3.5204,-3.5204,-3.5204,-3.5204,-1.1866,-1.2534,-1.3207,-1.4092,-1.5197,-1.5868,-1.6317,-1.6988,-1.7646,-1.853,-1.9632,-2.0285,-2.0945,-2.1384,-2.1384,-2.1384,-2.1384,-2.1384,-2.1384,-2.1384,-2.1384,-2.1384,-2.1384,-2.1384,-2.1384,-2.1384,-2.1384,-2.1384,-2.1384,-2.1384,-2.1384,-2.1384,-2.1384,-2.1384,-2.1384,-2.1384,-2.1384,-2.1384,-2.1384,-2.1384,-2.1384,-2.1384,-2.1384,-2.1384,-2.1384,-2.1384,-2.1384,-2.1384,-2.1384,-2.1384,-2.1384,-2.1384,-2.1384,-2.1384,-2.1384,-2.1384,-2.1384,-2.1384,-2.1384,-2.1384,-2.1384,-2.1384,-2.1384,-2.1384,-2.1384,-2.1384,-2.1384,-2.1384,-2.1384,-2.1384,-2.1384,-2.1603,-2.2261,-2.2699,-2.3128,-2.3565,-2.4446,-2.4882,-2.4882,-2.51,-2.5979,-2.6847,-2.7496,-2.835,-2.9438,-3.0297,-3.1166,-3.1593,-3.202,-3.2648,-3.3498,-3.3922,-3.4346,-3.498,-3.5204,-3.5204,-3.5204,-3.5204,-3.5204,-3.5204,-3.5204,-3.5204,-3.5204,-3.5204,-3.5204,-3.5204,-3.5204,-3.5204,-3.5204,-3.5204,-3.5204,-3.5204,-3.5204,-3.5204,-3.5204,-1.1643,-1.2534,-1.2757,-1.3425,-1.4764,-1.5646,-1.6311,-1.6539,-1.7867,-1.8971,-1.9632,-2.0285,-2.0725,-2.1164,-2.1384,-2.1384,-2.1384,-2.1384,-2.1384,-2.1384,-2.1384,-2.1384,-2.1384,-2.1384,-2.1384,-2.1384,-2.1384,-2.1384,-2.1384,-2.1384,-2.1384,-2.1384,-2.1384,-2.1384,-2.1384,-2.1384,-2.1384,-2.1384,-2.1384,-2.1384,-2.1384,-2.1384,-2.1384,-2.1384,-2.1384,-2.1384,-2.1384,-2.1384,-2.1384,-2.1384,-2.1384,-2.1384,-2.1384,-2.1384,-2.1384,-2.1384,-2.1384,-2.1384,-2.1384,-2.1384,-2.1384,-2.1384,-2.1384,-2.1384,-2.1384,-2.1384,-2.1384,-2.1384,-2.1384,-2.1384,-2.1384,-2.1823,-2.248,-2.2918,-2.3346,-2.401,-2.4664,-2.4882,-2.51,-2.5535,-2.6196,-2.7063,-2.7929,-2.8792,-2.9868,-3.0511,-3.1166,-3.1593,-3.1807,-3.266,-3.3498,-3.3922,-3.4346,-3.4782,-3.5204,-3.5204,-3.5204,-3.5204,-3.5204,-3.5204,-3.5204,-3.5204,-3.5204,-3.5204,-3.5204,-3.5204,-3.5204,-3.5204,-3.5204,-3.5204,-3.5204,-3.5204,-3.5204,-3.5204,-3.5204,-1.142,-1.2534,-1.2539,-1.3202,-1.432,-1.5652,-1.6311,-1.6754,-1.7867,-1.875,-1.9632,-2.0065,-2.0725,-2.1164,-2.1384,-2.1384,-2.1384,-2.1384,-2.1384,-2.1384,-2.1384,-2.1384,-2.1384,-2.1384,-2.1384,-2.1384,-2.1384,-2.1384,-2.1384,-2.1384,-2.1384,-2.1384,-2.1384,-2.1384,-2.1384,-2.1384,-2.1384,-2.1384,-2.1384,-2.1384,-2.1384,-2.1384,-2.1384,-2.1384,-2.1384,-2.1384,-2.1384,-2.1384,-2.1384,-2.1384,-2.1384,-2.1384,-2.1384,-2.1384,-2.1384,-2.1384,-2.1384,-2.1384,-2.1384,-2.1384,-2.1384,-2.1384,-2.1384,-2.1384,-2.1384,-2.1384,-2.1384,-2.1384,-2.1384,-2.1384,-2.1384,-2.2042,-2.2472,-2.3137,-2.3565,-2.4228,-2.4664,-2.4882,-2.51,-2.5762,-2.6413,-2.728,-2.836,-2.9222,-3.0082,-3.0726,-3.1154,-3.1593,-3.1807,-3.2873,-3.3498,-3.3922,-3.4346,-3.4993,-3.5204,-3.5204,-3.5204,-3.5204,-3.5204,-3.5204,-3.5204,-3.5204,-3.5204,-3.5204,-3.5204,-3.5204,-3.5204,-3.5204,-3.5204,-3.5204,-3.5204,-3.5204,-3.5204,-3.5204,-3.5204,-1.142,-1.2534,-1.2539,-1.3202,-1.432,-1.5652,-1.6754,-1.7867,-1.786,-1.8522,-1.9632,-1.9632,-2.0285,-2.1164,-2.1384,-2.1384,-2.1384,-2.1384,-2.1384,-2.1384,-2.1384,-2.1384,-2.1384,-2.1384,-2.1384,-2.1384,-2.1384,-2.1384,-2.1384,-2.1384,-2.1384,-2.1384,-2.1384,-2.1384,-2.1384,-2.1384,-2.1384,-2.1384,-2.1384,-2.1384,-2.1384,-2.1384,-2.1384,-2.1384,-2.1384,-2.1384,-2.1384,-2.1384,-2.1384,-2.1384,-2.1384,-2.1384,-2.1384,-2.1384,-2.1384,-2.1384,-2.1384,-2.1384,-2.1384,-2.1384,-2.1384,-2.1384,-2.1384,-2.1384,-2.1384,-2.1384,-2.1384,-2.1384,-2.1384,-2.1384,-2.1384,-2.2042,-2.2699,-2.3137,-2.3783,-2.4228,-2.4664,-2.51,-2.5317,-2.5762,-2.663,-2.7496,-2.8781,-2.9641,-3.0297,-3.0726,-3.1368,-3.1795,-3.2234,-3.2873,-3.3498,-3.3922,-3.4346,-3.4993,-3.5204,-3.5204,-3.5204,-3.5204,-3.5204,-3.5204,-3.5204,-3.5204,-3.5204,-3.5204,-3.5204,-3.5204,-3.5204,-3.5204,-3.5204,-3.5204,-3.5204,-3.5204,-3.5204,-3.5204,-3.5204,-1.142,-1.2534,-1.2539,-1.3202,-1.432,-1.5652,-1.6754,-1.786,-1.786,-1.853,-1.9632,-1.9632,-2.0285,-2.1384,-2.1384,-2.1384,-2.1384,-2.1384,-2.1384,-2.1384,-2.1384,-2.1384,-2.1384,-2.1384,-2.1384,-2.1384,-2.1384,-2.1384,-2.1384,-2.1384,-2.1384,-2.1384,-2.1384,-2.1384,-2.1384,-2.1384,-2.1384,-2.1384,-2.1384,-2.1384,-2.1384,-2.1384,-2.1384,-2.1384,-2.1384,-2.1384,-2.1384,-2.1384,-2.1384,-2.1384,-2.1384,-2.1384,-2.1384,-2.1384,-2.1384,-2.1384,-2.1384,-2.1384,-2.1384,-2.1384,-2.1384,-2.1384,-2.1384,-2.1384,-2.1384,-2.1384,-2.1384,-2.1384,-2.1384,-2.1384,-2.1823,-2.2261,-2.2699,-2.3355,-2.4001,-2.4446,-2.4882,-2.4882,-2.5317,-2.6196,-2.6847,-2.7929,-2.9211,-2.9653,-3.0297,-3.094,-3.1368,-3.1795,-3.2435,-3.3086,-3.371,-3.3922,-3.4557,-3.5204,-3.5204,-3.5204,-3.5204,-3.5204,-3.5204,-3.5204,-3.5204,-3.5204,-3.5204,-3.5204,-3.5204,-3.5204,-3.5204,-3.5204,-3.5204,-3.5204,-3.5204,-3.5204,-3.5204,-3.5204,-3.5204,-1.142,-1.2534,-1.2539,-1.3425,-1.4986,-1.5874,-1.6754,-1.786,-1.786,-1.8522,-1.9625,-1.9632,-2.0293,-2.1164,-2.1384,-2.1384,-2.1384,-2.1384,-2.1384,-2.1384,-2.1384,-2.1384,-2.1384,-2.1384,-2.1384,-2.1384,-2.1384,-2.1384,-2.1384,-2.1384,-2.1384,-2.1384,-2.1384,-2.1384,-2.1384,-2.1384,-2.1384,-2.1384,-2.1384,-2.1384,-2.1384,-2.1384,-2.1384,-2.1384,-2.1384,-2.1384,-2.1384,-2.1384,-2.1384,-2.1384,-2.1384,-2.1384,-2.1384,-2.1384,-2.1384,-2.1384,-2.1384,-2.1384,-2.1384,-2.1384,-2.1384,-2.1384,-2.1384,-2.1384,-2.1384,-2.1384,-2.1384,-2.1384,-2.1384,-2.1603,-2.2042,-2.248,-2.2918,-2.3574,-2.4228,-2.4882,-2.4882,-2.4882,-2.5535,-2.663,-2.7496,-2.8576,-2.9222,-2.9868,-3.0297,-3.1154,-3.1807,-3.2234,-3.266,-3.3298,-3.371,-3.4134,-3.4557,-3.5204,-3.5204,-3.5204,-3.5204,-3.5204,-3.5204,-3.5204,-3.5204,-3.5204,-3.5204,-3.5204,-3.5204,-3.5204,-3.5204,-3.5204,-3.5204,-3.5204,-3.5204,-3.5204,-3.5204,-3.5204,-3.5204,-1.1424,-1.2534,-1.2534,-1.4092,-1.5868,-1.6089,-1.6754,-1.786,-1.786,-1.853,-1.9412,-1.9632,-2.0285,-2.1164,-2.1384,-2.1384,-2.1384,-2.1384,-2.1384,-2.1384,-2.1384,-2.1384,-2.1384,-2.1384,-2.1384,-2.1384,-2.1384,-2.1384,-2.1384,-2.1384,-2.1384,-2.1384,-2.1384,-2.1384,-2.1384,-2.1384,-2.1384,-2.1384,-2.1384,-2.1384,-2.1384,-2.1384,-2.1384,-2.1384,-2.1384,-2.1384,-2.1384,-2.1384,-2.1384,-2.1384,-2.1384,-2.1384,-2.1384,-2.1384,-2.1384,-2.1384,-2.1384,-2.1384,-2.1384,-2.1384,-2.1384,-2.1384,-2.1384,-2.1384,-2.1384,-2.1384,-2.1384,-2.1384,-2.1384,-2.1603,-2.2042,-2.2699,-2.3137,-2.3792,-2.4446,-2.4882,-2.4882,-2.51,-2.5969,-2.6847,-2.7713,-2.8792,-2.9653,-3.0082,-3.0511,-3.138,-3.1807,-3.2234,-3.2873,-3.3511,-3.3922,-3.4346,-3.4768,-3.5204,-3.5204,-3.5204,-3.5204,-3.5204,-3.5204,-3.5204,-3.5204,-3.5204,-3.5204,-3.5204,-3.5204,-3.5204,-3.5204,-3.5204,-3.5204,-3.5204,-3.5204,-3.5204,-3.5204,-3.5204,-3.5204,-1.1866,-1.2539,-1.343,-1.4764,-1.6096,-1.6089,-1.6754,-1.786,-1.786,-1.853,-1.9412,-1.9625,-2.0293,-2.1384,-2.1384,-2.1384,-2.1384,-2.1384,-2.1384,-2.1384,-2.1384,-2.1384,-2.1384,-2.1384,-2.1384,-2.1384,-2.1384,-2.1384,-2.1384,-2.1384,-2.1384,-2.1384,-2.1384,-2.1384,-2.1384,-2.1384,-2.1384,-2.1384,-2.1384,-2.1384,-2.1384,-2.1384,-2.1384,-2.1384,-2.1384,-2.1384,-2.1384,-2.1384,-2.1384,-2.1384,-2.1384,-2.1384,-2.1384,-2.1384,-2.1384,-2.1384,-2.1384,-2.1384,-2.1384,-2.1384,-2.1384,-2.1384,-2.1384,-2.1384,-2.1384,-2.1384,-2.1384,-2.1384,-2.1603,-2.1823,-2.2261,-2.2918,-2.3346,-2.4001,-2.4446,-2.4664,-2.4882,-2.5752,-2.6403,-2.7063,-2.7929,-2.8792,-2.9653,-3.0297,-3.0737,-3.1166,-3.1593,-3.2234,-3.2873,-3.3511,-3.4134,-3.4557,-3.498,-3.5204,-3.5204,-3.5204,-3.5204,-3.5204,-3.5204,-3.5204,-3.5204,-3.5204,-3.5204,-3.5204,-3.5204,-3.5204,-3.5204,-3.5204,-3.5204,-3.5204,-3.5204,-3.5204,-3.5204,-3.5204,-3.5204,-1.2089,-1.2985,-1.3875,-1.4986,-1.6089,-1.6089,-1.6754,-1.786,-1.786,-1.853,-1.9412,-1.9625,-2.0293,-2.1384,-2.1384,-2.1384,-2.1384,-2.1384,-2.1384,-2.1384,-2.1384,-2.1384,-2.1384,-2.1384,-2.1384,-2.1384,-2.1384,-2.1384,-2.1384,-2.1384,-2.1384,-2.1384,-2.1384,-2.1384,-2.1384,-2.1384,-2.1384,-2.1384,-2.1384,-2.1384,-2.1384,-2.1384,-2.1384,-2.1384,-2.1384,-2.1384,-2.1384,-2.1384,-2.1384,-2.1384,-2.1384,-2.1384,-2.1384,-2.1384,-2.1384,-2.1384,-2.1384,-2.1384,-2.1384,-2.1384,-2.1384,-2.1384,-2.1384,-2.1384,-2.1384,-2.1384,-2.1384,-2.1384,-2.1384,-2.1603,-2.248,-2.3137,-2.3792,-2.4228,-2.4664,-2.4882,-2.5317,-2.5979,-2.662,-2.727,-2.8134,-2.9211,-2.9856,-3.0511,-3.094,-3.1593,-3.1807,-3.2447,-3.3086,-3.371,-3.4346,-3.4768,-3.4993,-3.5204,-3.5204,-3.5204,-3.5204,-3.5204,-3.5204,-3.5204,-3.5204,-3.5204,-3.5204,-3.5204,-3.5204,-3.5204,-3.5204,-3.5204,-3.5204,-3.5204,-3.5204,-3.5204,-3.5204,-3.5204,-3.5204,-1.2534,-1.3652,-1.4097,-1.4986,-1.6089,-1.6311,-1.676,-1.7867,-1.8088,-1.853,-1.9632,-1.9632,-2.0505,-2.1164,-2.1384,-2.1384,-2.1384,-2.1384,-2.1384,-2.1384,-2.1384,-2.1384,-2.1384,-2.1384,-2.1384,-2.1384,-2.1384,-2.1384,-2.1384,-2.1384,-2.1384,-2.1384,-2.1384,-2.1384,-2.1384,-2.1384,-2.1384,-2.1384,-2.1384,-2.1384,-2.1384,-2.1384,-2.1384,-2.1384,-2.1384,-2.1384,-2.1384,-2.1384,-2.1384,-2.1384,-2.1384,-2.1384,-2.1384,-2.1384,-2.1384,-2.1384,-2.1384,-2.1384,-2.1384,-2.1384,-2.1384,-2.1384,-2.1384,-2.1384,-2.1384,-2.1384,-2.1384,-2.1384,-2.1384,-2.1823,-2.2699,-2.3137,-2.3792,-2.4446,-2.4882,-2.5317,-2.5762,-2.6413,-2.6847,-2.7486,-2.835,-2.9426,-3.0071,-3.0511,-3.1154,-3.1807,-3.2234,-3.286,-3.3286,-3.3922,-3.4346,-3.4768,-3.5204,-3.5204,-3.5204,-3.5204,-3.5204,-3.5204,-3.5204,-3.5204,-3.5204,-3.5204,-3.5204,-3.5204,-3.5204,-3.5204,-3.5204,-3.5204,-3.5204,-3.5204,-3.5204,-3.5204,-3.5204,-3.5204,-3.5204,-1.3425,-1.4097,-1.4758,-1.5424,-1.6096,-1.6539,-1.7203,-1.7867,-1.8309,-1.8971,-1.9632,-2.0073,-2.0725,-2.1384,-2.1384,-2.1384,-2.1384,-2.1384,-2.1384,-2.1384,-2.1384,-2.1384,-2.1384,-2.1384,-2.1384,-2.1384,-2.1384,-2.1384,-2.1384,-2.1384,-2.1384,-2.1384,-2.1384,-2.1384,-2.1384,-2.1384,-2.1384,-2.1384,-2.1384,-2.1384,-2.1384,-2.1384,-2.1384,-2.1384,-2.1384,-2.1384,-2.1384,-2.1384,-2.1384,-2.1384,-2.1384,-2.1384,-2.1384,-2.1384,-2.1384,-2.1384,-2.1384,-2.1384,-2.1384,-2.1384,-2.1384,-2.1384,-2.1384,-2.1384,-2.1384,-2.1384,-2.1384,-2.1384,-2.1603,-2.2042,-2.269,-2.2909,-2.3565,-2.4446,-2.4882,-2.5544,-2.6196,-2.663,-2.7063,-2.7702,-2.8781,-2.9426,-3.0082,-3.0511,-3.1154,-3.1807,-3.2447,-3.286,-3.3498,-3.3922,-3.4557,-3.4768,-3.5204,-3.5204,-3.5204,-3.5204,-3.5204,-3.5204,-3.5204,-3.5204,-3.5204,-3.5204,-3.5204,-3.5204,-3.5204,-3.5204,-3.5204,-3.5204,-3.5204,-3.5204,-3.5204,-3.5204,-3.5204,-3.5204,-3.5204]}]]